[[{"header":{"parameterUnit":"m.s-1","parameterCategory":1,"la1":30.6,"la2":28.766,"lo1":-90.7593,"lo2":-88.6598,"dy":0.0162,"dx":0.0183,"nx":116,"ny":114,"refTime":"2023-09-02T12:00:00:Z","depth":0,"parameterNumber":2,"parameterNumberName":"U-component_of_WINDS"},"data":[0.0,0.0,0.0,0.0,0.0,0.0,0.0,0.0,0.0,0.0,0.0,0.0,0.0,0.0,0.0,0.0,0.0,0.0,0.0,0.0,0.0,0.0,0.0,0.0,0.0,0.0,0.0,0.0,0.0,0.0,0.0,0.0,0.0,0.0,0.0,0.0,0.0,0.0,0.0,0.0,0.0,0.0,0.0,0.0,0.0,0.0,0.0,0.0,0.0,0.0,0.0,0.0,0.0,0.0,0.0,0.0,0.0,0.0,0.0,0.0,0.0,0.0,0.0,0.0,0.0,0.0,0.0,0.0,0.0,0.0,0.0,0.0,0.0,0.0,0.0,0.0,0.0,0.0,0.0,0.0,0.0,0.0,0.0,0.0,0.0,0.0,0.0,0.0,0.0,0.0,0.0,0.0,0.0,0.0,0.0,0.0,0.0,0.0,0.0,0.0,0.0,0.0,0.0,0.0,0.0,0.0,0.0,0.0,0.0,0.0,0.0,0.0,0.0,0.0,0.0,0.0,0.0,0.0,0.0,0.0,0.0,0.0,0.0,0.0,0.0,0.0,0.0,0.0,0.0,0.0,0.0,0.0,0.0,0.0,0.0,0.0,0.0,0.0,0.0,0.0,0.0,0.0,0.0,0.0,0.0,0.0,0.0,0.0,0.0,0.0,0.0,0.0,0.0,0.0,0.0,0.0,0.0,0.0,0.0,0.0,0.0,0.0,0.0,0.0,0.0,0.0,0.0,0.0,0.0,0.0,0.0,0.0,0.0,0.0,0.0,0.0,0.0,0.0,0.0,0.0,0.0,0.0,0.0,0.0,0.0,0.0,0.0,0.0,0.0,0.0,0.0,0.0,0.0,0.0,0.0,0.0,0.0,0.0,0.0,0.0,0.0,0.0,0.0,0.0,0.0,0.0,0.0,0.0,0.0,0.0,0.0,0.0,0.0,0.0,0.0,0.0,0.0,0.0,0.0,0.0,0.0,0.0,0.0,0.0,0.0,0.0,0.0,0.0,0.0,0.0,0.0,0.0,0.0,0.0,0.0,0.0,0.0,0.0,0.0,0.0,0.0,0.0,0.0,0.0,0.0,0.0,0.0,0.0,0.0,0.0,0.0,0.0,0.0,0.0,0.0,0.0,0.0,0.0,0.0,0.0,0.0,0.0,0.0,0.0,0.0,0.0,0.0,0.0,0.0,0.0,0.0,0.0,0.0,0.0,0.0,0.0,0.0,0.0,0.0,0.0,0.0,0.0,0.0,0.0,0.0,0.0,0.0,0.0,0.0,0.0,0.0,0.0,0.0,0.0,0.0,0.0,0.0,0.0,0.0,0.0,0.0,0.0,0.0,0.0,0.0,0.0,0.0,0.0,0.0,0.0,0.0,0.0,0.0,0.0,0.0,0.0,0.0,0.0,0.0,0.0,0.0,0.0,0.0,0.0,0.0,0.0,0.0,0.0,0.0,0.0,0.0,0.0,0.0,0.0,0.0,0.0,0.0,0.0,0.0,0.0,0.0,0.0,0.0,0.0,0.0,0.0,0.0,0.0,0.0,0.0,0.0,0.0,0.0,0.0,0.0,0.0,0.0,0.0,0.0,0.0,0.0,0.0,0.0,0.0,0.0,0.0,0.0,0.0,0.0,0.0,0.0,0.0,0.0,0.0,0.0,0.0,0.0,0.0,0.0,0.0,0.0,0.0,0.0,0.0,0.0,0.0,0.0,0.0,0.0,0.0,0.0,0.0,0.0,0.0,0.0,0.0,0.0,0.0,0.0,0.0,0.0,0.0,0.0,0.0,0.0,0.0,0.0,0.0,0.0,0.0,0.0,0.0,0.0,0.0,0.0,0.0,0.0,0.0,0.0,0.0,0.0,0.0,0.0,0.0,0.0,0.0,0.0,0.0,0.0,0.0,0.0,0.0,0.0,0.0,0.0,0.0,0.0,0.0,0.0,0.0,0.0,0.0,0.0,0.0,0.0,0.0,0.0,0.0,0.0,0.0,0.0,0.0,0.0,0.0,0.0,0.0,0.0,0.0,0.0,0.0,0.0,0.0,0.0,0.0,0.0,0.0,0.0,0.0,0.0,0.0,0.0,0.0,0.0,0.0,0.0,0.0,0.0,0.0,0.0,0.0,0.0,0.0,0.0,0.0,0.0,0.0,0.0,0.0,0.0,0.0,0.0,0.0,0.0,0.0,0.0,0.0,0.0,0.0,0.0,0.0,0.0,0.0,0.0,0.0,0.0,0.0,0.0,0.0,0.0,0.0,0.0,0.0,0.0,0.0,0.0,0.0,0.0,0.0,0.0,0.0,0.0,0.0,0.0,0.0,0.0,0.0,0.0,0.0,0.0,0.0,0.0,0.0,0.0,0.0,0.0,0.0,0.0,0.0,0.0,0.0,0.0,0.0,0.0,0.0,0.0,0.0,0.0,0.0,0.0,0.0,0.0,0.0,0.0,0.0,0.0,0.0,0.0,0.0,0.0,0.0,0.0,0.0,0.0,0.0,0.0,0.0,0.0,0.0,0.0,0.0,0.0,0.0,0.0,0.0,0.0,0.0,0.0,0.0,0.0,0.0,0.0,0.0,0.0,0.0,0.0,0.0,0.0,0.0,0.0,0.0,0.0,0.0,0.0,0.0,0.0,0.0,0.0,0.0,0.0,0.0,0.0,0.0,0.0,0.0,0.0,0.0,0.0,0.0,0.0,0.0,0.0,0.0,0.0,0.0,0.0,0.0,0.0,0.0,0.0,0.0,0.0,0.0,0.0,0.0,0.0,0.0,0.0,0.0,0.0,0.0,0.0,0.0,0.0,0.0,0.0,0.0,0.0,0.0,0.0,0.0,0.0,0.0,0.0,0.0,0.0,0.0,0.0,0.0,0.0,0.0,0.0,0.0,0.0,0.0,0.0,0.0,0.0,0.0,0.0,0.0,0.0,0.0,0.0,0.0,0.0,0.0,0.0,0.0,0.0,0.0,0.0,0.0,0.0,0.0,0.0,0.0,0.0,0.0,0.0,0.0,0.0,0.0,0.0,0.0,0.0,0.0,0.0,0.0,0.0,0.0,0.0,0.0,0.0,0.0,0.0,0.0,0.0,0.0,0.0,0.0,0.0,0.0,0.0,0.0,0.0,0.0,0.0,0.0,0.0,0.0,0.0,0.0,0.0,0.0,0.0,0.0,0.0,0.0,0.0,0.0,0.0,0.0,0.0,0.0,0.0,0.0,0.0,0.0,0.0,0.0,0.0,0.0,0.0,0.0,0.0,0.0,0.0,0.0,0.0,0.0,0.0,0.0,0.0,0.0,0.0,0.0,0.0,0.0,0.0,0.0,0.0,0.0,0.0,0.0,0.0,0.0,0.0,0.0,0.0,0.0,0.0,0.0,0.0,0.0,0.0,0.0,0.0,0.0,0.0,0.0,0.0,0.0,0.0,0.0,0.0,0.0,0.0,0.0,0.0,0.0,0.0,0.0,0.0,0.0,0.0,0.0,0.0,0.0,0.0,0.0,0.0,0.0,0.0,0.0,0.0,0.0,0.0,0.0,0.0,0.0,0.0,0.0,0.0,0.0,0.0,0.0,0.0,0.0,0.0,0.0,0.0,0.0,0.0,0.0,0.0,0.0,0.0,0.0,0.0,0.0,0.0,0.0,0.0,0.0,0.0,0.0,0.0,0.0,0.0,0.0,0.0,0.0,0.0,0.0,0.0,0.0,0.0,0.0,0.0,0.0,0.0,0.0,0.0,0.0,0.0,0.0,0.0,0.0,0.0,0.0,0.0,0.0,0.0,0.0,0.0,0.0,0.0,0.0,0.0,0.0,0.0,0.0,0.0,0.0,0.0,0.0,0.0,0.0,0.0,0.0,0.0,0.0,0.0,0.0,0.0,0.0,0.0,0.0,0.0,0.0,0.0,0.0,0.0,0.0,0.0,0.0,0.0,0.0,0.0,0.0,0.0,0.0,0.0,0.0,0.0,0.0,0.0,0.0,0.0,0.0,0.0,0.0,0.0,0.0,0.0,0.0,0.0,0.0,0.0,0.0,0.0,0.0,0.0,0.0,0.0,0.0,0.0,0.0,0.0,0.0,0.0,0.0,0.0,0.0,0.0,0.0,0.0,0.0,0.0,0.0,0.0,0.0,0.0,0.0,0.0,0.0,0.0,0.0,0.0,0.0,0.0,0.0,0.0,0.0,0.0,0.0,0.0,0.0,0.0,0.0,0.0,0.0,0.0,0.0,0.0,0.0,0.0,0.0,0.0,0.0,0.0,0.0,0.0,0.0,0.0,0.0,0.0,0.0,0.0,0.0,0.0,0.0,0.0,0.0,0.0,0.0,0.0,0.0,0.0,0.0,0.0,0.0,0.0,0.0,0.0,0.0,0.0,0.0,0.0,0.0,0.0,0.0,0.0,0.0,0.0,0.0,0.0,0.0,0.0,0.0,0.0,0.0,0.0,0.0,0.0,0.0,0.0,0.0,0.0,0.0,0.0,0.0,0.0,0.0,0.0,0.0,0.0,0.0,0.0,0.0,0.0,0.0,0.0,0.0,0.0,0.0,0.0,0.0,0.0,0.0,0.0,0.0,0.0,0.0,0.0,0.0,0.0,0.0,0.0,0.0,0.0,0.0,0.0,0.0,0.0,0.0,0.0,0.0,0.0,0.0,0.0,0.0,0.0,0.0,0.0,0.0,0.0,0.0,0.0,0.0,0.0,0.0,0.0,0.0,0.0,0.0,0.0,0.0,0.0,0.0,0.0,0.0,0.0,0.0,0.0,0.0,0.0,0.0,0.0,0.0,0.0,0.0,0.0,0.0,0.0,0.0,0.0,0.0,0.0,0.0,0.0,0.0,0.0,0.0,0.0,0.0,0.0,0.0,0.0,0.0,0.0,0.0,0.0,0.0,0.0,0.0,0.0,0.0,0.0,0.0,0.0,0.0,0.0,0.0,0.0,0.0,0.0,0.0,0.0,0.0,0.0,0.0,0.0,0.0,0.0,0.0,0.0,0.0,0.0,0.0,0.0,0.0,0.0,0.0,0.0,0.0,0.0,0.0,0.0,0.0,0.0,0.0,0.0,0.0,0.0,0.0,0.0,0.0,0.0,0.0,0.0,0.0,0.0,0.0,0.0,0.0,0.0,0.0,0.0,0.0,0.0,0.0,0.0,0.0,0.0,0.0,0.0,0.0,0.0,0.0,0.0,0.0,0.0,0.0,0.0,0.0,0.0,0.0,0.0,0.0,0.0,0.0,0.0,0.0,0.0,0.0,0.0,0.0,0.0,0.0,0.0,0.0,0.0,0.0,0.0,0.0,0.0,0.0,0.0,0.0,0.0,0.0,0.0,0.0,0.0,0.0,0.0,0.0,0.0,0.0,0.0,0.0,0.0,0.0,0.0,0.0,0.0,0.0,0.0,0.0,0.0,0.0,0.0,0.0,0.0,0.0,0.0,0.0,0.0,0.0,0.0,0.0,0.0,0.0,0.0,0.0,0.0,0.0,0.0,0.0,0.0,0.0,0.0,0.0,0.0,0.0,0.0,0.0,0.0,0.0,0.0,0.0,0.0,0.0,0.0,0.0,0.0,0.0,0.0,0.0,0.0,0.0,0.0,0.0,0.0,0.0,0.0,0.0,0.0,0.0,0.0,0.0,0.0,0.0,0.0,0.0,0.0,0.0,0.0,0.0,0.0,0.0,0.0,0.0,0.0,0.0,0.0,0.0,0.0,0.0,0.0,0.0,0.0,0.0,0.0,0.0,0.0,0.0,0.0,0.0,0.0,0.0,0.0,0.0,0.0,0.0,0.0,0.0,0.0,0.0,0.0,0.0,0.0,0.0,0.0,0.0,0.0,0.0,0.0,0.0,0.0,0.0,0.0,0.0,0.0,0.0,0.0,0.0,0.0,0.0,0.0,0.0,0.0,0.0,0.0,0.0,0.0,0.0,0.0,0.0,0.0,0.0,0.0,0.0,0.0,0.0,0.0,0.0,0.0,0.0,0.0,0.0,0.0,0.0,0.0,0.0,0.0,0.0,0.0,0.0,0.0,0.0,0.0,0.0,0.0,0.0,0.0,0.0,0.0,0.0,0.0,0.0,0.0,0.0,0.0,0.0,0.0,0.0,0.0,0.0,0.2726,0.2111,0.0,0.0,0.0,0.0,0.0,0.0,0.0,0.0,0.0,0.0,0.0,0.0,0.0,0.0,0.0,0.0,0.0,0.0,0.0,0.0,0.0,0.0,0.0,0.0,0.0,0.0,0.0,0.0,0.0,0.0,0.0,0.0,0.0,0.0,0.0,0.0,0.0,0.0,0.1387,0.0617,0.0138,0.0031,0.0173,0.0529,0.0,0.0,0.0,0.0,0.0,0.0,0.0,0.0,0.0,0.0,0.0,0.0,0.0,0.0,0.0,0.0,0.0,0.0,0.0,0.0,0.0,0.0,0.0,0.0,0.0,0.0,0.0,0.0,0.0,0.0,0.0,0.0,0.0,0.0,0.0,0.0,0.0,0.0,0.0,0.0,0.0,0.0,0.0,0.0,0.0,0.0,0.0,0.0,0.0,0.0,0.0,0.0,0.0,0.0,0.0,0.0,0.0,0.0,0.0,0.0,0.0,0.0,0.0,0.0,0.0,0.0,0.0,0.0,0.0,0.0,0.0707,0.0183,0.0,0.0,0.0,0.0,0.0,0.0,0.0,0.0,0.0,0.0,0.0,0.0,0.0,0.0,0.0,0.0,0.0,0.0,0.0,0.0,0.0,0.0,0.0,0.0,0.2709,0.2258,0.272,0.2993,0.0,0.0,0.0,0.0,0.0,0.0,0.0,0.2381,0.1749,0.155,0.0342,-0.0721,-0.1656,-0.2329,-0.22,-0.1371,-0.0144,0.0,0.0,0.0,0.0,0.0,0.0,0.0,0.0,0.0,0.0,0.0,0.0,0.0,0.0,0.0,0.0,0.0,0.0,0.0,0.0,0.0,0.0,0.0,0.0,0.0,0.0,0.0,0.0,0.0,0.0,0.0,0.0,0.0,0.0,0.0,0.0,0.0,0.0,0.0,0.0,0.0,0.0,0.0,0.0,0.0,0.0,0.0,0.0,0.0,0.0,0.0,0.0,0.0,0.0,0.0,0.0,0.0,0.0,0.0,0.0,0.0,0.0,0.0,-0.076,-0.1104,-0.128,-0.1721,-0.2253,-0.2776,-0.1565,-0.1986,-0.3527,-0.4128,0.0,0.0,0.0,0.0,0.0,0.0,0.0,0.0,0.0,0.0,0.0,0.0,0.0,0.0,0.0,0.0,0.0,0.0,0.0,0.0,0.0,0.0531,0.052,0.0675,0.1027,0.1453,0.0,0.0,0.0,0.0,0.0,0.0,0.2225,0.1071,0.0224,-0.0254,-0.1973,-0.3144,-0.3797,-0.4194,-0.4357,-0.4272,-0.244,-0.1092,-0.0199,0.0,0.0,0.0,0.0,0.0,0.0,0.0,0.0,0.0,0.0,0.0,0.0,0.0,0.0,0.0,0.0,0.0,0.0,0.0,0.0,0.0,0.0,0.0,0.0,0.0,0.0,0.0,0.0,0.0,0.0,0.0,0.0,0.0,0.0,0.0,0.0,0.0,0.0,0.0,0.0,0.0,0.4053,0.4053,0.0,0.0,0.0,0.0,0.0,0.0,0.0,0.0,0.0,0.0,0.0,0.0,0.0,-0.226,-0.2233,-0.3942,-0.5112,-0.5739,-0.5211,-0.5445,-0.6311,-0.5476,-0.5475,-0.6133,-0.5478,0.0,-0.4976,-0.4434,0.0,0.0,0.0,0.0,0.0,0.0,0.0,0.0,0.0,0.0,0.0,0.0,0.0,0.0,0.0,0.0,0.0,0.0,0.0,0.0,0.0,-0.0888,-0.0907,-0.0792,-0.0822,-0.0447,0.0503,0.0672,0.0,0.0,0.0,0.0973,0.0772,-0.0648,-0.1891,-0.2968,-0.3751,-0.4564,-0.5374,-0.5371,-0.553,-0.5737,-0.4164,-0.2742,-0.1445,-0.0378,0.0,0.0,0.0,0.0,0.0,0.0,0.0,0.0,0.0,0.0,0.0,0.0,0.0,0.0,0.0,0.0,0.0,0.0,0.0,0.0,0.0,0.0,0.0,0.0,0.0,0.0,0.0,0.0,0.0,0.0,0.0,0.0,0.0,0.0,0.0,0.0,0.0,0.0,0.0,0.3751,0.2659,0.1306,0.2321,0.2793,0.0,0.0,0.0,0.0,0.0,0.0,0.0,0.0,0.0,-0.3876,-0.5333,-0.6036,-0.6005,-0.68,-0.7372,-0.77,-0.7367,-0.7389,-0.7686,-0.7204,-0.7077,-0.7169,-0.6948,-0.6656,-0.6264,-0.5775,-0.5442,-0.5147,0.0,0.0,0.0,0.0,-0.0574,-0.0663,0.0,0.0,0.0,0.0,0.0,0.0,0.0,0.0,0.0,0.0,0.0,0.0,-0.233,-0.2389,-0.2383,-0.2433,-0.2535,-0.2127,-0.1036,-0.0755,0.0,0.0,0.0,-0.0606,-0.0916,-0.2562,-0.401,-0.5236,-0.545,-0.5965,-0.6781,-0.6554,-0.6588,-0.681,-0.5639,-0.4255,-0.2706,-0.1252,-0.0125,0.0751,0.0,0.0,0.0,0.0,0.0,0.0,0.0,0.0,0.0,0.0,0.0,0.0,0.0,0.0,0.0,0.0,0.0,0.0,0.0,0.0,0.0,0.0,0.0,0.0,0.0,0.0,0.0,0.0,0.0,0.0,0.0,0.0,0.0,0.0,0.0,0.0,0.0,0.1758,0.0176,-0.1776,-0.1052,-0.08,0.0,0.0,0.0,0.0,0.0,0.0,-0.5133,-0.6134,-0.6937,-0.7533,-0.8587,-0.9057,-0.8827,-0.9377,-0.967,-0.967,-0.9888,-0.9876,-0.9653,-0.937,-0.9046,-0.8696,-0.8532,-0.8252,-0.7851,-0.6994,-0.6083,-0.5159,-0.4781,-0.3875,-0.2713,-0.2115,-0.1928,-0.2077,0.0,0.0,0.0,0.0,0.0,0.0,0.0,0.0,0.0,0.0,0.0,-0.2844,-0.4212,-0.4252,-0.4246,-0.444,-0.3945,-0.3294,-0.2535,-0.1714,-0.1246,-0.1218,-0.1896,-0.2452,-0.2852,-0.4685,-0.5902,-0.6421,-0.7173,-0.7738,-0.8095,-0.7956,-0.7878,-0.779,-0.689,-0.5531,-0.3847,-0.2805,-0.1587,-0.0293,-0.0022,0.0,0.0,0.0,0.0,0.0,0.0,0.0,0.0,0.0,0.0,0.0,0.0,0.0,0.0,0.0,0.0,0.0,0.0,0.0,0.0,0.0,0.0,0.0,0.0,0.0,0.0,0.0,0.0,0.0,0.0,0.0,0.0,0.0,0.0,0.0,0.0,0.0,0.0,-0.4429,-0.4797,0.0,0.0,0.0,0.0,-0.5122,-0.73,-0.8817,-0.9174,-0.9914,-1.0085,-0.9569,-1.0642,-1.0857,-1.0031,-1.2054,-1.3046,-1.3073,-1.3955,-1.4315,-1.4155,-1.3129,-1.2406,-1.1914,-1.1359,-1.0752,-0.9963,-0.7722,-0.6271,-0.5458,-0.5325,-0.4892,-0.436,-0.4121,-0.4153,-0.4409,0.0,0.0,0.0,0.0,0.0,0.0,0.0,0.0,-0.1214,-0.2253,-0.3267,-0.4237,-0.5165,-0.5412,-0.5519,-0.5498,-0.5421,-0.4935,-0.389,-0.3457,-0.3195,-0.3107,-0.3518,-0.4224,-0.5229,-0.5912,-0.6578,-0.7267,-0.787,-0.8638,-0.9544,-0.9141,-0.9249,-0.9718,-0.8671,-0.7859,-0.7132,-0.4651,-0.3202,-0.2483,-0.1206,0.0125,0.0,0.0,0.0,0.0,0.0,0.0,0.0,0.0,0.0,0.0,0.0,0.0,0.0,0.0,0.0,0.0,0.0,0.0,0.0,0.0,0.0,0.0,0.0,0.0,0.0,0.0,0.0,0.0,0.0,0.0,0.0,0.0,0.0,0.0,0.0,0.0,0.0,-0.7841,-0.8373,0.0,-1.0038,-1.0081,-0.991,-0.9632,-1.0438,-1.0801,-1.0484,-1.0877,-1.1114,-1.1127,-1.1695,-1.184,-1.1516,-1.2265,-1.297,-1.3573,-1.3887,-1.4256,-1.461,-1.4215,-1.3701,-1.31,-1.2883,-1.2393,-1.1713,-1.0875,-0.9367,-0.7547,-0.7493,-0.7051,-0.6347,-0.5614,-0.5806,-0.6324,0.0,0.0,0.0,0.0,0.0,0.0,0.0,0.0,-0.1815,-0.2868,-0.3955,-0.4972,-0.5865,-0.6106,-0.6241,-0.6326,-0.6169,-0.5803,-0.5176,-0.4778,-0.4751,-0.5135,-0.5314,-0.5852,-0.6787,-0.7022,-0.7471,-0.8139,-0.8762,-0.9685,-1.0823,-1.0439,-1.0677,-1.1364,-1.0507,-1.0143,-0.9989,-0.7457,-0.5629,-0.431,-0.271,-0.1089,0.0418,0.0,0.0,0.0,0.0,0.0,0.0,0.0,0.0,0.0,0.0,0.0,0.0,0.0,0.0,0.0,0.0,0.0,0.0,0.0,0.0,0.0,0.0,0.0,0.0,0.0,0.0,0.0,0.0,0.0,0.0,0.0,0.0,0.0,0.0,-0.6821,-0.9259,-1.1328,-1.189,-1.2514,-1.3644,-1.3388,-1.292,-1.2348,-1.2398,-1.2153,-1.1485,-1.1617,-1.181,-1.2047,-1.2204,-1.2305,-1.2305,-1.2629,-1.3091,-1.3709,-1.4343,-1.4825,-1.5121,-1.5155,-1.4744,-1.4042,-1.4042,-1.3699,-1.3155,-1.3418,-1.2368,-1.0456,-0.945,-0.858,-0.7784,-0.6755,-0.6847,-0.7426,0.0,0.0,0.0,0.0,0.0,0.0,0.0,-0.0998,-0.2053,-0.2911,-0.3913,-0.5057,-0.6376,-0.634,-0.6443,-0.6989,-0.6155,-0.5829,-0.6371,-0.5596,-0.575,-0.7165,-0.723,-0.7302,-0.7462,-0.8129,-0.8668,-0.9075,-0.9991,-1.0941,-1.1902,-1.1859,-1.2113,-1.2646,-1.2379,-1.227,-1.2242,-1.1208,-0.8892,-0.5787,-0.4548,-0.2733,-0.0713,0.0,0.0,0.0,0.0,0.0,0.0,0.0,0.0,0.0,0.0,0.0,0.0,0.0,0.0,0.0,0.0,0.0,0.0,0.0,0.0,0.0,0.0,0.0,0.0,0.0,0.0,0.0,0.0,0.0,0.0,0.0,0.0,0.0,-0.9616,-1.1645,-1.3622,-1.4883,-1.532,-1.5254,-1.4602,-1.4808,-1.4455,-1.3117,-1.3267,-1.3098,-1.2395,-1.2335,-1.2342,-1.2305,-1.2305,-1.2305,-1.2305,-1.32,-1.3673,-1.3709,-1.5614,-1.6291,-1.5914,-1.6039,-1.5687,-1.4969,-1.4941,-1.4684,-1.4312,-1.5089,-1.4962,-1.3975,-1.1104,-0.952,-0.873,-0.7681,-0.7465,-0.7848,0.0,0.0,0.0,0.0,0.0,0.0,0.0,-0.159,-0.2811,-0.3494,-0.4835,-0.6002,-0.6706,-0.6735,-0.698,-0.7661,-0.6467,-0.5899,-0.6429,-0.5978,-0.6357,-0.7859,-0.7924,-0.8255,-0.8987,-0.9596,-1.0113,-1.0516,-1.1113,-1.1711,-1.2256,-1.2245,-1.2914,-1.4111,-1.3641,-1.385,-1.4518,-1.3359,-1.1793,-0.977,-0.6384,-0.3978,-0.2338,0.0,0.0,0.0,0.0,0.0,0.0,0.0,0.0,0.0,0.0,0.0,0.0,0.0,0.0,0.0,0.0,0.0,0.0,0.0,0.0,0.0,0.0,0.0,0.0,0.0,0.0,0.0,0.0,0.0,0.0,0.0,-1.187,-1.3671,-1.3558,-1.5334,-1.7047,-1.8093,-1.8237,-1.8035,-1.7504,-1.7547,-1.7042,-1.567,-1.5644,-1.5012,-1.3411,-1.331,-1.2989,-1.2335,-1.2305,-1.2305,-1.2305,-1.2556,-1.3025,-1.3709,-1.4235,-1.5168,-1.6387,-1.6098,-1.6228,-1.6683,-1.605,-1.5714,-1.5579,-1.5449,-1.5575,-1.5727,-1.4343,-1.3299,-1.2559,-1.2076,-1.1784,-1.1745,0.0,0.0,0.0,0.0,0.0,0.0,0.0,-0.1748,-0.2944,-0.3408,-0.4984,-0.6168,-0.6421,-0.6512,-0.6746,-0.7213,-0.6509,-0.6137,-0.6359,-0.6915,-0.7644,-0.8537,-0.866,-0.9031,-0.9755,-1.0189,-1.071,-1.1307,-1.1996,-1.268,-1.3329,-1.3514,-1.4361,-1.5696,-1.5377,-1.5624,-1.6216,-1.5483,-1.4424,-1.2967,-0.9691,-0.6827,-0.4388,-0.3034,-0.1834,-0.0763,0.0048,0.0495,0.0863,0.1685,0.0,0.0,0.0,0.0,0.0,0.0,0.0,0.0,0.0,0.0,0.0,0.0,0.0,0.0,0.0,0.0,0.0,0.0,0.0,0.0,0.0,0.0,0.0,0.0,-1.6117,-1.7915,-1.8834,-1.9144,-1.9638,-2.0714,-2.0115,-1.9529,-1.9257,-1.8844,-1.8053,-1.6698,-1.6764,-1.6104,-1.443,-1.3918,-1.3455,-1.2915,-1.2519,-1.2305,-1.2305,-1.2305,-1.2556,-1.3135,-1.3954,-1.4833,-1.5756,-1.6291,-1.6755,-1.707,-1.6398,-1.6095,-1.6056,-1.5586,-1.5642,0.0,0.0,0.0,0.0,0.0,-1.463,-1.4604,0.0,0.0,0.0,0.0,0.0,0.0,0.0,-0.1624,-0.2652,-0.2929,-0.4612,-0.5743,-0.566,-0.5831,-0.6018,-0.6206,-0.638,-0.6452,-0.6396,-0.8007,-0.8998,-0.91,-0.9327,-0.966,-1.0061,-1.0317,-1.0877,-1.1756,-1.2651,-1.3591,-1.4606,-1.5091,-1.5954,-1.7098,-1.711,-1.727,-1.7482,-1.7294,-1.6584,-1.5446,-1.3571,-1.051,-0.6849,-0.5212,-0.4195,-0.3485,-0.223,-0.197,-0.2018,-0.0572,0.0,0.0,0.0,0.0,0.0,0.0,0.0,0.0,0.0,0.0,0.0,0.0,0.0,0.0,0.0,0.0,0.0,0.0,0.0,0.0,0.0,0.0,0.0,0.0,-2.0105,-2.2096,-2.4341,-2.2934,-2.201,-2.287,-2.152,-2.0495,-2.0339,-1.9469,-1.8389,-1.7075,-1.7221,-1.6804,-1.5495,-1.4545,0.0,0.0,0.0,-1.2445,-1.2445,-1.2445,-1.2445,-1.2482,-1.4307,-1.5025,-1.4779,-1.6461,-1.709,-1.6814,-1.6357,-1.6173,-1.6134,-1.5664,-1.5537,-1.5623,-1.5592,-1.6113,-1.6866,-1.6704,-1.6744,-1.6999,0.0,0.0,0.0,0.0,0.0,0.0,0.0,-0.142,-0.2328,-0.2714,-0.4068,-0.4948,-0.477,-0.488,-0.5342,-0.6281,-0.6291,-0.6626,-0.7512,-0.7877,-0.8366,-0.9063,-0.9554,-1.0037,-1.0543,-1.1082,-1.1798,-1.2727,-1.2925,-1.3531,-1.4538,-1.5164,-1.6042,-1.7104,-1.7208,-1.7768,-1.8535,-1.7638,-1.7106,-1.6724,-1.5364,-1.3027,-1.0124,-0.7817,-0.6446,-0.562,-0.4926,-0.4214,-0.3576,-0.3262,-0.3203,-0.3054,-0.1903,-0.1105,0.0,0.0,0.0,0.0,0.0,0.0,0.0,0.0,0.0,0.0,0.0,0.0,0.0,0.0,0.0,0.0,0.0,0.0,0.0,-2.0818,-2.2781,-2.4613,-2.6471,-2.6188,-2.5472,-2.4643,-2.3862,-2.2949,-2.174,-2.1147,-2.0426,-1.9349,-1.8695,-1.7877,-1.6857,-1.6316,-1.5685,-1.4914,-1.3954,-1.3419,-1.3419,-1.3419,-1.3419,-1.3455,-1.4629,0.0,-1.619,-1.6184,-1.6773,-1.7725,-1.6911,-1.657,-1.6541,-1.6153,-1.6439,-1.7163,-1.7169,-1.8309,-1.994,-1.9902,-2.0211,-2.0536,0.0,0.0,0.0,0.0,0.0,0.0,0.0,-0.0973,-0.1881,-0.2389,-0.3557,-0.4403,-0.4529,-0.4647,-0.5064,-0.5973,-0.6207,-0.6933,-0.8399,-0.8312,-0.8591,-0.9465,-0.9755,-1.0143,-1.0681,-1.1286,-1.2034,-1.2905,-1.3471,-1.423,-1.5164,-1.5814,-1.6563,-1.7418,-1.7824,-1.8339,-1.8869,-1.8603,-1.835,-1.7993,-1.68,-1.5304,-1.3491,-1.0641,-0.8707,-0.7398,-0.6634,-0.5772,-0.4973,-0.4737,-0.4595,-0.4346,-0.3215,-0.2384,-0.1335,0.0,0.0,0.0,0.0,0.0,0.0,0.0,0.0,0.0,0.0,0.0,0.0,0.0,0.0,-1.601,-1.868,0.0,-2.2919,-2.4986,-2.5991,-2.6932,-2.815,-2.8098,-2.7542,-2.6476,-2.5105,-2.3952,-2.3224,-2.2523,-2.1646,-2.0449,-2.0317,-1.9795,-1.8629,-1.7732,-1.7039,-1.6582,-1.5174,-1.4537,-1.4738,-1.4537,-1.4537,-1.4775,-1.553,-1.6,-1.626,-1.6516,-1.703,-1.7656,-1.698,-1.6824,-1.7021,-1.6582,-1.691,-1.7737,-1.8171,-1.9166,-2.041,-2.1362,-2.1697,-2.1708,0.0,0.0,0.0,0.0,0.0,0.0,0.0,-0.035,-0.1267,-0.1863,-0.2924,-0.375,-0.4137,-0.4358,-0.4883,-0.5865,-0.637,-0.7343,-0.9001,-0.8823,-0.8989,-0.9705,-0.9843,-1.0106,-1.0545,-1.1023,-1.1774,-1.2801,-1.3719,-1.4726,-1.5829,-1.6548,-1.7189,-1.7727,-1.8553,-1.8954,-1.9087,-1.9406,-1.9343,-1.8901,-1.783,-1.6879,-1.5842,-1.3188,-1.0962,-0.9144,-0.7948,-0.7049,-0.6317,-0.5744,-0.5469,-0.5166,-0.3917,-0.3117,-0.2111,0.0708,0.1862,0.0,0.0,0.0,0.0,0.0,0.0,0.0,0.0,-0.9579,-1.2741,-1.6518,-1.9107,-2.1411,-2.3826,-2.5405,-2.688,-2.854,-2.8765,-2.8957,-2.9624,-2.9341,-2.8791,-2.8104,-2.6108,-2.4716,-2.4428,-2.3653,-2.2631,-2.1374,-2.1825,-2.1669,-2.0541,-1.9284,-1.8637,-1.8718,-1.704,-1.6226,-1.6472,-1.617,-1.6079,-1.6204,-1.6839,-1.6917,-1.6597,-1.7614,-1.7995,-1.7853,-1.7478,-1.7543,-1.7845,-1.7302,-1.746,-1.8108,-1.884,-1.9454,-2.011,-2.2061,-2.256,-2.2362,0.0,0.0,0.0,0.0,0.0,0.0,0.0,0.0,-0.0362,-0.097,-0.1934,-0.2581,-0.2642,-0.3291,-0.4567,-0.6669,-0.7227,-0.793,-0.9028,-0.8954,-0.8968,-0.9175,-0.9654,-0.9931,-0.9993,-1.0056,-1.0991,-1.2801,-1.2927,-1.3941,-1.5829,-1.7026,-1.7639,-1.7758,-1.9016,-1.9597,-1.9584,-1.9168,-1.8948,-1.8848,-1.8296,-1.7086,-1.5508,-1.4781,-1.3236,-1.1213,-0.9375,-0.8349,-0.7727,-0.6781,-0.6454,-0.6188,-0.4725,-0.43,-0.3699,-0.0407,0.0352,0.0548,0.2411,0.1272,-0.1118,-0.3901,-0.6675,-0.9791,0.0,-1.6304,-1.8571,-2.1605,-2.3295,-2.4514,-2.5408,-2.7063,-2.8554,-2.9355,-2.9928,-3.0486,-3.1171,-3.0119,-2.9212,-2.9123,-2.7623,-2.6136,-2.4881,-2.4343,-2.3754,-2.3078,-2.2879,-2.2732,-2.257,-2.1575,-2.1219,-2.1686,-2.0241,-1.9282,-1.8899,-1.886,-1.8464,-1.7675,-1.8559,-1.8967,-1.8954,-1.9971,-2.0129,-1.9612,-1.9564,-1.9579,-1.9561,-1.8733,-1.8624,-1.8991,-1.9201,-1.9652,-2.0419,-2.267,-2.3778,-2.4119,0.0,0.0,0.0,0.0,0.0,0.0,0.0,0.0,0.0,0.0,-0.1179,-0.1824,-0.2448,-0.3654,-0.4985,-0.6407,-0.7045,-0.7782,-0.8742,-0.887,-0.9108,-0.9541,-0.978,-0.9905,-0.9905,-1.0546,-1.1513,-1.2801,-1.3456,-1.4484,-1.5829,-1.7101,-1.7713,-1.7773,-1.9091,-1.9708,-1.9657,-1.9132,-1.8888,-1.883,-1.8003,-1.6666,-1.5072,-1.4314,-1.2732,-1.0742,-0.9401,-0.8002,0.0,-0.6058,-0.5798,-0.5547,-0.4501,-0.4491,-0.4355,-0.1664,-0.1893,-0.2863,-0.2329,-0.411,-0.676,-0.9282,-1.2379,-1.5625,-1.8679,-2.1114,-2.3166,-2.4786,-2.6438,-2.7772,-2.8435,-2.9503,-3.0374,-3.0672,-3.0597,-3.0612,-3.0896,-3.0078,-2.9152,-2.8253,-2.6913,-2.5928,-2.5469,-2.4906,-2.4366,-2.3853,-2.3951,-2.3899,-2.3677,-2.3002,-2.2733,-2.2942,-2.1879,-2.1328,-2.1393,-2.0569,-2.0088,-1.9932,-1.9494,-1.9287,-1.9323,-2.0339,-2.0805,-2.0751,-2.0451,-2.0308,-2.0245,-1.9361,-1.9083,-1.9232,-1.9283,-1.9447,-1.9918,-2.1929,-2.2937,-2.3375,0.0,0.0,0.0,0.0,0.0,0.0,0.0,0.0,0.0,0.0,-0.0535,-0.129,-0.2465,-0.3817,-0.5008,-0.5903,-0.6658,-0.7384,-0.8089,-0.8474,-0.884,-0.9202,-0.9516,-0.9679,-0.9679,-1.0772,-1.1702,-1.2416,-1.3391,-1.4391,-1.5415,-1.6515,-1.7186,-1.7473,-1.8837,-1.9334,-1.9191,-1.8989,-1.8632,-1.816,-1.7396,-1.5861,-1.3984,-1.3143,-1.1335,-0.917,-0.8611,-0.7345,-0.5887,-0.5415,-0.5172,-0.505,-0.474,-0.5062,-0.5281,-0.3785,-0.4685,-0.6421,-0.7609,-0.9753,-1.2278,-1.4839,-1.7957,-2.0915,-2.2925,-2.4945,-2.6594,-2.7295,-2.8603,-2.9714,-3.0163,-3.0657,-3.0972,-3.0972,-3.0885,-3.0736,-3.0528,-2.9966,-2.9102,-2.7792,-2.621,-2.537,-2.5758,-2.489,-2.4342,-2.4355,-2.4764,-2.4963,-2.4836,-2.4353,-2.4256,-2.4657,-2.392,-2.3601,-2.3851,-2.2561,-2.179,-2.1544,-2.0286,-1.9639,-1.9713,-2.0818,-2.162,-2.2137,-2.1724,-2.1542,-2.1435,-2.0194,-1.9661,-1.9617,-1.9144,-1.8934,-1.9093,-2.068,-2.1811,-2.2699,0.0,0.0,0.0,0.0,0.0,0.0,0.0,0.0,0.0,0.0,0.0,0.0,0.0,-0.3281,-0.4199,-0.5324,-0.6276,-0.6856,-0.6947,-0.7694,-0.794,-0.7488,-0.8537,-0.9126,-0.9126,-1.0182,-1.0955,-1.1442,-1.2001,-1.298,-1.4355,-1.5037,-1.586,-1.6786,-1.8132,-1.8443,-1.8011,-1.8633,-1.8005,-1.6572,-1.6539,-1.4708,-1.1943,-1.1514,-0.9396,-0.6665,-0.7019,-0.6698,-0.5997,-0.5335,-0.5108,-0.5231,-0.5981,-0.6467,0.0,-0.7138,-0.8106,-0.9768,-1.297,-1.5179,-1.7412,-2.0864,-2.3459,-2.5575,-2.7001,-2.7891,-2.8633,-2.9365,-2.9562,-2.9621,-2.9636,-2.9651,-2.9666,-2.9666,-3.0743,-3.132,-3.0588,-2.9968,-2.931,-2.8548,-2.6135,-2.4783,-2.5454,-2.4076,-2.3591,-2.4693,-2.5264,-2.5824,-2.6402,-2.5854,-2.6166,-2.7525,-2.7032,-2.6589,-2.6217,-2.5199,-2.3756,-2.1968,-2.1009,-2.0566,-2.0624,-2.2011,-2.3187,-2.4124,-2.3971,-2.3904,-2.3729,-2.1467,-2.0558,-2.0398,-1.8687,-1.7993,-1.8069,-1.9025,-2.0903,-2.301,0.0,0.0,0.0,0.0,0.0,0.0,0.0,0.0,0.0,0.0,0.0,0.0,0.0,0.0,0.0,0.0,-0.5174,-0.612,-0.6732,-0.7476,-0.7759,-0.7416,-0.815,-0.8573,-0.8573,-0.9265,-1.0033,-1.0879,-1.1041,-1.1808,-1.3129,-1.3782,-1.4578,-1.5485,-1.6383,-1.6888,-1.705,-1.6291,-1.6132,-1.6213,-1.4278,-1.2612,-1.1085,-0.9752,-0.7796,-0.571,0.0,-0.473,-0.4273,-0.4542,-0.4969,-0.5542,-0.6574,-0.7794,-0.9226,-1.1096,-1.2216,-1.3497,-1.654,-1.9169,-2.1549,-2.3657,-2.6057,-2.8045,-2.8514,-2.9278,-2.9695,-2.9005,-2.8566,-2.8139,-2.7679,-2.7245,-2.7379,-2.8666,-2.8885,-2.9238,-3.029,-2.988,-2.9032,-2.7838,-2.6634,-2.5745,-2.5403,-2.4068,-2.3865,-2.5423,-2.5236,-2.5485,-2.6449,-2.6311,-2.6422,-2.6905,-2.6726,-2.6578,-2.6436,-2.4767,-2.3616,-2.2962,-2.1385,-2.0934,-2.1545,-2.1666,-2.2251,-2.3165,-2.245,-2.2141,-2.2008,-2.0402,-1.9759,-1.9628,-1.8462,-1.7604,-1.7067,-1.7385,-1.8398,-1.9845,0.0,0.0,0.0,0.0,0.0,0.0,0.0,0.0,0.0,0.0,0.0,0.0,0.0,0.0,0.0,0.0,0.0,-0.5181,-0.5767,-0.6704,-0.7061,-0.6702,-0.7454,-0.7901,-0.7976,-0.8724,-0.933,-0.9782,-0.9782,-1.0294,-1.1296,-1.1477,-1.2097,-1.3089,-1.3949,-1.4426,-1.4514,-1.3853,-1.3715,-1.3763,-1.1784,-1.0247,-0.9061,-0.7842,-0.6273,0.0,-0.3977,-0.3645,-0.3642,-0.4524,-0.5535,-0.6698,-0.8195,-1.035,-1.2621,-1.4103,-1.5616,-1.7325,-1.9877,-2.2254,-2.4512,-2.6525,-2.8326,-2.9667,-2.9893,-2.9878,-2.95,-2.8381,-2.7272,-2.6318,-2.5644,-2.51,-2.5257,-2.6756,-2.6939,-2.7524,-2.9333,-2.9227,-2.8817,-2.8454,-2.7744,-2.7164,-2.6873,-2.5808,-2.5382,-2.5965,-2.5441,-2.5365,-2.6042,-2.6005,-2.5931,-2.5904,-2.6239,-2.6436,-2.6436,-2.4803,-2.3534,-2.267,-2.1609,-2.1312,-2.1714,-2.1919,-2.2174,-2.2422,-2.1939,-2.1631,-2.1397,-2.0389,-1.9701,-1.9233,-1.8687,-1.7687,-1.6636,-1.7001,-1.7239,-1.7692,0.0,0.0,0.0,0.0,0.0,0.0,0.0,0.0,0.0,0.0,0.0,0.0,0.0,0.0,0.0,0.0,0.0,0.0,-0.4198,-0.5424,-0.5912,-0.5411,-0.6444,-0.713,-0.7317,-0.839,-0.8725,-0.8239,-0.8225,-0.8495,-0.9022,-0.8392,-0.8722,-0.9922,-1.1053,-1.123,-1.0699,-1.1421,-1.0936,-0.9646,-0.9133,-0.7782,-0.6052,-0.5848,-0.4806,-0.3422,-0.3193,-0.3462,-0.413,-0.5289,-0.6916,-0.8828,-1.0891,-1.3952,-1.6704,-1.6298,-1.8278,-2.1031,-2.3044,-2.4611,-2.6418,-2.941,-3.0253,-3.0486,-3.1019,-2.9675,-2.8147,-2.7482,-2.578,-2.4223,-2.3565,-2.3233,-2.3339,-2.4215,-2.5182,-2.6414,-2.8086,-2.8378,-2.893,-3.0323,-2.9435,-2.8956,-2.9646,-2.9068,-2.8042,-2.6563,-2.6002,-2.5644,-2.5494,-2.5198,-2.4969,-2.4802,-2.5689,-2.6174,-2.6221,-2.5272,-2.3609,-2.1261,-2.1822,-2.1824,-2.136,-2.2859,-2.2995,-2.2075,-2.2469,-2.2377,-2.1932,-2.1419,-2.0521,-1.9438,-1.9438,-1.8371,-1.6925,-1.7798,-1.7583,-1.6915,0.0,0.0,0.0,0.0,0.0,0.0,0.0,0.0,0.0,0.0,0.0,0.0,0.0,0.0,0.0,0.0,0.0,0.0,-0.4216,-0.4923,-0.5272,-0.5184,-0.5836,-0.6232,-0.6278,-0.6722,-0.7093,-0.7405,-0.7159,-0.744,-0.8212,-0.8031,-0.8461,-0.9399,-0.9703,-0.9909,-1.0001,-0.9508,-0.9369,-0.931,-0.7468,-0.6288,-0.5536,-0.4503,-0.3516,-0.2735,-0.3109,-0.3822,-0.4795,0.0,0.0,-1.37,-1.4645,-1.6338,-1.822,-1.9531,-2.0993,-2.2664,-2.5123,-2.7094,-2.8676,-2.9493,-3.0373,-3.0657,-2.9247,-2.8076,-2.686,-2.5364,-2.3452,-2.1937,-2.1509,-2.1215,-2.1926,-2.4665,-2.5633,-2.7234,-3.0754,-3.1251,-3.1385,-3.1756,-3.1629,-3.1339,-3.0982,-3.0742,-3.0456,-3.0162,-2.8306,-2.7365,-2.7803,-2.6422,-2.5409,-2.4969,-2.447,-2.4577,-2.5322,-2.4672,-2.3682,-2.2321,-2.2843,-2.305,-2.2925,-2.3717,-2.3574,-2.2636,-2.1998,-2.1645,-2.1532,-2.1072,-2.1116,-2.144,-2.144,-2.0771,-1.9764,-1.9993,-1.9913,-1.9764,0.0,0.0,0.0,0.0,0.0,0.0,0.0,0.0,0.0,0.0,0.0,0.0,0.0,0.0,0.0,0.0,0.0,0.0,0.0,-0.4239,-0.4696,-0.5084,-0.5277,-0.5535,-0.5891,-0.5895,-0.6114,-0.6568,-0.6141,-0.6206,-0.671,-0.6415,-0.6586,-0.7145,-0.7415,-0.7626,-0.7733,-0.6995,-0.682,0.0,0.0,-0.4321,-0.4035,-0.3108,-0.2603,-0.2424,-0.2651,0.0,0.0,0.0,0.0,-1.621,-1.785,-1.9416,-2.0973,-2.2521,-2.3778,-2.5092,-2.6975,-2.8485,-2.9592,-2.9882,-2.9785,-2.9311,-2.8066,-2.6345,-2.4732,-2.371,-2.1918,-2.047,-2.0295,-2.0187,-2.0967,-2.3529,-2.4493,-2.6301,-3.0292,-3.1142,-3.1799,-3.3123,-3.3621,-3.3723,-3.3316,-3.3255,-3.3416,-3.3787,-3.0928,-2.9146,-2.9193,-2.7408,-2.6093,-2.5362,-2.4562,-2.4409,-2.5004,-2.4945,-2.4506,-2.374,-2.4487,-2.473,-2.4541,-2.5061,-2.4645,-2.3471,-2.2928,-2.2425,-2.206,-2.2225,-2.226,-2.2229,-2.2604,-2.2218,-2.1407,-2.1407,-2.1407,-2.1509,0.0,0.0,0.0,0.0,0.0,0.0,0.0,0.0,0.0,0.0,0.0,0.0,0.0,0.0,0.0,0.0,0.0,0.0,0.0,0.0,0.0,-0.4847,-0.4699,-0.4914,-0.561,-0.5479,-0.5507,-0.5741,-0.5308,-0.5136,-0.5172,-0.4588,-0.442,-0.4602,-0.5124,-0.5256,-0.5061,-0.4683,-0.4266,-0.3775,-0.2973,-0.2505,-0.224,0.0,0.0,-0.2262,-0.2338,0.0,0.0,0.0,-1.4281,-1.7379,-2.0251,-2.2313,-2.3923,-2.515,-2.6385,-2.7599,-2.8692,-2.94,-2.9967,-3.0374,-2.898,-2.7375,-2.6946,-2.4474,-2.2227,-2.2188,-2.075,-1.9506,-1.9558,-1.9785,-2.0464,-2.2018,-2.3009,-2.4935,-2.8773,-2.9922,-3.1444,-3.4303,-3.5301,-3.5826,-3.5968,-3.5993,-3.6236,-3.687,-3.3798,-3.148,-3.0455,-2.8641,-2.7085,-2.5997,-2.5551,-2.5381,-2.5454,-2.5865,-2.5863,-2.5499,-2.6376,-2.6543,-2.6132,-2.668,-2.612,-2.471,-2.4574,-2.4065,-2.3436,-2.4061,-2.3745,-2.2937,-2.371,-2.3541,-2.288,-2.2949,-2.2926,-2.3041,0.0,0.0,0.0,0.0,0.0,0.0,0.0,0.0,0.0,0.0,0.171,0.1625,0.0,0.0,0.0,0.0,0.0,0.0,0.0,0.0,0.0,0.0,-0.394,-0.4101,-0.4242,-0.464,-0.4866,-0.4904,-0.5038,-0.5102,-0.5121,-0.4995,-0.4964,-0.5,-0.5108,-0.4892,-0.4464,-0.461,-0.4026,-0.3003,-0.2957,-0.2421,-0.1631,-0.1458,0.0,0.0,0.0,0.0,0.0,0.0,-1.5238,-1.8714,-2.0841,-2.2703,-2.4558,-2.6882,-2.7908,-2.8664,-3.0496,-3.1077,-3.1061,-3.0616,-2.8951,-2.6808,-2.4528,-2.2161,0.0,-2.0029,-1.9149,-1.854,-1.8813,-1.9613,-2.085,-2.2792,-2.4015,-2.6148,-3.0239,-3.1464,-3.278,-3.5126,-3.6113,-3.68,-3.7369,-3.7433,-3.7498,-3.7623,-3.7006,-3.575,-3.3702,-3.1171,-2.884,-2.6834,-2.6973,-2.7317,-2.7887,-2.7563,-2.7594,-2.805,-2.7924,-2.779,-2.773,-2.8266,-2.7934,-2.6887,-2.5936,0.0,-2.5902,-2.5182,-2.5478,-2.6443,-2.6584,-2.6561,-2.6457,-2.6902,-2.6791,-2.6456,0.0,0.0,0.0,0.0,0.0,0.0,0.0,0.1058,0.0808,0.0678,0.1053,0.1455,0.177,0.0968,0.0044,0.0,0.0,0.0,0.0,0.0,0.0,0.0,0.0,0.0,0.0,-0.4017,0.0,0.0,0.0,-0.4482,-0.4472,0.0,0.0,-0.4267,-0.4266,-0.4167,-0.3965,-0.364,-0.3154,-0.2549,-0.2096,-0.1516,0.0,0.0,0.0,0.0,0.0,0.0,0.0,0.0,-1.3963,-1.7359,-2.0659,-2.3088,-2.5186,-2.7551,-2.8559,-2.935,-3.1409,-3.202,-3.1812,-3.0756,-2.8743,-2.6289,-2.3585,0.0,0.0,-1.8632,-1.849,-1.8393,-1.821,-1.9348,-2.0651,-2.1668,-2.2947,-2.5177,-2.9147,-3.0533,-3.2256,-3.5245,-3.6654,-3.7651,-3.8346,-3.8384,-3.8562,-3.8978,-3.8262,-3.7311,-3.6222,-3.4168,-3.1993,-2.9722,-2.9803,-2.9859,-2.9813,-2.984,-2.9998,-3.0311,-3.0392,-3.0416,-3.0453,-3.0716,-3.016,-2.8975,-2.8419,-2.7888,-2.7348,-2.6809,-2.7062,-2.7708,-2.7708,-2.7708,-2.7745,-2.8009,-2.7946,-2.7708,0.0,0.0,0.0,0.0,0.0,0.0,0.0,-0.0023,-0.0329,-0.0481,0.0178,0.0907,0.1535,0.0925,-0.0045,0.0,0.0,0.0,0.0,0.0,0.0,0.0,0.0,0.0,0.0,0.0,0.0,0.0,0.0,0.0,0.0,0.0,0.0,0.0,0.0,0.0,-0.33,-0.2638,-0.2249,0.0,0.0,-0.0623,0.0,0.0,0.0,0.0,0.0,0.0,0.0,0.0,-1.2104,-1.4995,-1.8885,-2.2188,-2.5064,-2.7123,-2.8544,-2.9886,-3.1647,-3.2473,-3.2497,-3.1073,-2.8642,-2.5889,-2.3109,-2.0408,0.0,-1.7608,-1.7908,-1.8147,-1.7773,-1.8944,-2.0075,-2.0449,-2.1665,-2.3819,-2.7461,-2.9177,-3.143,-3.5055,-3.692,-3.8261,-3.914,-3.9293,-3.9534,-4.007,-3.9069,-3.8286,-3.7806,-3.6503,-3.4965,-3.315,-3.2815,-3.2453,-3.1978,-3.2039,-3.2157,-3.2283,-3.2478,-3.2593,-3.2593,-3.2593,-3.1968,-3.0882,-3.0748,-3.0079,-2.9057,-2.8813,-2.8692,-2.8589,-2.8794,-2.8758,-2.8615,-2.8729,-2.8691,-2.8566,0.0,0.0,0.0,0.0,0.0,0.0,0.0,-0.0811,-0.1106,-0.0888,-0.0773,-0.0288,0.0859,0.0792,0.0443,0.0,0.0,0.0,0.0,0.0,0.0,0.0,0.0,0.0,0.0,0.0,0.0,0.0,0.0,0.0,0.0,0.0,0.0,0.0,0.0,0.0,0.0,-0.2198,0.0,0.0,0.0,0.0,0.0,0.0,0.0,0.0,0.0,0.0,0.0,0.0,0.0,-1.24,-1.4092,-1.8406,-2.318,-2.4984,0.0,0.0,-3.1094,-3.238,-3.3165,-3.184,-2.9024,-2.5743,-2.2536,0.0,-1.7593,-1.6936,-1.683,-1.7055,-1.7593,-1.8315,-1.9212,-2.0321,-2.1434,-2.3243,-2.6404,-2.8705,-3.1344,-3.473,0.0,0.0,-3.9859,-4.0429,-4.0542,-4.0121,-4.0414,-3.9792,-3.7892,-3.7102,-3.657,-3.6377,-3.5141,-3.4704,-3.5169,-3.3701,-3.326,-3.379,-3.3003,-3.2593,-3.2593,-3.2593,-3.2544,-3.239,-3.1874,-3.1881,0.0,-3.1151,-3.0526,-3.0283,-3.1153,-3.0942,-3.024,-3.0727,-3.0608,-3.0066,0.0,0.0,0.0,0.0,0.0,0.0,-0.0767,-0.1455,-0.1861,-0.1921,-0.1258,-0.0486,0.0281,0.0707,0.0752,0.0279,0.0,0.0,0.0,0.0,0.0,0.0,0.0,0.0,0.0,0.0,0.0,-0.2697,0.0,0.0,0.0,0.0,0.0,0.0,0.0,0.0,0.0,0.0,0.0,0.0,0.0,0.0,0.0,0.0,0.0,0.0,0.0,0.0,0.0,0.0,0.0,0.0,-1.1635,-1.4458,0.0,0.0,-2.5336,-2.8486,-3.0047,-3.1663,-3.2538,-3.1114,-2.8373,-2.5231,-2.2269,0.0,-1.6921,-1.6293,-1.6443,-1.6771,-1.7055,-1.7983,-1.8948,-1.971,-2.0384,-2.1809,-2.4834,-2.6275,-2.8972,-3.424,-3.5628,-3.7453,-4.0798,-4.099,-4.0949,-4.1105,-4.1313,-4.108,-4.026,-3.9946,-3.9277,-3.8112,-3.7877,-3.7491,-3.6941,-3.5784,-3.5326,-3.555,-3.4747,-3.4341,-3.4341,-3.4341,-3.4007,-3.3435,-3.3229,-3.2912,0.0,-3.2152,-3.1865,-3.1765,-3.2142,-3.2036,-3.1757,-3.1951,-3.1535,-3.0813,0.0,0.0,0.0,0.0,0.0,-0.0111,-0.1267,-0.1966,-0.2414,-0.26,-0.1699,-0.0797,-0.0188,0.0412,0.0714,0.0567,-0.0181,0.0,0.0,0.0,0.0,0.0,0.0,0.0,0.0,0.0,-0.1908,-0.2437,-0.2198,0.0,0.0,0.0,0.0,0.0,0.0,0.0,0.0,0.0,0.0,0.0,0.0,0.0,0.0,0.0,0.0,0.0,0.0,0.0,0.0,0.0,0.0,0.0,0.0,0.0,0.0,0.0,-2.2573,-2.6071,-2.7871,-2.9852,-3.1039,-2.9581,-2.705,-2.4261,0.0,0.0,-1.6532,-1.5919,-1.6217,-1.6638,-1.6849,-1.7729,-1.8682,-1.9436,-1.992,-2.1136,-2.3782,-2.4899,-2.7385,-3.2517,-3.375,-3.5814,-3.9973,-4.0876,-4.1424,-4.2021,-4.208,-4.1979,-4.181,-4.2124,-4.1507,-3.9792,-3.9949,-3.9513,-3.8393,-3.7607,-3.7095,-3.695,-3.618,-3.5846,-3.5814,-3.5587,-3.51,-3.4428,-3.4428,-3.4075,0.0,-3.3463,-3.329,-3.3031,-3.3359,-3.329,-3.3031,-3.3031,-3.2593,-3.1997,0.0,0.0,0.0,0.0,0.0,0.0,-0.1611,-0.2305,-0.27,-0.27,-0.2169,-0.1432,-0.0502,-0.0153,0.0254,0.0842,0.0339,0.0,0.0,0.0,0.0,0.0,0.0,0.0,0.0,0.0,-0.1473,-0.1803,-0.1803,-0.1803,-0.1792,-0.1463,0.0,0.0,0.0,0.0,0.0,0.0,0.0,0.0,0.0,0.0,0.0,0.0,0.0,0.0,0.0,0.0,0.0,0.0,0.0,0.0,0.0,0.0,0.0,0.0,-1.9581,-2.3261,-2.4278,-2.6759,-2.8694,-2.7281,-2.5114,-2.2805,-2.0761,-1.8445,-1.6532,-1.5919,-1.6067,-1.6518,-1.717,-1.7581,-1.8266,-1.9668,-2.0504,-2.1659,-2.354,-2.5403,-2.7303,-2.9225,-3.1089,-3.3494,-3.6735,-3.9923,-4.2041,-4.2635,-4.2692,-4.244,-4.1832,-4.2866,-4.2959,-4.181,-4.1014,-4.0339,-3.9775,-3.8963,-3.8302,-3.7793,-3.6964,-3.6584,-3.6554,-3.5831,-3.5504,-3.5472,-3.5472,-3.5472,0.0,-3.5472,-3.4872,-3.4095,-3.51,-3.4872,-3.3993,-3.3993,-3.3993,-3.3842,0.0,0.0,0.0,0.0,0.0,0.0,0.0,-0.164,-0.2148,-0.2333,-0.1833,-0.1279,-0.0799,-0.0137,0.035,0.0539,0.0215,0.0,0.0,0.0,0.0,0.0,0.0,0.0,0.0,0.0,-0.1232,-0.1935,-0.1847,-0.1891,-0.2062,-0.1541,-0.1147,-0.0883,0.0,0.0,0.0,0.0,0.0,0.0,0.0,0.0,0.0,0.0,0.0,0.0,0.0,0.0,0.0,0.0,0.0,0.0,0.0,0.0,0.0,-1.2539,-1.6326,0.0,-2.0714,-2.2498,-2.3893,-2.275,-2.106,-1.9289,-1.777,-1.6377,-1.528,-1.486,-1.5412,-1.6237,-1.7126,-1.738,-1.8092,-1.9993,-2.07,-2.1567,-2.316,-2.5043,-2.7792,-3.1924,-3.6867,-4.0184,-4.0824,-4.2155,-4.3051,-4.3232,-4.325,-4.316,-4.2977,-4.3303,-4.2977,-4.1853,-4.1967,-4.1555,-4.0569,-3.9783,-3.9132,-3.8525,-3.7217,-3.6615,-3.6584,-3.5846,-3.5782,-3.6212,-3.5733,-3.5782,-3.6228,-3.5701,-3.5326,-3.5067,-3.5359,-3.5326,-3.5019,-3.5019,-3.4313,-3.3341,0.0,0.0,0.0,0.0,0.0,0.0,0.0,-0.1129,-0.1557,-0.1829,-0.1331,-0.09,-0.0726,-0.009,0.0392,0.0574,0.039,0.0,0.0,0.0,0.0,0.0,0.0,0.0,0.0,-0.0623,-0.1179,-0.1998,-0.1965,-0.2033,-0.2182,-0.1347,-0.0823,-0.0562,-0.0009,0.0,0.0,0.0,0.0,0.0,0.0,0.0,0.1478,0.0,0.0,0.0,0.0,0.0,0.0,0.0,0.0,0.0,0.0,0.0,0.0,0.0,-1.3215,-1.5946,0.0,-1.9012,-1.9896,-1.9271,-1.7963,0.0,-1.5835,-1.4826,-1.4089,-1.4253,-1.49,-1.5771,-1.6909,-1.7538,-1.8421,-2.0055,-2.1045,-2.1989,-2.3059,-2.4989,-2.8044,-3.2771,-3.8285,-4.1673,-4.1651,-4.2773,-4.3515,-4.3515,-4.3515,-4.3515,-4.3515,-4.3515,-4.316,-4.2446,-4.2808,-4.2541,-4.1599,-4.0886,-4.0246,-3.9639,-3.8181,-3.7467,-3.7438,-3.6707,-3.6631,-3.7024,-3.626,-3.6198,0.0,-3.5554,-3.5137,-3.5106,-3.4821,-3.4756,-3.4756,-3.4756,-3.4108,-3.3308,0.0,0.0,0.0,0.0,0.0,0.0,0.0,-0.074,-0.0924,-0.122,-0.0722,-0.0356,-0.0377,-0.0009,0.0415,0.0876,0.0,0.0,0.0,0.0,0.0,0.0,0.0,0.0,-0.0173,-0.0635,-0.1235,-0.1987,-0.2151,-0.2222,-0.2177,-0.1034,-0.0458,-0.0321,0.077,0.1296,0.1357,0.1255,0.1221,0.1221,0.0892,0.0823,0.0,0.0,0.0,0.0,0.0,0.0,0.0,0.0,0.0,0.0,0.0,0.0,0.0,0.0,0.0,0.0,0.0,-1.6096,-1.6649,-1.6612,-1.5625,-1.4647,-1.4595,-1.3627,0.0,-1.3982,-1.45,-1.5194,-1.6619,-1.7971,-1.9127,-1.9984,-2.1518,-2.2785,-2.3281,-2.5535,-2.8562,-3.2399,-3.6468,-3.9239,-3.9918,-4.2066,-4.3423,-4.3423,-4.3423,-4.3423,-4.3423,-4.3478,-4.3515,-4.3515,-4.3515,-4.3232,-4.2711,-4.2101,-4.149,-4.088,-3.9536,-3.8908,-3.8881,-3.8149,-3.7822,-3.7831,-3.7118,-3.677,-3.6674,-3.5243,-3.4601,-3.4454,-3.3819,-3.3546,-3.3499,-3.3499,-3.3485,-3.3577,0.0,0.0,0.0,0.0,0.0,0.0,0.0,0.0,0.0,0.0,-0.0222,0.0097,-0.0217,0.0246,0.0706,0.0,0.0,0.0,0.0,0.0,0.0,0.0,0.0,0.0,-0.0029,-0.0358,-0.0955,-0.1849,-0.2342,-0.2453,-0.219,-0.1707,-0.0985,-0.0066,0.0561,0.1269,0.2,0.2178,0.2428,0.2627,0.1686,0.1266,0.0,0.0,0.0,0.0,-0.2969,-0.3564,0.0,0.0,0.0,0.0,0.0,0.0,0.0,0.0,-1.0048,-1.1191,-1.2128,0.0,-1.3216,-1.275,-1.2557,-1.2286,0.0,-1.1803,-1.2312,-1.3009,-1.3824,-1.508,-1.7252,-1.8109,-1.9101,-2.0943,-2.2005,-2.3119,-2.459,-2.92,-3.3161,-3.5193,-3.9001,-4.1295,-4.0857,-4.1882,-4.258,-4.258,-4.258,-4.258,-4.258,-4.3167,-4.3515,-4.3515,-4.3515,-4.3232,-4.2711,-4.2101,-4.149,-4.088,-3.9536,-3.8908,-3.8881,-3.8149,-3.8121,-3.8591,-3.7858,-3.7528,-3.7475,-3.6558,-3.5527,-3.4467,-3.4323,-3.3939,-3.3499,-3.3499,-3.3486,-3.3525,0.0,0.0,0.0,0.0,0.0,0.0,0.0,0.0,0.0,0.0,0.0,0.0546,0.0327,0.065,0.0,0.0,0.0,0.0,0.0,0.0,0.0,0.0,0.0,0.0755,0.0013,-0.0536,-0.1226,-0.2072,-0.2622,-0.2757,-0.2505,-0.1739,-0.0926,-0.0035,0.1231,0.207,0.253,0.258,0.2616,0.2548,0.1442,0.0,0.0,0.0,0.0,0.0,-0.3271,-0.385,0.0,-0.502,-0.5462,-0.5785,0.0,0.0,0.0,0.0,-0.9866,-1.1025,-1.0741,-1.1555,-1.2394,-1.2066,-1.1979,-1.1826,-1.122,-1.1509,-1.2064,-1.269,0.0,-1.513,-1.7032,-1.8473,-1.9767,-2.1039,-2.2491,-2.41,-2.5921,-2.9939,-3.3473,-3.5591,-3.8759,-4.087,-4.1075,-4.148,-4.1754,-4.1754,-4.1754,-4.1754,-4.1754,-4.2158,-4.2396,-4.2396,-4.2763,-4.2991,-4.3069,-4.2226,-4.1643,-4.1313,-4.0052,-3.9463,-3.942,-3.8916,-3.8766,-3.8904,-3.8051,-3.7552,-3.7261,-3.6179,-3.5267,-3.4515,-3.4191,-3.3864,-3.3558,-3.3558,-3.3547,-3.3585,0.0,0.0,0.0,0.0,0.0,0.0,0.0,0.0,0.0,0.0,0.0,0.0,0.0,0.0,0.0,0.0,0.0,0.0,0.0,0.0,0.0,0.0,0.0,0.0721,-0.0151,-0.0948,-0.1703,-0.2397,-0.2949,-0.305,-0.2714,-0.161,-0.072,0.0059,0.2208,0.3071,0.2907,0.2807,0.2537,0.2067,0.0956,0.0,0.0,0.0,0.0,0.0,0.0,0.0,0.0,-0.5272,-0.5708,-0.5969,-0.6383,0.0,0.0,0.0,0.0,0.0,-1.0299,-1.1542,-1.2957,-1.2603,-1.2479,-1.2362,-1.2056,0.0,0.0,0.0,0.0,0.0,0.0,-1.9125,0.0,0.0,-2.3346,-2.5787,-2.7694,-3.013,-3.2659,-3.52,-3.77,-3.9589,-4.0632,-4.0838,-4.0857,-4.0728,-4.0728,-4.0728,-4.0728,-4.0838,-4.0967,-4.1095,-4.1772,-4.2433,-4.313,-4.2338,-4.1895,-4.1789,-4.072,-4.0229,-4.0195,-3.9875,-3.9531,-3.9201,-3.8119,0.0,-3.6803,-3.5468,-3.4811,-3.4552,-3.3987,-3.3684,-3.3582,-3.3582,-3.3659,-3.3836,0.0,0.0,0.0,0.0,0.0,0.0,0.0,0.0,0.0,0.0,0.0,0.0,0.0,0.0,0.0,0.0,0.0,0.0,0.0,0.0,0.0,0.1035,0.1172,0.0582,-0.0897,-0.1399,-0.1889,-0.2398,-0.3323,-0.3155,-0.1965,-0.1986,-0.1019,0.081,0.2626,0.3265,0.301,0.3374,0.3301,0.2813,0.1512,0.0,0.0,0.0,0.0,0.0,0.0,0.0,0.0,-0.5489,-0.5874,-0.5986,-0.6439,0.0,0.0,0.0,0.0,0.0,-1.0922,-1.255,-1.362,-1.1737,-1.2185,-1.2945,-1.2507,-1.3203,0.0,0.0,0.0,0.0,0.0,-2.0511,-2.1604,0.0,-2.5448,-2.8785,-3.1108,-3.3769,-3.5721,-3.6404,-3.8625,-3.9828,-3.9142,-3.968,-3.979,-3.9129,-3.9074,-3.9074,-3.9074,-3.9717,-4.0396,-4.1077,-4.1224,-4.1334,-4.1462,-4.2213,-4.2302,-4.1789,-4.111,-4.078,-4.0745,-4.0026,-3.9951,-4.027,0.0,-3.8044,-3.7348,-3.6718,-3.573,-3.4576,-3.4479,-3.4112,-3.3582,-3.3582,-3.3962,-3.4528,0.0,0.0,0.0,0.0,0.0,0.0,0.0,0.0,0.0,0.0,0.0,0.0,0.0,0.0,0.0,0.0,0.0,0.0,0.0,0.0,0.0,0.0822,0.0462,-0.0256,-0.1395,-0.2244,-0.2844,-0.3208,-0.3675,-0.3457,-0.2589,-0.1588,-0.0323,0.1184,0.2638,0.3195,0.3064,0.3289,0.3188,0.2783,0.0,0.0,0.0,0.0,0.0,0.0,0.0,0.0,0.0,0.0,-0.6096,-0.6606,-0.66,0.0,0.0,0.0,0.0,0.0,-1.0713,-1.209,-1.3377,-1.2698,-1.3686,-1.4767,-1.4501,-1.5209,0.0,0.0,0.0,0.0,0.0,0.0,-2.2792,-2.4764,-2.7135,-2.9452,-3.1626,-3.3394,-3.4897,-3.6066,-3.7616,-3.859,-3.868,-3.9038,-3.8909,-3.8102,-3.8046,-3.7863,-3.7422,-3.7753,-3.8191,-3.8718,-3.9424,-3.9868,-4.0015,-4.1217,-4.1412,-4.0554,-3.994,-3.9668,-3.9633,-3.9172,-3.9097,-3.9307,0.0,-3.771,-3.6894,-3.6672,-3.6027,-3.5144,-3.5144,-3.4958,-3.4681,-3.4681,-3.4887,-3.5168,0.0,0.0,0.0,0.0,0.0,0.0,0.0,0.0,0.0,0.0,0.0,0.0,0.0,0.0,0.0,0.0,0.0,0.0,0.0,0.0,0.1248,0.0477,-0.0457,-0.1294,-0.2038,-0.2983,-0.3589,-0.3802,-0.376,-0.3437,-0.284,-0.1045,0.024,0.1099,0.2339,0.2854,0.2804,0.2929,0.2832,0.2502,0.0,0.0,0.0,0.0,0.0,0.0,0.0,0.0,0.0,0.0,0.0,0.0,0.0,0.0,0.0,-0.8894,-0.9859,-1.1045,-1.0752,-1.1913,-1.3285,-1.3638,0.0,-1.6328,-1.6711,-1.7721,-1.8754,0.0,0.0,0.0,0.0,-2.2153,-2.3905,-2.676,-2.8396,-2.999,-3.193,-3.3288,-3.4649,-3.6203,-3.7148,-3.7947,-3.8621,-3.86,-3.8166,-3.737,-3.7145,-3.6744,-3.6136,-3.6099,-3.6297,-3.6695,-3.7752,-3.8386,-3.8547,-3.9741,-4.0119,-3.967,-3.9191,-3.8982,-3.8947,-3.8618,-3.8534,-3.8667,-3.8132,-3.7362,-3.6444,-3.622,-3.5885,-3.5489,-3.5396,-3.5447,-3.56,-3.56,-3.56,-3.56,0.0,0.0,0.0,0.0,0.0,0.0,0.0,0.0,0.0,0.0,0.0,0.0,0.0,0.0,0.0,0.0,0.0,0.0,0.0,0.0,0.0578,-0.0286,-0.1394,-0.2335,-0.3074,-0.3301,-0.3444,-0.3533,-0.335,-0.2693,-0.1606,-0.0654,-0.0028,0.0338,0.1668,0.2123,0.1927,0.2429,0.2483,0.2161,0.1278,0.0,0.0,0.0,0.0,0.0,0.0,0.0,0.0,0.0,0.0,0.0,0.0,0.0,-0.8469,-0.9212,-0.9962,-1.0778,-1.1785,-1.3063,-1.4006,-1.3613,-1.4916,-1.6756,-1.8497,-2.065,0.0,-2.3953,0.0,0.0,0.0,-2.4288,-2.4717,-2.6627,-2.9135,-3.1512,-3.3382,-3.5952,-3.7748,-3.8085,-3.8878,-3.9233,-3.8747,-3.8247,-3.7623,-3.6824,-3.6068,-3.5616,-3.556,-3.556,-3.5913,-3.6676,-3.7035,-3.7103,-3.6862,-3.7711,-3.8817,-4.0147,-4.0092,-4.0074,-4.0074,-3.9283,-3.926,-3.9715,-3.8443,-3.7445,-3.6608,-3.5736,-3.5319,-3.5177,-3.4751,-3.5013,-3.56,-3.56,-3.56,-3.56,0.0,0.0,0.0,0.0,0.0,0.0,0.0,0.0,0.0,0.0,0.0,0.0,0.0,0.0,0.0,0.0,0.0,0.0,0.0,0.0922,0.0054,-0.1154,-0.2303,-0.3211,-0.3868,-0.385,-0.3792,-0.3683,-0.303,-0.235,-0.1669,-0.0875,-0.0408,-0.0192,0.0684,0.1143,0.125,0.1459,0.1575,0.1584,0.0877,0.049,0.0,0.0,0.0,0.0,0.0,0.0,0.0,0.0,-0.6876,-0.7415,-0.7443,-0.8427,-0.9599,-0.9712,-1.0471,-1.1453,-1.2387,-1.4049,-1.5512,-1.5601,-1.7082,0.0,0.0,-2.1713,-2.3613,-2.4619,-2.6004,0.0,0.0,0.0,-2.6727,-2.7569,-2.9831,-3.2222,-3.4315,-3.5968,-3.7086,-3.7511,-3.8286,-3.8377,-3.7312,-3.7627,-3.7365,-3.605,-3.582,-3.5522,-3.5033,-3.4996,-3.5222,-3.569,-3.6128,-3.6392,-3.6455,-3.7405,-3.7942,-3.8033,-3.853,-3.8778,-3.8742,-3.7931,-3.7893,-3.834,-3.7329,-3.6531,-3.5915,-3.5578,-3.506,-3.4513,-3.4517,-3.4962,-3.56,-3.56,-3.56,-3.56,0.0,0.0,0.0,0.0,0.0,0.0,0.0,0.0,0.0,0.0,0.0,0.0,0.0,0.0,0.0,0.0,0.0,0.0,0.1199,0.0531,-0.0455,-0.1804,-0.2931,-0.3721,-0.4132,-0.4095,-0.3722,-0.3008,-0.2011,-0.1638,-0.1849,-0.119,-0.0919,-0.0954,-0.0471,-0.0084,0.0209,0.0202,0.036,0.0559,-0.0033,-0.0319,0.0,0.0,0.0,0.0,0.0,0.0,0.0,0.0,-0.7455,-0.8026,-0.8253,-0.9392,-1.0609,-1.0378,-1.1141,-1.2217,-1.2846,-1.43,-1.5787,-1.6367,0.0,0.0,-2.1157,-2.2932,-2.4712,-2.6182,-2.7408,-2.7927,-2.6883,0.0,0.0,-2.8455,-3.0448,-3.253,-3.4307,-3.5574,-3.6396,-3.6688,-3.7513,-3.7642,-3.6652,-3.7051,-3.6944,-3.5841,-3.5685,-3.5409,-3.4851,-3.4832,-3.4917,-3.5096,-3.5541,-3.5817,-3.5917,-3.6909,-3.7024,-3.6335,-3.7227,-3.7572,-3.737,-3.681,-3.6765,-3.7088,-3.6541,-3.5941,-3.5326,-3.52,-3.4673,-3.3968,-3.4398,-3.4787,-3.5112,-3.5112,-3.5112,-3.5108,0.0,0.0,0.0,0.0,0.0,0.0,0.0,0.0,0.0,0.0,0.0,0.0,0.0,0.0,0.0,0.0,0.0,0.0,0.0928,0.0077,-0.0951,-0.2162,-0.3243,-0.3822,-0.3818,-0.3929,-0.3113,-0.1319,-0.0177,-0.0442,-0.2012,-0.1549,-0.1577,-0.2017,-0.1817,-0.158,-0.1324,-0.1317,-0.1168,-0.0964,-0.1502,-0.1558,-0.1443,0.0,0.0,0.0,0.0,0.0,0.0,0.0,-0.8032,-0.8407,-0.954,-1.0498,-1.1203,-1.1203,-1.2011,-1.296,-1.3236,-1.3754,-1.4478,0.0,0.0,0.0,-2.2804,-2.4591,-2.6411,-2.9305,-2.9422,-2.8875,-2.8471,-2.7599,0.0,-2.9109,-3.0969,-3.2487,-3.328,-3.5058,-3.6187,-3.5903,-3.6824,-3.7376,-3.7095,-3.6586,-3.627,-3.6279,-3.5535,-3.5086,-3.5086,-3.5086,-3.5105,-3.5105,-3.5361,-3.5369,-3.5105,-3.5879,-3.6014,-3.5497,-3.6573,-3.6795,-3.6303,-3.6299,-3.6281,-3.6266,-3.6266,-3.5771,-3.4958,-3.4543,-3.4085,-3.3669,-3.4412,-3.4456,-3.4105,-3.4105,-3.4105,-3.4047,0.0,0.0,0.0,0.0,0.0,0.0,0.0,0.0,0.0,0.0,0.0,0.0,0.0,0.0,0.0,0.0,0.0,0.0,0.0318,-0.0553,-0.172,-0.3258,-0.4352,-0.4989,-0.5135,-0.4155,-0.3402,-0.2924,-0.1495,-0.1884,-0.3958,-0.3727,-0.375,-0.3956,-0.3755,-0.3337,-0.2776,-0.2775,-0.2594,-0.2342,-0.2734,-0.2848,-0.2879,0.0,0.0,0.0,0.0,0.0,0.0,0.0,0.0,0.0,-0.9394,-1.032,-1.1224,-1.1374,-1.2244,-1.3244,-1.3569,-1.4918,0.0,-1.7555,0.0,0.0,0.0,-2.5231,0.0,0.0,-2.9386,-2.8922,-2.8658,-2.9101,0.0,-2.8845,-3.0695,-3.2136,-3.195,-3.3965,-3.5193,-3.4505,-3.5748,-3.6084,-3.4636,-3.5031,-3.4931,-3.3772,-3.3616,-3.3839,-3.45,-3.4487,-3.475,-3.5357,-3.5453,-3.5453,-3.5376,-3.5384,-3.5019,-3.4311,-3.4382,-3.5079,-3.6262,-3.5275,-3.4713,-3.4504,-3.3954,-3.3555,-3.3326,-3.3488,-3.3759,-3.4071,-3.3967,-3.4164,-3.453,-3.453,-3.453,-3.4494,0.0,0.0,0.0,0.0,0.0,0.0,0.0,0.0,0.0,0.0,0.0,0.0,0.0,0.0,0.0,0.0,0.0,0.0,0.0,-0.1078,-0.2328,-0.3924,-0.5102,-0.584,-0.6089,-0.4449,-0.406,-0.503,-0.3053,-0.3203,-0.5322,-0.518,-0.5248,-0.5472,-0.5373,-0.4999,-0.4433,-0.446,-0.429,-0.4045,-0.4346,-0.4361,-0.4271,0.0,0.0,0.0,0.0,0.0,0.0,0.0,0.0,0.0,-1.0021,-1.0892,-1.1778,-1.1903,-1.2698,-1.3582,-1.3849,-1.5275,0.0,-1.8403,-2.0139,-2.2132,-2.4564,0.0,0.0,0.0,-2.9665,-2.9315,-2.9433,-2.9695,0.0,-2.9639,-3.0871,-3.1834,-3.1783,-3.3094,-3.3876,-3.3342,-3.4265,-3.4495,-3.3325,-3.3819,-3.3799,-3.2831,-3.2873,-3.3183,-3.3746,-3.3754,-3.3959,-3.4493,-3.4886,-3.4933,-3.4599,-3.4686,-3.4254,-3.331,-3.3206,-3.3664,-3.4612,-3.3675,-3.3092,-3.2816,-3.2339,-3.2118,-3.2129,-3.2388,-3.275,-3.3129,-3.2838,-3.291,-3.3179,-3.3498,-3.3639,-3.3641,0.0,0.0,0.0,0.0,0.0,0.0,0.0,0.0,0.0,0.0,0.0,0.0,0.0,0.0,0.0,0.0,0.0,0.0,0.0,0.0,-0.2818,-0.4269,-0.5594,-0.645,-0.68,-0.5041,-0.5177,-0.7333,-0.476,-0.447,-0.6352,-0.624,-0.6361,-0.6709,-0.6765,-0.6542,-0.6153,-0.6213,-0.6093,-0.5873,-0.6096,-0.5936,-0.5606,-0.6112,0.0,0.0,0.0,0.0,0.0,0.0,0.0,0.0,-1.1042,-1.1905,-1.2601,-1.2614,-1.3185,-1.3842,-1.4054,-1.5027,-1.6459,-1.8415,-2.0425,0.0,-2.488,-2.748,-2.9568,-3.01,0.0,-2.9822,-3.0249,-2.9547,-2.9374,-3.0748,-3.1108,-3.1444,-3.21,-3.2386,-3.25,-3.2443,-3.2631,-3.2756,-3.2679,-3.2654,-3.2634,-3.2566,-3.2624,-3.2706,-3.2793,-3.2861,-3.2934,-3.3011,-3.3895,-3.4001,-3.3216,-3.3796,-3.3517,-3.241,-3.2513,-3.2254,-3.1685,-3.1732,-3.1604,-3.1342,-3.1336,-3.136,-3.1434,-3.1409,-3.1397,-3.1397,-3.1397,-3.118,-3.096,-3.1751,-3.2054,-3.2105,0.0,0.0,0.0,0.0,0.0,0.0,0.0,0.0,0.0,0.0,0.0,0.0,0.0,0.0,0.0,0.0,0.0,0.0,0.0,0.0,-0.3273,-0.4481,-0.6105,-0.7194,-0.7632,-0.7431,-0.7642,-0.8301,-0.6047,-0.6093,-0.8292,-0.8325,-0.8316,-0.8299,-0.8201,-0.7833,-0.7257,-0.7264,-0.7181,-0.7026,-0.6929,-0.6825,-0.6753,-0.6929,-0.6834,0.0,0.0,0.0,0.0,0.0,0.0,0.0,-1.123,-1.1905,-1.2623,-1.2787,-1.2894,-1.3145,-1.3963,-1.4651,0.0,0.0,-2.2448,-2.5396,-2.6147,-2.7166,-2.7804,-2.7335,-2.8493,-2.9319,-2.8343,-2.903,-2.9501,-2.8757,-2.9735,-3.0426,-2.9895,-3.1546,-3.2583,-3.1943,-3.1924,-3.1698,-3.1,-3.0389,-2.9779,-2.9201,-2.9749,-3.0416,-3.1169,-3.1783,-3.2449,-3.3145,-3.3361,-3.3391,-3.3197,-3.2677,-3.1922,-3.0936,-3.0303,-2.9459,-2.8559,-3.0519,-3.1267,-3.1004,-3.0836,-3.1129,-3.1711,-3.1495,-3.1397,-3.1397,-3.1397,-3.1347,-3.1362,-3.2167,-3.2477,-3.2574,0.0,0.0,0.0,0.0,0.0,0.0,0.0,0.0,0.0,0.0,0.0,0.0,0.0,0.0,0.0,0.0,0.0,0.0,0.0,0.0,-0.3862,-0.5486,-0.6616,-0.7403,-0.7841,-0.8239,-0.8597,-0.8941,-0.7944,-0.8076,-0.9298,-0.9811,-0.9767,-0.9282,-0.9482,-0.9335,-0.8932,-0.8798,-0.8875,-0.906,-0.882,-0.8609,-0.8435,-0.8333,-0.8167,-0.8091,-0.8803,0.0,0.0,0.0,0.0,0.0,0.0,0.0,-1.263,-1.2729,-1.2998,-1.3318,-1.3525,0.0,0.0,-1.9793,0.0,-2.5324,-2.5869,-2.6225,-2.6335,-2.5909,-2.7402,-2.8522,-2.766,-2.8325,-2.8753,-2.8014,-2.8621,-2.9044,-2.8588,-2.966,-3.0352,-2.9929,-2.9871,-2.9701,-2.9298,-2.8911,-2.8524,-2.8171,-2.8518,-2.8953,-2.9473,-2.9876,-3.0303,-3.0796,-3.1235,-3.1287,-3.0856,-3.0798,-3.0302,-2.9388,-2.8916,-2.8348,-2.78,-2.9248,-2.9834,-2.9716,-3.003,-3.0353,-3.0639,-3.0506,-3.0376,-3.0246,-3.0246,-3.0246,-3.0393,-3.1586,-3.2027,-3.2192,0.0,0.0,0.0,0.0,0.0,0.0,0.0,0.0,0.0,0.0,0.0,0.0,0.0,0.0,0.0,0.0,0.0,0.0,0.0,0.0,0.0,-0.6378,-0.6866,-0.7281,-0.7695,-0.8284,-0.8795,-0.922,-0.9721,-0.9967,-0.9971,-1.0823,-1.0881,-1.0308,-1.0737,-1.084,-1.0675,-1.0468,-1.0622,-1.1014,-1.0729,-1.0383,-1.0019,-0.9731,-0.9503,-0.9398,-0.9994,-1.0179,-1.025,-1.0906,0.0,0.0,0.0,0.0,-1.2601,-1.2601,-1.3084,-1.3567,-1.317,0.0,-1.7074,-2.025,-2.2342,0.0,-2.4673,-2.4981,-2.5135,-2.5269,-2.6563,-2.7564,-2.7186,-2.7416,-2.7621,-2.7486,-2.7582,-2.7684,-2.7684,-2.7818,-2.7895,-2.7895,-2.7776,-2.7711,-2.7767,-2.7705,-2.7699,-2.7734,-2.7823,-2.7918,-2.7977,-2.8061,-2.8158,-2.822,-2.8962,-2.9023,-2.8301,-2.8956,-2.8845,-2.7978,-2.7766,-2.7618,-2.7578,-2.7931,-2.8267,-2.8566,-2.9395,-2.9652,-2.9494,-2.9474,-2.9291,-2.9067,-2.9067,-2.9051,-2.9189,-3.0797,-3.1397,-3.1635,0.0,0.0,0.0,0.0,0.0,0.0,0.0,0.0,0.0,0.0,0.0,0.0,0.0,0.0,0.0,0.0,0.0,0.0,-0.0866,0.0,0.0,-0.5848,-0.6404,-0.6871,-0.7266,-0.8095,-0.8627,-0.886,-1.0293,-1.1005,0.0,0.0,-1.1685,-1.2226,-1.2237,-1.211,-1.187,-1.1824,-1.1724,-1.1559,-1.1239,-1.0947,-1.0632,-1.0252,-0.999,-0.9919,-1.0739,-1.088,-1.0827,-1.1723,-1.1897,0.0,0.0,0.0,-1.2601,-1.2601,-1.2589,-1.2775,-1.3542,0.0,-1.7544,0.0,-2.0508,-2.2062,0.0,0.0,-2.4452,0.0,-2.6096,-2.6533,-2.5744,-2.624,-2.6524,-2.5769,-2.6269,-2.6774,-2.6774,-2.7409,-2.7895,-2.7895,-2.7272,-2.685,-2.6866,-2.6294,-2.5914,-2.5857,-2.6612,-2.7061,-2.7067,-2.7785,-2.8226,-2.8281,-2.8418,-2.8418,-2.8301,-2.8418,-2.7984,-2.7067,-2.624,-2.5834,-2.586,-2.6591,-2.7681,-2.9032,-2.968,-2.9947,-2.9908,-2.9739,-2.9533,-2.9351,-2.9351,-2.9192,-2.9189,-3.0797,-3.1397,-3.1635,0.0,0.0,0.0,0.0,0.0,0.0,0.0,0.0,0.0,0.0,0.0,0.0,0.0,0.0,0.0,0.0,-0.0446,-0.1191,-0.2281,-0.3584,-0.4701,-0.5587,-0.6257,-0.6731,-0.7021,-0.7928,-0.8757,-0.952,-1.0578,0.0,0.0,-1.2763,-1.2985,0.0,-1.3777,-1.387,-1.3688,-1.3161,-1.3044,-1.3194,-1.2888,-1.2317,-1.1661,-1.1826,-1.1555,-1.1235,-1.2532,-1.2822,-1.2661,-1.3106,-1.2993,-1.2577,-1.2157,0.0,0.0,0.0,-1.2814,-1.3236,-1.3986,-1.5018,-1.6239,0.0,-1.9004,-2.0338,-2.1712,-2.2343,-2.3028,-2.4351,-2.4933,-2.5216,-2.5288,-2.5615,-2.575,-2.5365,-2.5615,-2.5865,-2.5865,-2.6192,-2.6453,-2.6489,-2.6192,-2.6006,-2.6072,-2.5795,-2.5595,-2.5558,-2.5945,-2.6168,-2.6168,-2.654,-2.6767,-2.6836,-2.6836,-2.6836,-2.6836,-2.6836,-2.664,-2.6226,-2.5807,-2.5598,-2.5575,-2.6422,-2.7155,-2.7812,-2.8985,-2.9435,-2.9351,-2.9718,-2.9738,-2.957,-2.9444,-2.9609,-3.0039,-3.1191,-3.1913,-3.2481,0.0,0.0,0.0,0.0,0.0,0.0,0.0,0.0,0.0,0.0,0.0,0.0,0.0,0.0,0.0,0.0,-0.1424,-0.2207,-0.3687,-0.4383,-0.4954,-0.5461,-0.6176,-0.6639,-0.6792,-0.7913,-0.9021,-1.0065,0.0,0.0,-1.3756,-1.4304,-1.4566,0.0,-1.5181,-1.5285,0.0,-1.4494,-1.438,-1.4481,-1.4007,-1.3274,0.0,0.0,-1.2654,-1.2275,-1.3983,-1.4435,-1.424,-1.4461,-1.4215,-1.3701,-1.2968,-1.2983,0.0,0.0,0.0,0.0,0.0,0.0,-1.4961,-1.6351,-1.7458,-1.8565,0.0,0.0,-2.135,0.0,-2.3432,-2.3682,-2.45,-2.5019,-2.5308,-2.5308,-2.5308,-2.5308,-2.5308,-2.5308,-2.5317,-2.5398,-2.5415,-2.5463,-2.5595,-2.5628,-2.5629,-2.5602,-2.5602,-2.5602,-2.5602,-2.5602,-2.5633,-2.5703,-2.5703,-2.5703,-2.5703,-2.5703,-2.5703,-2.5703,-2.5703,-2.5662,-2.565,-2.6285,-2.6515,-2.6528,-2.8333,-2.9035,-2.8937,-2.9752,-2.9962,-2.9754,-2.9616,-3.001,-3.0801,-3.1607,-3.2411,-3.3256,0.0,0.0,0.0,0.0,0.0,0.0,0.0,0.0,0.0,0.0,0.0,0.0,-0.2107,-0.2008,-0.2095,-0.2469,-0.2407,-0.2966,-0.4442,-0.5401,-0.5762,-0.5422,-0.6115,0.0,-0.6524,-0.819,-0.9363,-1.0006,0.0,0.0,-1.3649,-1.5504,-1.6356,-1.6372,-1.6418,-1.5901,-1.5048,0.0,0.0,0.0,0.0,0.0,0.0,0.0,0.0,0.0,0.0,0.0,0.0,0.0,0.0,-1.5155,-1.4428,-1.4586,-1.4866,0.0,0.0,0.0,0.0,-1.4166,0.0,-1.4761,-1.5643,-1.6674,0.0,0.0,-1.9612,-2.1288,-2.1639,-2.1908,-2.2778,-2.4235,-2.5308,-2.5308,-2.5308,-2.5308,-2.5308,-2.5308,-2.5317,-2.5398,-2.5465,-2.5511,-2.5598,-2.566,-2.5662,-2.5604,-2.5602,-2.5602,-2.5602,-2.5602,-2.5633,-2.5703,-2.5703,-2.5703,-2.5703,-2.5703,-2.5703,-2.5703,-2.5703,-2.5703,-2.5683,-2.5672,-2.5658,-2.5786,-2.8154,-2.9149,-2.9154,-3.0027,-3.0215,-2.9984,-2.9977,-3.0373,-3.1072,-3.1874,-3.2694,-3.3496,0.0,0.0,0.0,0.0,0.0,0.0,0.0,0.0,0.0,0.0,0.0,0.0,0.0,-0.3265,-0.3555,-0.4102,-0.4496,-0.5061,-0.5894,-0.6218,-0.649,-0.6738,-0.6923,-0.7296,-0.7907,-0.8938,-1.0113,0.0,0.0,-1.3583,-1.4449,-1.5248,-1.5644,-1.5743,-1.6314,-1.6367,-1.6002,-1.5753,0.0,0.0,0.0,0.0,0.0,0.0,0.0,0.0,0.0,0.0,0.0,0.0,0.0,-1.6387,-1.4988,-1.4652,-1.4581,-1.3713,-1.4226,0.0,0.0,0.0,0.0,-1.4644,-1.4941,-1.5513,-1.6435,-1.6967,-1.7777,-1.9527,-2.0346,-2.0981,-2.1812,-2.2908,-2.3697,-2.3697,-2.4159,-2.4529,-2.4529,-2.4529,-2.4754,-2.5382,-2.5034,-2.4985,-2.56,-2.5683,-2.5662,-2.5604,-2.5636,-2.5657,-2.5603,-2.5636,-2.5682,-2.5703,-2.5703,-2.5703,-2.5703,-2.5703,-2.5703,-2.5703,-2.5703,-2.5703,-2.5703,-2.5682,-2.5636,-2.5677,-2.7119,-2.7981,-2.8502,-2.9842,-3.0329,-3.0305,-3.0667,-3.1302,-3.2074,-3.2917,-3.3764,-3.4476,0.0,0.0,0.0,0.0,0.0,0.0,0.0,0.0,0.0,0.0,0.0,0.0,0.0,0.0,-0.5364,-0.5779,-0.6477,-0.7035,-0.7352,-0.7462,-0.7627,-0.7897,-0.7773,-0.7953,-0.8524,-0.9447,-1.0616,0.0,0.0,0.0,0.0,-1.5047,-1.5171,-1.533,-1.5926,-1.6184,0.0,0.0,0.0,-1.5072,0.0,0.0,-1.3402,0.0,0.0,0.0,0.0,0.0,0.0,0.0,0.0,0.0,-1.5843,-1.5176,-1.4738,-1.4286,-1.4821,0.0,-1.4511,0.0,0.0,0.0,-1.4598,-1.4863,-1.5489,-1.5753,-1.6288,-1.7788,-1.8808,-1.9677,-2.0504,-2.137,-2.2139,-2.272,-2.3297,-2.3663,-2.3663,-2.3918,-2.435,-2.5012,-2.4618,-2.4523,-2.5195,-2.5254,-2.5253,-2.5205,-2.5506,-2.5683,-2.5635,-2.5682,-2.5703,-2.5703,-2.5703,-2.5703,-2.5703,-2.5703,-2.5703,-2.5703,-2.5703,-2.5703,-2.5703,-2.5703,-2.5682,-2.5672,-2.6538,-2.7167,-2.7718,-2.9328,-3.0009,-3.0089,-3.1053,-3.1922,-3.2737,-3.3608,-3.4481,-3.517,0.0,0.0,0.0,0.0,0.0,0.0,0.0,0.0,-0.3411,-0.4073,0.0,0.0,0.0,0.0,0.0,-0.7497,-0.8252,-0.8761,-0.8755,-0.9116,-0.9152,-0.8783,-0.8635,-0.8467,-0.8284,-0.9703,-1.0862,-1.1733,-1.3062,-1.4114,-1.4908,0.0,-1.5173,-1.53,-1.5405,-1.5403,-1.5396,0.0,-1.6127,-1.5243,0.0,-1.3861,-1.5178,0.0,0.0,0.0,-1.7431,-1.7733,0.0,-1.7254,0.0,0.0,-1.7055,-1.6354,-1.5569,-1.5617,-1.5329,0.0,0.0,0.0,0.0,0.0,0.0,0.0,-1.4693,0.0,-1.5239,-1.6082,-1.7002,-1.7911,-1.8761,-1.9661,-2.0792,-2.2412,-2.274,-2.2759,-2.2759,-2.3494,-2.4084,-2.4239,-2.4187,-2.4186,-2.4355,-2.4355,-2.4355,-2.4355,-2.5176,-2.5664,-2.5664,-2.5684,-2.5703,-2.5703,-2.5703,-2.5703,-2.5703,-2.5703,-2.5703,-2.5703,-2.5703,-2.5703,-2.5703,-2.5703,-2.5703,-2.5742,-2.6528,-2.6821,-2.6896,-2.8509,-2.918,-2.9364,-3.1014,-3.2179,-3.3006,-3.3878,-3.4757,-3.55,0.0,0.0,0.0,0.0,0.0,0.0,-0.4132,-0.4603,-0.5075,0.0,0.0,0.0,-0.7586,-0.8539,-0.9243,-0.9473,-0.9723,-0.9982,-1.0258,-1.0114,-1.0097,-1.0285,-0.9979,-1.0004,-1.0434,-1.102,-1.182,-1.2789,-1.3395,-1.4114,-1.4908,-1.5044,-1.5173,0.0,-1.6031,-1.6327,-1.6324,-1.6577,0.0,-1.7164,-1.6068,-1.5141,0.0,0.0,0.0,0.0,0.0,-1.6314,-1.6939,0.0,-1.7895,-1.8263,0.0,-1.7467,-1.6972,-1.6359,-1.6844,0.0,-1.6417,0.0,0.0,0.0,0.0,0.0,0.0,0.0,-1.5033,-1.5421,-1.6218,-1.691,-1.7141,-1.8372,-1.9511,-1.9973,-2.1066,-2.187,-2.187,-2.2107,-2.2562,-2.3264,-2.2837,-2.2755,-2.3457,-2.3535,-2.3516,0.0,-2.4277,-2.4766,-2.4766,-2.5352,-2.5703,-2.5703,-2.5703,-2.5703,-2.5703,-2.5703,-2.5703,-2.5703,-2.5703,-2.5703,-2.5703,-2.5703,-2.5703,-2.5703,-2.5936,-2.6011,-2.6138,-2.7693,-2.8681,-2.9306,-3.034,-3.1635,-3.3006,-3.3878,-3.4757,-3.5424,0.0,0.0,0.0,0.0,0.0,-0.452,-0.5319,-0.5886,-0.6471,0.0,0.0,0.0,-0.9786,-1.0369,-1.0804,-1.1105,-1.0892,-1.0815,-1.1059,-1.111,-1.123,-1.146,-1.1153,-1.1155,-1.1532,-1.194,-1.2608,-1.3488,-1.43,-1.4938,-1.5413,-1.5938,-1.6052,-1.5887,0.0,0.0,0.0,0.0,0.0,0.0,-1.6659,0.0,0.0,-1.5421,-1.5156,0.0,0.0,0.0,-1.7062,-1.7154,-1.7915,0.0,0.0,0.0,0.0,0.0,0.0,0.0,0.0,0.0,0.0,0.0,0.0,0.0,-1.5286,-1.4576,-1.4198,0.0,-1.5403,-1.5532,-1.6212,-1.747,-1.8536,-1.8862,-1.9788,-2.0577,-2.0942,-2.1357,-2.1812,-2.2393,-2.2067,-2.2039,-2.2597,-2.2656,-2.2637,-2.2598,-2.3379,-2.3867,-2.3906,-2.4375,-2.4805,-2.5156,-2.5156,-2.5332,-2.5703,-2.5703,-2.5703,-2.5703,-2.5703,-2.5703,-2.5703,-2.5703,-2.5683,-2.566,-2.5683,-2.5683,-2.5721,-2.6593,-2.7658,-2.8842,-2.9976,-3.1423,-3.2968,-3.3468,-3.4218,-3.4847,0.0,0.0,-0.3883,-0.4574,-0.4805,-0.5346,-0.6729,-0.7299,-0.7959,0.0,-0.9831,-1.0842,-1.2358,-1.2343,-1.2302,-1.2499,-1.1986,-1.1625,-1.1584,-1.2141,-1.2471,-1.2521,-1.2261,-1.2159,-1.222,-1.2701,-1.334,-1.4122,-1.5434,-1.6151,-1.6253,-1.7234,-1.7357,-1.6785,0.0,0.0,0.0,0.0,0.0,-1.8008,-1.6445,-1.6598,0.0,0.0,-1.6389,-1.7493,-1.6762,-1.7067,-1.7694,-1.7016,-1.775,0.0,0.0,0.0,0.0,0.0,-1.8285,0.0,0.0,0.0,0.0,0.0,0.0,0.0,-1.6103,-1.452,-1.3637,0.0,-1.4992,-1.4441,-1.5885,-1.6889,-1.7733,-1.8544,-1.8778,-1.915,-2.0038,-2.0904,-2.1452,-2.1424,-2.1563,-2.1688,-2.1758,-2.1758,-2.1758,-2.1758,-2.2519,-2.3027,-2.3184,-2.3183,-2.3555,-2.4375,-2.4394,-2.4824,-2.5684,-2.5703,-2.5703,-2.5703,-2.5703,-2.5703,-2.5703,-2.5703,-2.5661,-2.5607,-2.5662,-2.5661,-2.5612,-2.5537,-2.6481,-2.8097,-2.9559,-3.1154,-3.2622,-3.2737,-3.3314,-3.3955,0.0,0.0,-0.4837,-0.5255,-0.6033,-0.7177,-0.8841,-0.9837,-1.0961,-1.2512,-1.3319,-1.3774,-1.39,-1.4104,-1.4152,-1.3938,-1.3785,-1.3594,-1.3324,-1.343,-1.3636,-1.3904,-1.3601,-1.3679,-1.4212,-1.4089,-1.4503,-1.5513,-1.5851,-1.6384,-1.7065,-1.7449,-1.7633,-1.7691,0.0,0.0,0.0,0.0,0.0,-1.8937,-1.8605,0.0,-1.6801,-1.643,-1.6045,-1.5788,-1.6309,-1.7035,-1.7803,-1.8325,-1.9185,-1.9937,0.0,0.0,0.0,-1.9484,0.0,0.0,0.0,0.0,0.0,0.0,0.0,0.0,-1.7253,-1.6912,-1.6743,0.0,-1.6607,-1.6051,-1.6364,-1.6586,-1.698,-1.7771,-1.7939,-1.8257,-1.9126,-2.005,-2.0398,-1.9754,-2.0375,-2.0839,-2.0859,-2.0859,-2.0859,-2.0859,-2.1641,-2.2422,-2.3086,-2.312,-2.351,-2.4375,-2.4409,-2.4819,-2.5684,-2.5703,-2.5703,-2.5703,-2.5703,-2.5703,-2.5703,-2.5703,-2.5683,-2.5683,-2.5683,-2.5683,-2.5683,-2.5609,-2.6168,-2.7131,-2.8044,-2.941,-3.0962,-3.1679,-3.2449,-3.314,-0.5627,-0.5864,-0.617,-0.6526,-0.7293,-0.8556,-1.0625,-1.1638,-1.271,-1.429,-1.5288,-1.578,-1.5571,-1.5699,-1.5708,-1.5478,-1.5137,-1.4819,-1.4521,-1.4648,-1.4844,-1.503,-1.473,-1.4791,-1.5287,-1.5311,-1.5686,-1.6507,-1.7099,-1.7581,-1.7917,-1.8581,-1.854,-1.796,0.0,0.0,0.0,0.0,-2.0564,-2.0375,-1.9088,0.0,-1.6545,-1.6506,-1.6231,-1.5965,-1.6795,-1.7641,-1.8472,-1.9354,-1.9946,0.0,-2.0169,-2.0152,-2.022,0.0,-2.0656,-2.0656,0.0,0.0,0.0,-1.9654,0.0,0.0,0.0,-1.7565,-1.6858,-1.8461,-1.7164,-1.5993,-1.6808,-1.6992,-1.7037,-1.7018,-1.7383,-1.7718,-1.7757,-1.8529,-1.9124,-1.9188,-1.963,-2.0096,-2.0547,-2.0605,-2.0605,-2.0605,-2.0996,-2.1426,-2.1836,-2.1854,-2.2244,-2.3125,-2.3533,-2.4178,-2.5039,-2.5488,-2.5703,-2.5703,-2.5703,-2.5703,-2.5703,-2.5703,-2.5683,-2.5658,-2.5683,-2.5683,-2.564,-2.5617,-2.5829,-2.6271,-2.7488,-2.8944,-3.0404,-3.041,-3.1218,-3.2133,-0.691,-0.7306,-0.7805,-0.8212,-0.9006,-1.0356,-1.2624,-1.3499,-1.4418,-1.5828,-1.6863,-1.7413,-1.7263,-1.7096,-1.7057,-1.7218,-1.6277,-1.5824,-1.6161,-1.5941,-1.5963,-1.6375,-1.5885,-1.5777,-1.6186,-1.6401,-1.6787,-1.7393,-1.8315,-1.8759,-1.8768,-1.9715,-1.9505,-1.8447,0.0,0.0,0.0,0.0,0.0,-2.1323,0.0,-1.7771,-1.721,-1.6854,-1.6943,-1.7311,-1.7968,-1.8642,-1.9354,-2.0062,-2.0308,-2.0308,-2.0308,-2.0308,0.0,0.0,0.0,0.0,0.0,0.0,0.0,0.0,0.0,-2.0269,0.0,0.0,0.0,-1.9454,0.0,0.0,-1.7476,0.0,0.0,-1.6453,0.0,0.0,0.0,-1.6872,0.0,-1.8585,-1.8567,-1.8901,-1.998,-2.0097,-2.0214,-2.0566,-2.0429,-2.041,-2.0566,-2.0585,-2.1054,-2.2129,-2.2773,-2.3593,-2.4648,-2.5352,-2.5703,-2.5703,-2.5703,-2.5703,-2.5703,-2.5703,-2.5662,-2.561,-2.5682,-2.5662,-2.5613,-2.5622,-2.5572,-2.5675,-2.7357,-2.8686,-2.9615,-2.9236,-2.989,-3.0677,-0.8144,-0.8879,-0.9879,-1.0288,-1.1894,-1.3712,-1.5488,-1.637,-1.726,-1.8434,-1.8897,-1.9059,0.0,0.0,0.0,0.0,0.0,0.0,-1.9553,-1.7425,-1.6786,-1.8473,-1.7326,-1.692,-1.7568,-1.7316,-1.7597,-1.8425,-1.856,-1.898,-1.9658,-1.9859,-1.9995,0.0,-2.0381,0.0,0.0,0.0,-2.0538,0.0,-1.9381,-1.9322,0.0,-1.8149,-1.8511,-1.9885,-1.9962,-2.0077,-2.0173,0.0,-2.0308,-2.0308,0.0,-2.0308,-2.0327,-2.0404,0.0,0.0,0.0,0.0,0.0,0.0,-2.0308,0.0,-2.0273,0.0,-1.9819,-2.0184,0.0,0.0,0.0,0.0,0.0,0.0,0.0,0.0,-1.5365,-1.5473,-1.5909,-1.6798,-1.6274,-1.6483,-1.8144,-1.8238,-1.8855,-2.0395,-1.9793,-1.9696,-2.0473,-2.0511,-2.1282,-2.3008,-2.308,-2.388,-2.5547,-2.5644,-2.5703,-2.5703,-2.5703,-2.5703,-2.5703,-2.5703,-2.5703,-2.5683,-2.5703,-2.5703,-2.5683,-2.5683,-2.5658,-2.5743,-2.7362,-2.7594,-2.7198,-2.8588,-2.878,-2.8296,-1.0261,-1.1043,0.0,-1.2388,-1.3595,-1.5089,-1.6819,-1.851,-1.9963,-2.0957,-2.1259,0.0,0.0,0.0,0.0,0.0,0.0,-1.9458,0.0,0.0,0.0,-2.0417,-1.9602,-1.9333,-1.983,-1.958,-1.9693,-2.0224,-1.9757,-1.986,-2.0501,-2.0551,-2.0514,0.0,-2.0985,0.0,-2.1826,0.0,-2.1501,0.0,0.0,0.0,0.0,-1.9295,-1.9219,-2.0308,-2.0308,-2.0308,-2.0308,0.0,-2.0308,0.0,0.0,0.0,0.0,-2.0865,0.0,0.0,0.0,0.0,0.0,0.0,0.0,0.0,-2.1,0.0,-2.0423,0.0,0.0,0.0,0.0,0.0,0.0,0.0,-1.6195,0.0,0.0,0.0,-1.4496,-1.6371,0.0,0.0,-1.7871,-1.7944,-1.8402,-1.9648,-1.9402,-1.9577,-2.0448,-2.0508,-2.1104,-2.2402,-2.287,-2.369,-2.4922,-2.5449,-2.5703,-2.5703,-2.5703,-2.5703,-2.5703,-2.5703,-2.5703,-2.5703,-2.5703,-2.5703,-2.5703,-2.5703,-2.566,-2.5712,-2.6854,-2.7354,-2.7431,-2.7589,-2.8044,-2.8392,-1.2975,0.0,0.0,0.0,-1.5338,-1.6665,-1.8422,-2.0377,-2.1907,0.0,0.0,0.0,-2.2804,-2.2583,0.0,0.0,-2.1201,-2.0924,0.0,0.0,-2.0456,-2.1316,-2.1134,-2.0994,-2.0937,-2.103,-2.1195,-2.1404,-2.0807,-2.0819,-2.1362,-2.14,-2.1278,-2.105,0.0,-2.2114,-2.2107,0.0,-2.2072,-2.2545,-2.161,-2.1586,-2.1947,-2.0316,-1.9946,-2.0308,-2.0308,-2.0308,-2.0308,-2.0308,-2.0308,0.0,-2.0308,-2.0308,-2.0404,0.0,0.0,0.0,-2.1173,0.0,0.0,0.0,0.0,0.0,0.0,0.0,0.0,0.0,0.0,0.0,0.0,0.0,0.0,0.0,0.0,-1.6138,0.0,-1.4078,0.0,0.0,0.0,0.0,0.0,-1.7375,-1.7748,-1.9068,-1.8942,-1.9284,-2.0381,-2.048,-2.0925,-2.1834,-2.2676,-2.3516,-2.4394,-2.5254,-2.5703,-2.5703,-2.5703,-2.5703,-2.5703,-2.5703,-2.5703,-2.5703,-2.5703,-2.5703,-2.5703,-2.5703,-2.5662,-2.5687,-2.6248,-2.6971,-2.7604,-2.6863,-2.7217,-2.7796,-1.6399,-1.6248,0.0,0.0,-1.7487,-1.917,-2.0924,-2.1964,0.0,0.0,0.0,0.0,0.0,0.0,0.0,0.0,0.0,-2.0576,-2.369,0.0,-2.0022,0.0,0.0,-2.1098,-2.0054,-2.0862,-2.1324,-2.1404,-2.1368,-2.1681,-2.2255,-2.2262,-2.2454,-2.282,-2.2843,-2.2896,-2.2901,-2.1995,-2.162,-2.1567,-2.0688,-2.0369,-2.0462,0.0,-2.0942,-2.0308,-2.0308,0.0,0.0,-2.0308,-2.0308,0.0,0.0,0.0,0.0,0.0,0.0,0.0,0.0,0.0,0.0,-2.0346,0.0,0.0,0.0,0.0,-2.1254,0.0,0.0,0.0,0.0,0.0,0.0,0.0,0.0,0.0,0.0,0.0,0.0,0.0,0.0,0.0,0.0,-1.5918,-1.6423,0.0,-1.8326,-1.8566,-2.0222,-2.043,-2.0899,-2.1779,-2.2654,-2.3516,-2.4394,-2.5254,-2.5703,-2.5703,-2.5703,-2.5703,-2.5703,-2.5703,-2.5703,-2.5703,-2.5703,-2.5703,-2.5703,-2.5703,-2.5703,-2.5683,-2.5649,-2.6163,-2.6903,-2.6674,-2.6096,-2.5418,0.0,0.0,0.0,0.0,0.0,0.0,0.0,-2.332,0.0,0.0,-2.5413,0.0,0.0,-2.5325,-2.4922,0.0,0.0,-2.2796,-2.3301,-2.2929,0.0,0.0,0.0,-2.3471,0.0,-2.3108,-2.3501,-2.3641,-2.2984,-2.288,-2.3296,-2.3295,-2.343,0.0,0.0,-2.3451,0.0,0.0,0.0,0.0,0.0,-2.1096,-2.1077,0.0,-2.0538,-2.0308,-2.0308,-2.0308,0.0,-2.0308,-2.0308,-2.0308,-2.0308,-2.0308,-2.0308,-2.0308,-2.0299,-2.0305,0.0,0.0,-2.044,-2.102,0.0,0.0,0.0,0.0,0.0,0.0,0.0,0.0,0.0,0.0,0.0,0.0,0.0,0.0,0.0,0.0,0.0,0.0,0.0,0.0,0.0,0.0,0.0,-1.8098,-1.7975,-1.8526,-2.0213,-2.0337,-2.0807,-2.1777,-2.2646,-2.3512,-2.4394,-2.5254,-2.5703,-2.5703,-2.5703,-2.5703,-2.5703,-2.5703,-2.5703,-2.5703,-2.5703,-2.5703,-2.5703,-2.5703,-2.5703,-2.5683,-2.5632,-2.5776,-2.6022,-2.5907,-2.6045,-2.623,-2.151,0.0,0.0,0.0,0.0,0.0,0.0,0.0,0.0,0.0,-2.6773,0.0,-2.6914,0.0,-2.6035,0.0,-2.4531,-2.4081,-2.349,-2.3936,0.0,-2.2529,-2.3922,-2.4178,0.0,0.0,0.0,0.0,0.0,-2.3964,0.0,0.0,0.0,0.0,0.0,-2.3994,-2.2948,-2.2957,-2.2261,0.0,0.0,-2.1235,0.0,0.0,-2.0481,-2.0692,0.0,-2.0308,-2.0308,-2.0308,-2.0308,-2.0308,-2.0308,-2.0308,-2.0308,-2.0308,-2.0301,-2.031,-2.031,-2.0546,0.0,-2.1496,-2.1443,0.0,-2.1576,0.0,-2.115,0.0,0.0,0.0,0.0,0.0,0.0,0.0,0.0,0.0,0.0,-1.5409,0.0,0.0,0.0,0.0,0.0,0.0,-1.5798,-1.6823,-1.7437,-1.8519,-2.0209,-2.0322,-2.0623,-2.1272,-2.2164,-2.3055,-2.3923,-2.4778,-2.5364,-2.5661,-2.5661,-2.5682,-2.5703,-2.5703,-2.5703,-2.5703,-2.5703,-2.5703,-2.5703,-2.5703,-2.5703,-2.5703,-2.5658,-2.5635,-2.5611,-2.552,-2.587,-2.6297,-2.2403,0.0,0.0,0.0,-2.3112,0.0,0.0,0.0,-2.6767,0.0,-2.6994,-2.7024,-2.705,-2.6328,-2.5781,-2.5703,-2.4941,-2.4411,-2.4318,-2.4274,0.0,0.0,-2.3287,-2.3272,-2.1351,0.0,0.0,0.0,0.0,0.0,0.0,0.0,0.0,0.0,-2.5409,0.0,-2.2996,-2.2943,-2.1916,-2.0359,-2.0369,-2.0865,-2.1543,-2.0731,-2.0923,-2.1523,-2.0654,-2.0327,-2.0308,-2.0404,-2.0404,-2.0365,-2.0404,-2.0385,-2.0365,-2.0365,-2.0359,-2.0368,-2.0374,-2.1051,-2.1776,-2.1821,-2.2429,0.0,0.0,0.0,-2.2481,0.0,0.0,0.0,0.0,0.0,0.0,0.0,0.0,0.0,0.0,0.0,-1.5527,0.0,0.0,0.0,0.0,-1.4413,-1.5363,-1.5367,-1.6852,-1.8511,-2.0212,-2.0352,-2.0402,-2.0404,-2.1326,-2.2239,-2.3074,-2.3918,-2.4762,-2.5599,-2.5601,-2.5634,-2.5703,-2.5703,-2.5703,-2.5703,-2.5703,-2.5703,-2.5703,-2.5703,-2.5703,-2.5703,-2.5703,-2.5703,-2.5683,-2.5558,-2.5552,-2.5604,-2.4514,-2.4692,-2.4757,0.0,-2.4713,-2.4942,0.0,0.0,0.0,0.0,-2.8303,-2.8454,-2.8007,-2.7728,-2.7061,-2.5801,-2.5391,0.0,0.0,0.0,0.0,-2.1804,-2.3901,-2.4008,-2.1586,-2.3649,-2.45,-2.3945,0.0,0.0,-2.5224,0.0,0.0,0.0,0.0,0.0,-2.3002,-2.3031,-2.2354,-2.1269,-2.1217,-2.2081,-2.3336,0.0,-2.2682,-2.324,-2.1735,-2.0808,-2.0481,-2.1735,-2.1735,-2.1312,-2.1947,-2.1716,-2.1192,-2.1192,-2.1227,-2.1271,-2.1335,-2.1942,-2.2752,-2.3465,-2.3304,-2.3112,0.0,0.0,0.0,0.0,0.0,0.0,0.0,0.0,0.0,0.0,0.0,0.0,0.0,0.0,0.0,-1.7252,0.0,0.0,0.0,-1.5281,-1.6262,-1.6272,-1.7805,-1.9194,-2.0235,0.0,-2.0337,-2.0338,-2.1675,-2.2533,-2.2802,-2.4248,-2.5118,-2.5377,-2.553,-2.5634,-2.5703,-2.5703,-2.5703,-2.5703,-2.5703,-2.5703,-2.5703,-2.5703,-2.5703,-2.5703,-2.5703,-2.5703,-2.5703,-2.5661,-2.566,-2.5662,-2.5308,-2.5606,0.0,-2.6376,0.0,0.0,-2.606,-2.6393,0.0,-2.8624,-2.8446,0.0,-2.8287,-2.7587,-2.671,-2.5737,-2.5605,0.0,-2.4851,0.0,0.0,-2.29,-2.4212,-2.4126,-2.2293,-2.3863,0.0,-2.4149,0.0,0.0,-2.5308,0.0,0.0,0.0,0.0,-2.4858,-2.3587,-2.3242,-2.2764,-2.2206,-2.2142,-2.2933,0.0,-2.3146,-2.3336,-2.3975,-2.299,-2.21,-2.1543,-2.2489,-2.2466,-2.2158,-2.2643,-2.2466,-2.2062,-2.2062,-2.1845,-2.1691,-2.2108,-2.2577,-2.3151,-2.4037,-2.4206,-2.4073,-2.3838,-2.3099,-2.2246,0.0,-2.0937,-2.0605,0.0,0.0,0.0,0.0,0.0,0.0,0.0,0.0,0.0,0.0,-1.7239,0.0,-1.4266,-1.5276,-1.5745,-1.4946,-1.7154,-1.8886,-1.9684,0.0,-2.0299,-2.0307,-2.1882,-2.2748,-2.2798,-2.4424,-2.5297,-2.5394,-2.5504,-2.5604,-2.5703,-2.5662,-2.5662,-2.5703,-2.5662,-2.5662,-2.5703,-2.5703,-2.5703,-2.5703,-2.5703,-2.5703,-2.5703,-2.5703,-2.5703,-2.5703,-2.5644,0.0,0.0,0.0,0.0,0.0,0.0,-2.7146,0.0,-2.9377,0.0,-2.7494,-2.8223,-2.6845,-2.5798,-2.5628,0.0,-2.5648,-2.5521,-2.5552,-2.5207,-2.4345,-2.4411,-2.4043,-2.3124,-2.3936,-2.4315,0.0,0.0,0.0,0.0,0.0,0.0,0.0,0.0,0.0,0.0,-2.3468,-2.3132,-2.3174,-2.3109,-2.3589,-2.4263,-2.3458,-2.3599,-2.4259,-2.4259,-2.3624,-2.2836,-2.3047,-2.3067,-2.299,-2.3086,-2.3067,-2.2975,-2.2968,-2.2408,-2.1959,-2.2834,-2.3112,-2.3347,-2.4156,-2.498,-2.5186,-2.3606,-2.3314,-2.2871,-2.1133,-2.0762,-2.0742,0.0,0.0,0.0,0.0,0.0,0.0,0.0,0.0,0.0,0.0,0.0,0.0,0.0,-1.5118,-1.4976,-1.3159,-1.5976,-1.8146,-1.8957,0.0,-2.0179,-2.0295,-2.1845,-2.2782,-2.3014,-2.4408,-2.5284,-2.5618,-2.5539,-2.5563,-2.5683,-2.5632,-2.5635,-2.5703,-2.5633,-2.5636,-2.5703,-2.5703,-2.5703,-2.5703,-2.5703,-2.5703,-2.5703,-2.5703,-2.5683,-2.5683,-2.7393,0.0,0.0,0.0,0.0,-2.9168,-2.8978,-2.8941,-2.9095,-2.954,-2.9182,-2.8725,-2.8337,-2.7333,-2.6412,-2.5741,-2.5631,0.0,0.0,0.0,0.0,-2.4343,-2.4995,-2.4661,-2.3124,-2.4588,-2.4984,0.0,0.0,0.0,-2.5293,0.0,0.0,0.0,0.0,0.0,-2.4336,-2.3468,0.0,-2.4067,-2.4066,-2.4511,-2.5177,-2.5008,-2.5018,-2.5096,-2.5096,-2.4101,-2.3009,-2.4404,-2.4428,-2.399,-2.4659,-2.4409,-2.3878,-2.3933,-2.3311,-2.2809,-2.3797,-2.3974,-2.4134,-2.5035,-2.5401,-2.5264,-2.4304,-2.4135,-2.3711,-2.2012,-2.168,-2.1445,-2.0723,0.0,0.0,0.0,0.0,0.0,0.0,0.0,0.0,0.0,0.0,-1.7131,0.0,0.0,-1.6658,-1.4893,-1.6606,-1.8098,-1.8953,0.0,-1.9552,0.0,-2.1072,-2.2185,0.0,0.0,-2.4804,-2.6241,-2.5741,-2.5545,-2.5628,-2.5604,-2.5635,-2.5703,-2.5633,-2.5636,-2.5703,-2.5703,-2.5703,-2.5703,-2.5703,-2.5703,-2.5703,-2.5703,-2.5661,-2.5632,-2.9788,0.0,0.0,0.0,0.0,0.0,0.0,-3.1107,-3.0704,-3.0333,-2.8988,-2.8118,-2.8281,-2.7087,-2.6105,-2.5672,-2.5653,-2.5631,-2.5601,-2.5602,-2.543,-2.5039,-2.543,-2.5273,-2.4466,-2.5195,-2.5373,-2.4936,0.0,-2.5429,-2.5413,0.0,0.0,0.0,0.0,-2.5469,0.0,0.0,0.0,-2.5012,-2.4988,-2.519,-2.5491,-2.5474,-2.5401,-2.5342,-2.5346,-2.481,-2.4216,-2.5038,-2.5038,-2.4793,-2.5173,-2.5071,-2.4787,-2.4814,-2.4219,-2.3624,-2.4121,-2.418,-2.4098,-2.411,-2.4478,-2.4505,-2.3237,-2.3358,-2.3259,-2.1562,-2.1582,-2.1621,-2.0762,-2.0605,0.0,0.0,0.0,0.0,0.0,0.0,-1.9995,0.0,0.0,0.0,0.0,0.0,0.0,0.0,0.0,0.0,0.0,0.0,-1.9432,0.0,0.0,0.0,-2.3113,0.0,-2.531,-2.5717,-2.5541,-2.5471,-2.5551,-2.552,-2.5537,-2.5598,-2.5561,-2.5594,-2.5658,-2.5683,-2.5703,-2.5703,-2.5703,-2.5703,-2.5703,-2.5703,-2.566,-2.5605,0.0,-3.1994,0.0,0.0,-3.3099,-3.3001,-3.3493,-3.2949,-3.2148,-3.1289,-2.8848,-2.748,-2.8223,-2.6738,-2.5682,-2.562,-2.568,-2.5679,-2.5611,-2.5675,-2.5703,-2.5703,-2.5703,-2.5703,-2.5703,-2.5652,-2.5614,0.0,0.0,0.0,0.0,0.0,0.0,0.0,0.0,0.0,0.0,0.0,-2.5703,-2.5703,-2.5636,-2.5607,-2.5598,-2.5545,-2.5488,-2.5431,-2.5413,-2.5371,-2.5322,-2.5293,-2.5308,-2.5308,-2.5308,-2.5339,-2.5383,-2.5401,-2.4707,-2.3964,-2.4161,-2.3902,-2.3501,-2.3167,-2.3505,-2.3628,-2.2469,-2.2817,-2.2956,-2.1443,-2.1543,-2.1621,-2.0762,-2.0605,0.0,0.0,0.0,0.0,0.0,0.0,0.0,0.0,0.0,0.0,-1.7266,0.0,0.0,0.0,0.0,0.0,-1.5857,0.0,0.0,0.0,0.0,-2.3366,-2.3037,0.0,-2.5637,-2.5349,-2.5397,-2.5421,-2.5488,-2.5418,-2.5434,-2.5491,-2.5476,-2.5513,-2.5604,-2.5662,-2.5703,-2.5703,-2.5703,-2.5703,-2.5703,-2.5703,-2.5658,-2.5597,0.0,0.0,0.0,0.0,0.0,-3.5369,-3.4609,-3.3809,-3.3008,-3.2187,-2.9805,-2.8203,-2.8281,-2.6738,-2.5703,-2.5683,-2.5703,-2.5703,-2.5683,-2.5703,-2.5703,-2.5703,-2.5703,-2.5703,-2.5703,-2.5683,-2.566,0.0,0.0,-2.5563,0.0,0.0,0.0,0.0,0.0,0.0,0.0,-2.5703,-2.5703,-2.5703,-2.5683,-2.5659,-2.5601,-2.5598,-2.5551,-2.5473,-2.5415,-2.5395,-2.5372,-2.5327,-2.5308,-2.5308,-2.5308,-2.5293,-2.533,-2.544,-2.4324,-2.3211,-2.4051,-2.3082,-2.217,-2.3613,-2.3505,-2.3169,-2.3749,-2.4075,-2.4006,-2.3065,-2.2358,-2.1621,-2.0762,-2.0605,-2.0585,0.0,0.0,0.0,0.0,0.0,-2.0011,-1.9181,0.0,0.0,-1.8965,-1.8256,-1.7323,0.0,-1.6355,0.0,0.0,0.0,0.0,-2.1366,-2.2201,-2.3309,-2.4757,-2.4274,-2.4757,-2.6174,-2.5648,-2.5409,-2.5404,-2.5394,-2.5441,-2.5508,-2.5441,-2.5473,-2.5604,-2.5662,-2.5703,-2.5703,-2.5703,-2.5703,-2.5703,-2.5703,-2.5629,-2.5535,0.0,0.0,0.0,0.0,0.0,0.0,0.0,-3.4277,-3.3281,-3.2969,-3.0684,-2.8887,-2.8359,-2.7207,-2.6269,-2.5742,-2.5703,-2.5703,-2.5703,-2.5703,-2.5703,-2.5703,-2.5703,-2.5703,-2.5703,-2.5703,-2.5683,0.0,0.0,0.0,0.0,0.0,0.0,0.0,0.0,-2.5703,-2.5703,-2.5703,-2.5703,-2.5703,-2.5703,-2.5683,-2.566,-2.566,-2.5629,-2.5556,-2.5535,-2.5481,-2.5453,-2.5379,-2.5335,-2.5308,-2.5308,-2.5321,-2.5376,-2.5463,-2.4632,-2.3669,-2.36,-2.2984,-2.2427,-2.2566,-2.2721,-2.2937,-2.3306,-2.3852,-2.4046,-2.3209,-2.2821,-2.2376,-2.1523,-2.1387,-2.1191,-2.0642,0.0,0.0,0.0,0.0,0.0,-1.991,0.0,-2.041,0.0,-1.9516,-1.9165,-1.8844,0.0,0.0,0.0,0.0,0.0,-2.1535,0.0,-2.3601,-2.4274,-2.4445,-2.4852,-2.5526,-2.5394,-2.5344,-2.5348,-2.5348,-2.5387,-2.5438,-2.5408,-2.5488,-2.5602,-2.5633,-2.5661,-2.5703,-2.5703,-2.5703,-2.5703,-2.5703,-2.5636,-2.5567,-3.8511,0.0,-3.757,0.0,-3.6803,-3.6055,-3.668,-3.5078,-3.3691,-3.3437,-3.1621,-2.9922,-2.8809,-2.7676,-2.6758,-2.6133,-2.5859,-2.5703,-2.5703,-2.5703,-2.5703,-2.5703,-2.5703,0.0,-2.5703,-2.5703,-2.5703,-2.5703,-2.6328,0.0,0.0,0.0,0.0,0.0,-2.5703,-2.5703,-2.5703,-2.5703,-2.5703,-2.5703,-2.5703,-2.5703,-2.5703,-2.5703,-2.5662,-2.5632,-2.5604,-2.5566,-2.5529,-2.5459,-2.5406,-2.5346,-2.5313,-2.5335,-2.5391,-2.5465,-2.4883,-2.4097,-2.3606,-2.3223,-2.2874,-2.2486,-2.2613,-2.2964,-2.3507,-2.3934,-2.4048,-2.3504,-2.3412,-2.3206,-2.2402,-2.2246,-2.1973,-2.1113,0.0,0.0,0.0,-2.0438,0.0,-2.0781,-2.1298,-2.1596,-2.1483,-2.1233,-2.1162,-2.144,0.0,0.0,0.0,0.0,0.0,0.0,0.0,0.0,-2.4159,-2.4718,-2.5004,-2.501,-2.5208,-2.5308,-2.5308,-2.5308,-2.5336,-2.5375,-2.5395,-2.5454,-2.5567,-2.5597,-2.5636,-2.5703,-2.5703,-2.5703,-2.5703,-2.5703,-2.566,-2.5605,-3.8769,-3.9883,-4.0879,-4.0019,-3.9141,-3.8555,-3.8574,-3.6367,-3.4375,-3.3516,-3.2676,-3.1504,-2.9766,-2.8047,-2.6992,-2.6992,-2.6191,-2.5703,-2.5703,-2.5703,-2.5703,0.0,0.0,-2.5703,-2.5703,-2.5703,-2.5703,-2.5703,0.0,0.0,-2.5703,0.0,-2.5703,-2.5703,-2.5703,-2.5703,-2.5703,-2.5703,-2.5703,-2.5703,-2.5703,-2.5703,-2.5703,-2.5703,-2.5703,-2.5683,-2.5611,-2.5601,-2.5595,-2.5511,-2.5508,-2.5465,-2.5348,-2.5308,-2.5321,-2.5468,-2.4883,-2.4233,-2.4348,-2.3752,-2.3295,-2.407,-2.3581,-2.3324,-2.4995,-2.477,-2.4221,-2.4277,-2.4271,-2.4047,-2.3222,-2.3086,-2.2812,-2.2012,0.0,0.0,0.0,-2.0438,0.0,-2.1676,-2.1729,-2.2362,-2.4093,-2.3412,0.0,0.0,0.0,0.0,0.0,0.0,0.0,-2.4042,-2.4721,0.0,-2.4991,-2.501,-2.5004,-2.501,-2.5208,-2.5308,-2.5308,-2.5308,-2.5308,-2.5298,-2.5364,-2.5444,-2.5517,-2.5567,-2.5636,-2.5703,-2.5703,-2.5703,-2.5703,-2.5703,-2.566,-2.5605,-4.043,-4.0312,-4.0039,-3.918,-3.8281,-3.7519,-3.6914,-3.5117,-3.3711,-3.3437,-3.2187,-3.1094,-3.0547,-2.9453,-2.8281,0.0,-2.6758,-2.6328,0.0,-2.5703,-2.5703,-2.5703,-2.5703,-2.5703,-2.5703,-2.5703,-2.5703,-2.5703,0.0,0.0,0.0,-2.5977,-2.5703,-2.5703,-2.5703,-2.5703,-2.5703,-2.5703,-2.5703,-2.5703,-2.5703,-2.5703,-2.5703,-2.5703,-2.5703,-2.5703,-2.5682,-2.5661,-2.566,-2.5597,-2.5564,-2.5554,-2.5451,-2.5438,-2.5447,-2.5498,-2.4912,-2.4283,-2.4389,-2.3762,-2.3281,-2.4105,-2.407,-2.413,-2.5152,-2.5178,-2.4968,-2.5039,-2.5099,-2.4868,-2.4065,-2.3962,-2.3711,-2.293,-2.2265,0.0,-2.1482,0.0,-2.0818,-2.1755,-2.2288,-2.3026,-2.4129,-2.3961,0.0,0.0,0.0,0.0,0.0,0.0,0.0,0.0,-2.4832,0.0,-2.5208,-2.5208,-2.5208,-2.5208,-2.5269,-2.5308,-2.5308,-2.5308,-2.5308,-2.5308,-2.5312,-2.5398,-2.5493,-2.5511,-2.5601,-2.5703,-2.5703,-2.5703,-2.5703,-2.5703,-2.5683,-2.5662,-4.1191,-4.0762,-4.0117,-3.9238,-3.8379,-3.748,-3.6621,-3.5293,-3.4141,-3.3496,-3.248,-3.1601,-3.0976,-3.041,0.0,-2.8105,-2.7383,-2.6914,-2.6699,-2.6055,-2.5859,-2.6172,-2.5879,-2.5703,-2.5703,-2.5703,0.0,-2.5703,-2.625,-2.6504,-2.6504,-2.5957,-2.5703,-2.5703,-2.5703,-2.5703,-2.5703,-2.5703,-2.5703,-2.5703,-2.5703,-2.5703,-2.5703,-2.5703,-2.5703,-2.5703,-2.5703,-2.5703,-2.5683,-2.5658,-2.5635,-2.5632,-2.5558,-2.5556,-2.5566,-2.5549,-2.5173,-2.4806,-2.4862,-2.4491,-2.4192,-2.4698,-2.4816,-2.4903,-2.5302,-2.5375,-2.5346,-2.5398,-2.5438,-2.5325,-2.487,-2.4813,-2.4588,-2.3789,-2.2949,-2.2383,-2.2344,0.0,-2.1423,0.0,0.0,0.0,0.0,-2.4663,-2.4823,0.0,0.0,0.0,0.0,0.0,0.0,-2.4548,-2.5066,-2.5336,-2.5308,-2.5308,-2.5308,-2.5308,-2.5308,-2.5308,-2.5308,-2.5308,-2.5308,-2.5308,-2.5321,-2.5406,-2.5493,-2.5535,-2.5602,-2.5703,-2.5703,-2.5703,-2.5703,-2.5703,-2.5703,-2.5703,-4.1191,-4.1191,-4.0918,0.0,-3.9141,-3.8281,-3.7344,-3.6465,-3.5332,-3.3691,-3.3398,-3.2715,-3.1152,-3.0937,-3.0566,-2.9766,0.0,0.0,-2.8164,-2.6699,-2.6133,-2.6875,-2.6133,-2.5703,-2.5703,-2.5703,-2.5703,-2.5703,-2.5703,-2.5703,-2.5703,-2.5703,-2.5703,-2.5703,-2.5703,-2.5703,-2.5703,-2.5703,-2.5703,-2.5703,-2.5703,-2.5703,-2.5703,-2.5703,-2.5703,-2.5703,-2.5703,-2.5703,-2.5703,-2.5703,-2.5703,-2.5683,-2.5632,-2.5658,-2.5683,-2.5629,-2.5603,-2.563,-2.5683,-2.5703,-2.5703,-2.5703,-2.5658,-2.5563,-2.5438,-2.5417,-2.5394,-2.5394,-2.5394,-2.5444,-2.5564,-2.5599,-2.5357,-2.4609,-2.3809,-2.3262,-2.3183,-2.237,-2.2447,0.0,0.0,0.0,-2.5401,-2.5441,-2.5364,0.0,0.0,0.0,0.0,0.0,-2.4563,-2.5197,-2.5281,-2.5309,-2.5303,-2.5303,-2.5303,-2.5303,-2.5293,-2.5308,-2.5308,-2.5308,-2.5293,-2.5308,-2.5368,-2.5447,-2.5503,-2.5567,-2.5636,-2.5703,-2.5703,-2.5703,-2.5703,-2.5703,-2.5703,-2.5703,0.0,0.0,-4.0723,-3.918,-3.873,-3.8086,-3.6543,-3.5566,-3.4863,-3.4453,-3.3281,-3.2324,-3.1934,-3.1309,-3.082,-3.0605,-2.9609,-2.8516,-2.7383,-2.6914,-2.6484,-2.6035,-2.5801,-2.5703,-2.5703,-2.5703,-2.5703,-2.5703,-2.5703,-2.5703,-2.5703,-2.5703,-2.5703,-2.5703,-2.5703,-2.5703,-2.5703,-2.5703,-2.5703,-2.5703,-2.5703,-2.5703,-2.5703,-2.5703,-2.5703,-2.5703,-2.5703,-2.5703,-2.5703,-2.5703,-2.5703,-2.5703,-2.5683,-2.5683,-2.5683,-2.5629,-2.5635,-2.5683,-2.5703,-2.5703,-2.5703,-2.5703,-2.5658,-2.5597,-2.5558,-2.5463,-2.5394,-2.5394,-2.5394,-2.5428,-2.5517,-2.5563,-2.5552,-2.541,-2.4668,-2.4081,-2.4031,-2.3252,-2.3084,0.0,-2.4225,-2.4513,-2.5344,-2.542,-2.5379,0.0,0.0,-2.5212,-2.5019,-2.5029,-2.4841,-2.4394,-2.4402,-2.4716,-2.5364,-2.5387,-2.5372,-2.5372,-2.5317,-2.5308,-2.5308,-2.5308,-2.5326,-2.5376,-2.5383,-2.5477,-2.559,-2.5598,-2.5636,-2.5703,-2.5703,-2.5703,-2.5703,-2.5703,-2.5703,-2.5703,-4.0684,-4.0605,-4.0059,-3.8301,-3.8008,-3.7559,-3.6211,-3.5605,-3.5156,-3.4746,-3.3555,-3.2617,-3.2246,-3.1426,-3.0898,-3.0898,-3.0098,-2.9375,-2.8828,-2.7656,-2.6973,-2.6894,-2.6133,-2.5703,-2.5703,-2.5703,-2.5703,-2.5703,-2.5703,-2.5898,-2.6289,-2.5898,-2.5918,-2.6289,-2.6289,-2.6074,-2.5723,-2.6133,-2.6055,-2.5703,-2.5703,-2.5703,-2.5703,-2.5703,-2.5703,-2.5703,-2.5703,-2.5703,-2.5703,-2.5703,-2.5703,-2.5703,-2.5703,-2.5703,-2.5683,-2.566,-2.5662,-2.5703,-2.5703,-2.5703,-2.5703,-2.5703,-2.5662,-2.5635,-2.5604,-2.5547,-2.5473,-2.5459,-2.5453,-2.5477,-2.5539,-2.5588,-2.561,-2.5683,-2.494,-2.4484,-2.4841,-2.4079,-2.3814,-2.4684,-2.4745,-2.4892,-2.5348,-2.536,-2.5339,-2.5293,-2.5308,0.0,-2.4774,-2.4755,-2.4716,-2.4639,-2.4639,-2.4891,-2.5402,-2.5431,-2.5431,-2.5406,-2.5363,-2.5321,-2.5308,-2.533,-2.5375,-2.5397,-2.5454,-2.5539,-2.5603,-2.5634,-2.5661,-2.5703,-2.5703,-2.5703,-2.5703,-2.5703,-2.5703,-2.5703,-4.0234,-3.998,-3.9394,-3.7773,-3.7383,-3.7012,-3.6133,-3.5996,-3.5723,-3.498,-3.4023,-3.3144,-3.2461,-3.1484,-3.0898,-3.0898,-3.0215,-3.0,-3.0488,-2.8437,-2.7402,-2.7891,-2.6484,-2.5703,-2.5703,-2.582,-2.582,-2.5703,-2.5957,-2.6406,-2.6992,-2.6387,-2.6484,-2.7207,-2.7207,-2.6797,-2.6133,-2.6738,-2.6562,-2.5879,-2.5742,-2.5703,-2.5703,-2.5703,-2.5703,-2.5703,-2.5703,-2.5703,-2.5703,-2.5703,-2.5703,-2.5703,-2.5703,-2.5703,-2.5703,-2.5703,-2.5703,-2.5703,-2.5703,-2.5703,-2.5703,-2.5703,-2.5703,-2.5683,-2.5633,-2.5605,-2.5573,-2.5535,-2.5517,-2.5529,-2.5595,-2.5602,-2.561,-2.5683,-2.5012,-2.4759,-2.5477,0.0,-2.459,-2.5374,-2.5375,-2.5312,-2.5379,-2.5335,-2.5308,-2.5308,-2.5308,-2.5,-2.4317,-2.4279,-2.4582,-2.5288,-2.5173,-2.5209,-2.5411,-2.5473,-2.5495,-2.5421,-2.5413,-2.5383,-2.533,-2.5376,-2.5408,-2.5441,-2.5552,-2.5604,-2.5629,-2.5682,-2.5703,-2.5703,-2.5703,-2.5703,-2.5703,-2.5703,-2.5703,-2.5723,-4.1016,-4.041,-3.957,-3.8574,-3.7793,-3.7012,-3.6133,-3.5996,-3.5957,-3.582,-3.4394,-3.3359,-3.3223,-3.1836,-3.0898,-3.0898,-3.0781,-3.0137,-2.8789,-2.832,-2.75,-2.6152,-2.584,-2.5703,-2.5703,-2.6426,-2.6445,-2.5703,-2.7187,-2.7598,-2.7012,-2.7617,-2.7969,-2.8105,-2.8105,-2.8027,-2.7851,-2.7266,-2.6914,-2.6738,-2.5996,-2.5703,-2.5703,-2.5703,-2.5703,-2.5703,-2.5703,-2.5703,-2.5703,-2.5703,-2.5703,-2.5703,-2.5703,-2.5703,-2.5703,-2.5703,-2.5703,-2.5703,-2.5703,-2.5703,-2.5703,-2.5703,-2.5703,-2.5703,-2.5683,-2.5636,-2.5599,-2.5594,-2.5545,-2.5529,-2.5595,-2.5602,-2.561,-2.5683,-2.5539,-2.5435,-2.5492,0.0,-2.5225,-2.532,-2.5313,-2.5293,-2.5317,-2.5317,-2.5308,-2.5308,-2.5308,-2.525,-2.5115,-2.5115,-2.5173,-2.5308,-2.4639,-2.4675,-2.5476,-2.5552,-2.557,-2.5563,-2.544,-2.5425,-2.5477,-2.5415,-2.5465,-2.5566,-2.5597,-2.5633,-2.5683,-2.5703,-2.5703,-2.5703,-2.5703,-2.5703,-2.5703,-2.5703,-2.5703,-2.5801,-4.0508,-3.9414,-3.8379,-3.7969,-3.7187,-3.6465,-3.6055,-3.5996,-3.582,-3.5351,-3.4199,-3.3223,-3.2793,-3.1641,-3.0898,-3.0898,-3.0898,-3.0156,-2.8418,-2.8301,-2.7949,-2.7148,-2.6191,-2.5918,-2.6387,-2.6797,-2.7031,-2.7109,-2.791,-2.832,-2.8398,-2.832,-2.8555,-2.9004,-2.9004,-2.873,-2.8262,-2.7871,-2.7422,-2.6914,-2.6055,-2.5703,-2.5703,-2.5703,-2.5703,-2.5703,-2.5703,-2.5703,-2.5703,-2.5703,-2.5703,-2.5703,-2.5703,-2.5703,-2.5703,-2.5703,-2.5703,-2.5703,-2.5703,-2.5703,-2.5703,-2.5703,-2.5703,-2.5703,-2.5703,-2.5682,-2.5659,-2.5659,-2.5633,-2.5628,-2.5658,-2.5659,-2.5661,-2.5683,-2.5607,0.0,-2.5496,-2.5404,-2.5335,-2.5293,-2.5308,-2.5308,-2.5308,-2.5308,-2.5308,-2.5308,-2.5308,-2.5308,-2.5308,-2.5308,-2.5308,-2.5308,-2.5016,-2.5056,-2.5491,-2.5603,-2.5635,-2.5601,-2.5543,-2.5515,-2.5491,-2.5513,-2.5543,-2.5602,-2.5636,-2.5662,-2.5703,-2.5703,-2.5703,-2.5742,-2.6211,-2.6406,-2.6465,-2.6934,-2.7109,-2.709,-3.9941,-3.8652,-3.7539,-3.7344,-3.6582,-3.5996,-3.5996,-3.5996,-3.5762,-3.5098,-3.4062,-3.3164,-3.2559,-3.1523,-3.0898,-3.0898,-3.0898,-3.0332,-2.8984,-2.8535,-2.8125,-2.7715,-2.6602,-2.6406,-2.7285,-2.75,-2.7832,-2.8301,-2.8711,-2.9141,-2.959,-2.9121,-2.9258,-2.9902,-2.9902,-2.9531,-2.8887,-2.8476,-2.791,-2.7207,-2.6133,-2.5703,-2.5703,-2.5703,-2.5703,-2.5703,-2.5703,-2.5703,-2.5703,-2.5703,-2.5703,-2.5703,-2.5703,-2.5703,-2.5703,-2.5703,-2.5703,-2.5703,-2.5703,-2.5703,-2.5703,-2.5703,-2.5703,-2.5703,-2.5703,-2.5703,-2.5703,-2.5703,-2.5703,-2.5703,-2.5703,-2.5703,-2.5703,-2.5703,0.0,-2.5491,-2.5491,-2.5379,-2.5308,-2.5308,-2.5313,-2.5312,-2.5312,-2.5312,-2.5312,-2.5317,-2.5303,-2.5308,-2.5308,-2.5308,-2.5308,-2.5308,-2.5428,-2.5491,-2.5491,-2.5634,-2.5662,-2.5611,-2.5605,-2.5572,-2.5551,-2.5573,-2.5605,-2.5632,-2.5682,-2.5703,-2.5703,-2.5703,-2.582,-2.6074,-2.6738,-2.7129,-2.7383,-2.8047,-2.8301,-2.8223,-4.0059,-3.9141,-3.8242,-3.7441,-3.6582,-3.5996,-3.5996,-3.5996,-3.5976,-3.5918,-3.4434,-3.3379,-3.332,-3.1875,-3.0898,-3.0898,-3.0898,-3.0859,-3.0723,-2.9199,-2.7578,-2.5957,-2.6543,-2.7305,-2.8184,-2.9004,-2.9043,-2.8301,-2.9922,-3.0332,-2.9629,-3.0351,-3.0742,-3.0801,-3.0801,-3.0762,-3.0605,-2.8984,-2.8262,-2.8066,-2.6387,-2.5703,-2.5703,-2.5703,-2.5703,-2.5703,-2.5703,-2.5703,-2.5703,-2.5703,-2.5703,-2.5703,-2.5703,-2.5703,-2.5703,-2.5703,-2.5703,-2.5703,-2.5703,-2.5703,-2.5703,-2.5703,-2.5703,-2.5703,-2.5703,-2.5703,-2.5703,-2.5703,-2.5703,-2.5703,-2.5703,-2.5703,-2.5703,-2.5703,0.0,0.0,-2.5491,-2.5379,-2.5308,-2.5308,-2.5354,-2.5398,-2.5387,-2.5387,-2.5391,-2.5398,-2.5339,-2.5308,-2.5308,-2.5308,-2.5308,-2.5308,-2.5428,-2.5491,-2.5491,-2.5634,-2.5703,-2.5683,-2.5633,-2.5633,-2.5683,-2.5632,-2.5634,-2.5683,-2.5703,-2.5703,-2.5703,-2.5703,-2.6172,-2.6914,-2.6973,-2.748,-2.8203,-2.8281,-2.8301,-2.8418,-4.0664,-3.9121,-3.7851,-3.8066,-3.6934,-3.5996,-3.5996,-3.5996,-3.5801,-3.5254,-3.4629,-3.3809,-3.2773,-3.209,-3.1484,-3.0957,-3.0898,-3.0664,-3.0137,-2.9473,-2.832,-2.6582,-2.7344,-2.8203,-2.9082,-2.9434,-2.9707,-2.9902,-3.0586,-3.0723,-3.041,-3.0742,-3.0898,-3.0898,-3.0898,-3.0898,-3.082,-2.9629,-2.8789,-2.8242,-2.7578,-2.666,-2.5762,-2.6309,-2.6172,-2.5703,-2.5703,-2.5703,-2.5703,-2.5703,-2.5703,-2.5703,-2.5703,-2.5703,-2.5703,-2.5703,-2.5703,-2.5703,-2.5703,-2.5703,-2.5703,-2.5703,-2.5703,-2.5703,-2.5703,-2.5703,-2.5703,-2.5703,-2.5703,-2.5703,-2.5703,-2.5703,-2.5683,-2.5637,0.0,-2.5495,-2.5431,-2.5359,-2.5317,-2.5359,-2.5387,-2.5415,-2.5462,-2.5421,-2.5409,-2.539,-2.5344,-2.5308,-2.5308,-2.5308,-2.5308,-2.5308,-2.5428,-2.5491,-2.5491,-2.5634,-2.5703,-2.5703,-2.5662,-2.5682,-2.5703,-2.5662,-2.5682,-2.5703,-2.5703,-2.6016,-2.6504,-2.6504,-2.7012,-2.7851,-2.8398,-2.8809,-2.918,-2.9707,-2.9902,-2.9883,-4.0371,-3.8945,-3.7715,-3.7773,-3.6797,-3.5996,-3.5996,-3.5996,-3.5781,-3.5195,-3.4863,-3.4258,-3.3105,-3.2519,-3.1953,-3.1367,-3.1055,-3.0644,-3.0059,-3.0019,-2.9355,-2.7871,-2.8398,-2.9121,-2.998,-3.0019,-3.0293,-3.0898,-3.0898,-3.0898,-3.0898,-3.0898,-3.0898,-3.0898,-3.0898,-3.0898,-3.084,-2.9961,-2.9258,-2.8672,-2.8418,-2.7578,-2.6543,-2.6875,-2.6621,-2.6074,-2.5801,-2.5703,-2.5703,-2.5703,-2.5703,-2.5703,-2.5703,-2.5703,-2.5703,-2.5703,-2.5703,-2.5703,-2.5703,-2.5703,-2.5703,-2.5703,-2.5703,-2.5703,-2.5703,-2.5703,-2.5703,-2.5703,-2.5703,-2.5781,-2.6055,-2.6113,-2.6093,-2.6016,-2.5958,-2.5782,-2.5443,-2.5363,-2.5357,-2.5398,-2.5441,-2.5473,-2.5535,-2.5481,-2.5451,-2.5451,-2.5376,-2.5327,-2.5308,-2.5558,-2.5577,-2.5308,-2.5401,-2.549,-2.5491,-2.5634,-2.5703,-2.5703,-2.5703,-2.5703,-2.5703,-2.5703,-2.5859,-2.6113,-2.6113,-2.6602,-2.7402,-2.7402,-2.793,-2.8769,-2.9375,-2.9766,-3.0078,-3.0684,-3.0878,-3.0758,-3.8965,-3.8613,-3.8047,-3.6328,-3.6016,-3.5996,-3.5996,-3.5996,-3.5996,-3.5996,-3.5254,-3.4707,-3.4707,-3.3203,-3.2207,-3.2207,-3.1406,-3.0898,-3.0898,-3.0898,-3.0508,-2.9648,-2.9609,-3.0019,-3.0879,-3.0898,-3.0898,-3.0898,-3.0898,-3.0898,-3.0898,-3.0898,-3.0898,-3.0898,-3.0898,-3.0898,-3.084,-2.998,-2.9609,-2.9531,-2.8672,-2.8301,-2.8203,-2.7344,-2.7012,-2.6894,-2.6016,-2.5703,-2.5703,-2.5703,-2.5703,-2.5703,-2.5703,-2.5703,-2.5703,-2.5703,-2.5703,-2.5703,-2.5703,-2.5703,-2.5703,-2.5703,-2.5703,-2.5703,-2.5703,-2.5703,-2.5703,-2.5703,-2.5703,-2.5977,-2.6855,-2.7012,-2.6991,-2.6915,-2.6858,-2.6487,-2.554,-2.5402,-2.5418,-2.5398,-2.5524,-2.5602,-2.5602,-2.5602,-2.5602,-2.5602,-2.5479,-2.5375,-2.5313,-2.6135,-2.6212,-2.5346,-2.5371,-2.5434,-2.553,-2.5633,-2.5703,-2.5703,-2.5703,-2.5703,-2.5723,-2.5723,-2.6191,-2.7012,-2.7012,-2.75,-2.8301,-2.8301,-2.8828,-2.9609,-2.9609,-3.0137,-3.0898,-3.0898,-3.0816,-3.0695,-4.0527,-3.9434,-3.8437,-3.793,-3.6816,-3.5996,-3.5996,-3.5996,-3.5996,-3.5996,-3.5762,-3.5371,-3.4766,-3.3711,-3.2812,-3.2246,-3.1406,-3.0898,-3.0898,-3.0898,-3.0781,-3.0527,-3.0508,-3.0625,-3.0898,-3.0898,-3.0898,-3.0898,-3.0898,-3.0898,-3.0898,-3.0898,-3.0898,-3.0898,-3.0898,-3.0898,-3.0879,-3.0625,-3.0156,-2.9629,-2.998,-2.9394,-2.834,-2.8691,-2.8066,-2.6973,-2.6719,-2.6211,-2.5703,-2.5703,-2.5703,-2.5703,-2.5703,-2.5703,-2.5703,-2.5703,-2.5703,-2.5703,-2.5703,-2.5703,-2.5703,-2.5703,-2.5703,-2.5703,-2.5703,-2.5703,-2.5879,-2.6484,-2.6602,-2.6875,-2.7754,-2.7867,-2.7828,-2.7745,-2.7692,-2.7311,-2.6366,-2.6283,-2.6102,-2.5549,-2.5549,-2.5629,-2.5661,-2.5633,-2.5602,-2.5602,-2.604,-2.6567,-2.717,-2.6829,-2.6755,-2.7101,-2.5989,-2.6016,-2.7315,-2.6197,-2.5952,-2.6602,-2.6602,-2.6934,-2.7519,-2.7519,-2.7676,-2.791,-2.791,-2.8418,-2.9219,-2.9219,-2.9726,-3.0508,-3.0508,-3.0664,-3.0898,-3.0898,-3.0816,-3.069,-4.0742,-3.9844,-3.9004,-3.8652,-3.7734,-3.6914,-3.6562,-3.6504,-3.6387,-3.6055,-3.5996,-3.5801,-3.5273,-3.4434,-3.3574,-3.2754,-3.1894,-3.1269,-3.0918,-3.1211,-3.1269,-3.0918,-3.0898,-3.0898,-3.0898,-3.0898,-3.0898,-3.0898,-3.0898,-3.0898,-3.0898,-3.0898,-3.0898,-3.0898,-3.0898,-3.0898,-3.0898,-3.0898,-3.0605,-3.0156,-3.0684,-3.0273,-2.9355,-2.9531,-2.8945,-2.7988,-2.7637,-2.7187,-2.6738,-2.6738,-2.6504,-2.6152,-2.5801,-2.5703,-2.5703,-2.5703,-2.5703,-2.5703,-2.5703,-2.5957,-2.6211,-2.6211,-2.5957,-2.5781,-2.6133,-2.6211,-2.6465,-2.7324,-2.7519,-2.7773,-2.8652,-2.8786,-2.8727,-2.8637,-2.8579,-2.8237,-2.7281,-2.7199,-2.708,-2.6615,-2.6637,-2.6675,-2.6719,-2.6696,-2.6668,-2.6638,-2.7023,-2.7325,-2.7474,-2.7258,-2.7044,-2.689,-2.6563,-2.6773,-2.7573,-2.6926,-2.6892,-2.7519,-2.7519,-2.7793,-2.8301,-2.8301,-2.8496,-2.8809,-2.8809,-2.9316,-3.0117,-3.0117,-3.043,-3.0898,-3.0898,-3.0898,-3.0898,-3.0898,-3.0816,-3.0689,-4.0176,-3.9941,-3.9648,-3.8848,-3.8652,-3.832,-3.7539,-3.7344,-3.7012,-3.6211,-3.6055,-3.5996,-3.5996,-3.5215,-3.4375,-3.3594,-3.2773,-3.1934,-3.1074,-3.1758,-3.1816,-3.0937,-3.0898,-3.0898,-3.0898,-3.0898,-3.0898,-3.0898,-3.0898,-3.0898,-3.0898,-3.0898,-3.0898,-3.0898,-3.0898,-3.0898,-3.0898,-3.0898,-3.0898,-3.0898,-3.0898,-3.0898,-3.0801,-3.0019,-2.9668,-2.9492,-2.8691,-2.8379,-2.8301,-2.8301,-2.7715,-2.6855,-2.6074,-2.5762,-2.5703,-2.5703,-2.5703,-2.5723,-2.5801,-2.6406,-2.7012,-2.7109,-2.6523,-2.6133,-2.6934,-2.7129,-2.7363,-2.8242,-2.8418,-2.8672,-2.9551,-2.9707,-2.9662,-2.9533,-2.9508,-2.9187,-2.8252,-2.8175,-2.8225,-2.8197,-2.8257,-2.8281,-2.8301,-2.8301,-2.8319,-2.8324,-2.818,-2.7762,-2.6988,-2.7484,-2.7093,-2.5577,-2.7001,-2.7553,-2.7036,-2.7892,-2.8374,-2.8418,-2.8418,-2.8457,-2.8535,-2.8535,-2.8965,-2.9726,-2.9726,-3.0176,-3.0898,-3.0898,-3.0898,-3.0898,-3.0898,-3.0898,-3.0898,-3.0898,-3.0816,-3.0689,-4.0957,-4.0371,-3.9844,-3.9648,-3.9043,-3.8535,-3.8359,-3.7734,-3.7226,-3.7031,-3.6426,-3.5996,-3.5996,-3.5215,-3.4629,-3.4434,-3.3633,-3.2793,-3.1973,-3.2109,-3.1816,-3.0937,-3.0898,-3.0898,-3.0898,-3.0898,-3.0898,-3.0898,-3.0898,-3.0898,-3.0898,-3.0898,-3.0898,-3.0898,-3.0898,-3.0898,-3.0898,-3.0898,-3.0898,-3.0898,-3.0898,-3.0898,-3.0879,-3.0684,-3.0195,-2.957,-2.9394,-2.8887,-2.8301,-2.8301,-2.7715,-2.6973,-2.6777,-2.625,-2.5703,-2.5703,-2.5703,-2.5859,-2.6523,-2.6855,-2.7168,-2.7851,-2.7871,-2.7793,-2.7988,-2.8027,-2.8262,-2.9141,-2.9316,-2.957,-3.0469,-3.0522,-3.0448,-3.0412,-3.037,-3.0058,-2.921,-2.9145,-2.8948,-2.8278,-2.8203,-2.8232,-2.8281,-2.8301,-2.8574,-2.9257,-2.8594,-2.8355,-2.8785,-2.7636,-2.7083,-2.7337,-2.7082,-2.7561,-2.8821,-2.9753,-2.9907,-2.9316,-2.9316,-2.9687,-3.0332,-3.0332,-3.0449,-3.0625,-3.0625,-3.0723,-3.0898,-3.0898,-3.0898,-3.0898,-3.0898,-3.0898,-3.0898,-3.0898,-3.0816,-3.0591,-4.1191,-4.082,-4.0527,-4.0527,-4.0137,-3.9707,-3.9277,-3.8476,-3.7773,-3.7344,-3.6543,-3.5996,-3.5996,-3.5586,-3.5156,-3.4746,-3.4277,-3.3672,-3.2832,-3.3164,-3.3008,-3.2129,-3.1719,-3.1523,-3.1523,-3.1113,-3.0898,-3.0898,-3.0898,-3.0898,-3.0898,-3.0898,-3.0898,-3.0898,-3.0898,-3.0898,-3.0898,-3.0898,-3.0898,-3.0898,-3.0898,-3.0898,-3.0898,-3.0898,-3.0625,-3.0215,-3.0215,-2.9922,-2.9473,-2.9062,-2.834,-2.7559,-2.7129,-2.6406,-2.5781,-2.6191,-2.6328,-2.6504,-2.7383,-2.793,-2.8359,-2.8809,-2.9238,-2.9434,-2.9004,-2.8926,-2.918,-3.0039,-3.0215,-3.0488,-3.1367,-3.1111,-3.0907,-3.1265,-3.0948,-3.0501,-3.0074,-3.0056,-2.9921,-2.9524,-2.9485,-2.9507,-2.9531,-2.9531,-2.9726,-3.0195,-2.9346,-2.9,-2.9371,-2.8445,-2.7694,-2.7299,-2.809,-2.8607,-2.879,-3.0505,-3.1182,-3.084,-3.123,-3.1445,-3.1523,-3.1523,-3.1523,-3.1504,-3.1074,-3.0898,-3.0898,-3.0898,-3.0898,-3.0898,-3.0898,-3.0898,-3.0898,-3.0898,-3.0816,-3.0519,-4.1367,-4.1406,-4.1445,-4.1601,-4.1504,-4.1152,-4.0449,-3.9473,-3.8555,-3.7832,-3.6992,-3.6445,-3.6445,-3.6309,-3.5937,-3.5215,-3.5019,-3.4551,-3.3672,-3.4297,-3.4316,-3.3437,-3.2754,-3.2344,-3.2207,-3.1484,-3.1055,-3.0898,-3.0898,-3.0898,-3.0898,-3.0898,-3.0898,-3.0898,-3.0898,-3.0898,-3.0898,-3.0898,-3.0898,-3.0898,-3.0898,-3.0898,-3.0898,-3.0898,-3.0898,-3.0898,-3.0898,-3.0898,-3.0781,-3.0078,-2.9238,-2.8398,-2.7676,-2.6855,-2.6289,-2.7012,-2.7226,-2.7402,-2.8281,-2.9043,-2.9668,-2.9961,-3.0488,-3.0742,-3.0176,-3.0039,-3.0254,-3.0976,-3.123,-3.1504,-3.209,-3.1719,-3.1483,-3.1958,-3.1544,-3.1153,-3.1153,-3.1153,-3.1142,-3.1133,-3.0996,-3.0898,-3.0878,-3.0898,-3.0898,-3.0898,-3.0034,-2.9482,-2.9428,-2.9169,-2.8361,-2.6891,-2.9113,-2.969,-2.8346,-3.0809,-3.2024,-3.1992,-3.3085,-3.3182,-3.2382,-3.2225,-3.2167,-3.2128,-3.1269,-3.0898,-3.0898,-3.0898,-3.0898,-3.0898,-3.0898,-3.0898,-3.0898,-3.0898,-3.0836,-3.0512,-4.207,-4.2187,-4.2402,-4.3223,-4.2734,-4.2207,-4.207,-4.0723,-3.9687,-3.9551,-3.8789,-3.8242,-3.8242,-3.7578,-3.707,-3.6953,-3.6269,-3.5449,-3.457,-3.4629,-3.4316,-3.3437,-3.3301,-3.291,-3.2226,-3.207,-3.1641,-3.0898,-3.0898,-3.0898,-3.0898,-3.0898,-3.0898,-3.0898,-3.0898,-3.0898,-3.0898,-3.0898,-3.0898,-3.0898,-3.0898,-3.0898,-3.0898,-3.0898,-3.0898,-3.0898,-3.0898,-3.0898,-3.0879,-3.0762,-3.0137,-2.9394,-2.9297,-2.8652,-2.7969,-2.8086,-2.8125,-2.8301,-2.9199,-2.9512,-2.9961,-3.1465,-3.1367,-3.1074,-3.1699,-3.1855,-3.1875,-3.1992,-3.2578,-3.2891,-3.2305,-3.2676,-3.2871,-3.2265,-3.2656,-3.3027,-3.3027,-3.3027,-3.2773,-3.2109,-3.1367,-3.0858,-3.0744,-3.0837,-3.0898,-3.0898,-3.0078,-2.9566,-2.9485,-2.8754,-2.8205,-2.7915,-2.9022,-2.9536,-2.9309,-3.1206,-3.1797,-3.1094,-3.3365,-3.3996,-3.3135,-3.2373,-3.202,-3.1984,-3.1228,-3.0898,-3.0898,-3.0898,-3.0898,-3.0898,-3.0898,-3.0898,-3.0898,-3.0898,-3.0898,-3.0722,-4.2988,-4.3047,-4.3125,-4.3476,-4.3281,-4.291,-4.2422,-4.1308,-4.0371,-3.9941,-3.9141,-3.8594,-3.8594,-3.8262,-3.7832,-3.7344,-3.6953,-3.6562,-3.6172,-3.5703,-3.5254,-3.4863,-3.4394,-3.3965,-3.3594,-3.2676,-3.2012,-3.1621,-3.1133,-3.0898,-3.0898,-3.0898,-3.0898,-3.0898,-3.0898,-3.0898,-3.0898,-3.0898,-3.0898,-3.0898,-3.0898,-3.0898,-3.0898,-3.0898,-3.0898,-3.0898,-3.0898,-3.0898,-3.0898,-3.0898,-3.0312,-2.9609,-2.9609,-2.9004,-2.8398,-2.8887,-2.9023,-2.9219,-3.0098,-3.0684,-3.123,-3.2012,-3.2246,-3.2402,-3.2773,-3.3242,-3.332,-3.2383,-3.2832,-3.3437,-3.3574,-3.3496,-3.3437,-3.3574,-3.3496,-3.3398,-3.3398,-3.3398,-3.3262,-3.291,-3.1699,-3.1074,-3.1499,-3.1151,-3.0898,-3.0898,-3.0547,-3.0271,-3.0173,-2.9819,-2.9352,-2.8832,-2.9702,-3.0191,-3.0234,-3.1541,-3.2226,-3.2305,-3.3361,-3.3422,-3.2586,-3.2679,-3.2464,-3.1962,-3.1228,-3.0898,-3.0898,-3.0898,-3.0898,-3.0898,-3.0898,-3.0898,-3.084,-3.0351,-3.0488,-3.0644]},{"header":{"parameterUnit":"m.s-1","parameterCategory":1,"la1":30.6,"la2":28.766,"lo1":-90.7593,"lo2":-88.6598,"dy":0.0162,"dx":0.0183,"nx":116,"ny":114,"refTime":"2023-09-02T12:00:00:Z","depth":0,"parameterNumber":3,"parameterNumberName":"V-component_of_WINDS"},"data":[0.0,0.0,0.0,0.0,0.0,0.0,0.0,0.0,0.0,0.0,0.0,0.0,0.0,0.0,0.0,0.0,0.0,0.0,0.0,0.0,0.0,0.0,0.0,0.0,0.0,0.0,0.0,0.0,0.0,0.0,0.0,0.0,0.0,0.0,0.0,0.0,0.0,0.0,0.0,0.0,0.0,0.0,0.0,0.0,0.0,0.0,0.0,0.0,0.0,0.0,0.0,0.0,0.0,0.0,0.0,0.0,0.0,0.0,0.0,0.0,0.0,0.0,0.0,0.0,0.0,0.0,0.0,0.0,0.0,0.0,0.0,0.0,0.0,0.0,0.0,0.0,0.0,0.0,0.0,0.0,0.0,0.0,0.0,0.0,0.0,0.0,0.0,0.0,0.0,0.0,0.0,0.0,0.0,0.0,0.0,0.0,0.0,0.0,0.0,0.0,0.0,0.0,0.0,0.0,0.0,0.0,0.0,0.0,0.0,0.0,0.0,0.0,0.0,0.0,0.0,0.0,0.0,0.0,0.0,0.0,0.0,0.0,0.0,0.0,0.0,0.0,0.0,0.0,0.0,0.0,0.0,0.0,0.0,0.0,0.0,0.0,0.0,0.0,0.0,0.0,0.0,0.0,0.0,0.0,0.0,0.0,0.0,0.0,0.0,0.0,0.0,0.0,0.0,0.0,0.0,0.0,0.0,0.0,0.0,0.0,0.0,0.0,0.0,0.0,0.0,0.0,0.0,0.0,0.0,0.0,0.0,0.0,0.0,0.0,0.0,0.0,0.0,0.0,0.0,0.0,0.0,0.0,0.0,0.0,0.0,0.0,0.0,0.0,0.0,0.0,0.0,0.0,0.0,0.0,0.0,0.0,0.0,0.0,0.0,0.0,0.0,0.0,0.0,0.0,0.0,0.0,0.0,0.0,0.0,0.0,0.0,0.0,0.0,0.0,0.0,0.0,0.0,0.0,0.0,0.0,0.0,0.0,0.0,0.0,0.0,0.0,0.0,0.0,0.0,0.0,0.0,0.0,0.0,0.0,0.0,0.0,0.0,0.0,0.0,0.0,0.0,0.0,0.0,0.0,0.0,0.0,0.0,0.0,0.0,0.0,0.0,0.0,0.0,0.0,0.0,0.0,0.0,0.0,0.0,0.0,0.0,0.0,0.0,0.0,0.0,0.0,0.0,0.0,0.0,0.0,0.0,0.0,0.0,0.0,0.0,0.0,0.0,0.0,0.0,0.0,0.0,0.0,0.0,0.0,0.0,0.0,0.0,0.0,0.0,0.0,0.0,0.0,0.0,0.0,0.0,0.0,0.0,0.0,0.0,0.0,0.0,0.0,0.0,0.0,0.0,0.0,0.0,0.0,0.0,0.0,0.0,0.0,0.0,0.0,0.0,0.0,0.0,0.0,0.0,0.0,0.0,0.0,0.0,0.0,0.0,0.0,0.0,0.0,0.0,0.0,0.0,0.0,0.0,0.0,0.0,0.0,0.0,0.0,0.0,0.0,0.0,0.0,0.0,0.0,0.0,0.0,0.0,0.0,0.0,0.0,0.0,0.0,0.0,0.0,0.0,0.0,0.0,0.0,0.0,0.0,0.0,0.0,0.0,0.0,0.0,0.0,0.0,0.0,0.0,0.0,0.0,0.0,0.0,0.0,0.0,0.0,0.0,0.0,0.0,0.0,0.0,0.0,0.0,0.0,0.0,0.0,0.0,0.0,0.0,0.0,0.0,0.0,0.0,0.0,0.0,0.0,0.0,0.0,0.0,0.0,0.0,0.0,0.0,0.0,0.0,0.0,0.0,0.0,0.0,0.0,0.0,0.0,0.0,0.0,0.0,0.0,0.0,0.0,0.0,0.0,0.0,0.0,0.0,0.0,0.0,0.0,0.0,0.0,0.0,0.0,0.0,0.0,0.0,0.0,0.0,0.0,0.0,0.0,0.0,0.0,0.0,0.0,0.0,0.0,0.0,0.0,0.0,0.0,0.0,0.0,0.0,0.0,0.0,0.0,0.0,0.0,0.0,0.0,0.0,0.0,0.0,0.0,0.0,0.0,0.0,0.0,0.0,0.0,0.0,0.0,0.0,0.0,0.0,0.0,0.0,0.0,0.0,0.0,0.0,0.0,0.0,0.0,0.0,0.0,0.0,0.0,0.0,0.0,0.0,0.0,0.0,0.0,0.0,0.0,0.0,0.0,0.0,0.0,0.0,0.0,0.0,0.0,0.0,0.0,0.0,0.0,0.0,0.0,0.0,0.0,0.0,0.0,0.0,0.0,0.0,0.0,0.0,0.0,0.0,0.0,0.0,0.0,0.0,0.0,0.0,0.0,0.0,0.0,0.0,0.0,0.0,0.0,0.0,0.0,0.0,0.0,0.0,0.0,0.0,0.0,0.0,0.0,0.0,0.0,0.0,0.0,0.0,0.0,0.0,0.0,0.0,0.0,0.0,0.0,0.0,0.0,0.0,0.0,0.0,0.0,0.0,0.0,0.0,0.0,0.0,0.0,0.0,0.0,0.0,0.0,0.0,0.0,0.0,0.0,0.0,0.0,0.0,0.0,0.0,0.0,0.0,0.0,0.0,0.0,0.0,0.0,0.0,0.0,0.0,0.0,0.0,0.0,0.0,0.0,0.0,0.0,0.0,0.0,0.0,0.0,0.0,0.0,0.0,0.0,0.0,0.0,0.0,0.0,0.0,0.0,0.0,0.0,0.0,0.0,0.0,0.0,0.0,0.0,0.0,0.0,0.0,0.0,0.0,0.0,0.0,0.0,0.0,0.0,0.0,0.0,0.0,0.0,0.0,0.0,0.0,0.0,0.0,0.0,0.0,0.0,0.0,0.0,0.0,0.0,0.0,0.0,0.0,0.0,0.0,0.0,0.0,0.0,0.0,0.0,0.0,0.0,0.0,0.0,0.0,0.0,0.0,0.0,0.0,0.0,0.0,0.0,0.0,0.0,0.0,0.0,0.0,0.0,0.0,0.0,0.0,0.0,0.0,0.0,0.0,0.0,0.0,0.0,0.0,0.0,0.0,0.0,0.0,0.0,0.0,0.0,0.0,0.0,0.0,0.0,0.0,0.0,0.0,0.0,0.0,0.0,0.0,0.0,0.0,0.0,0.0,0.0,0.0,0.0,0.0,0.0,0.0,0.0,0.0,0.0,0.0,0.0,0.0,0.0,0.0,0.0,0.0,0.0,0.0,0.0,0.0,0.0,0.0,0.0,0.0,0.0,0.0,0.0,0.0,0.0,0.0,0.0,0.0,0.0,0.0,0.0,0.0,0.0,0.0,0.0,0.0,0.0,0.0,0.0,0.0,0.0,0.0,0.0,0.0,0.0,0.0,0.0,0.0,0.0,0.0,0.0,0.0,0.0,0.0,0.0,0.0,0.0,0.0,0.0,0.0,0.0,0.0,0.0,0.0,0.0,0.0,0.0,0.0,0.0,0.0,0.0,0.0,0.0,0.0,0.0,0.0,0.0,0.0,0.0,0.0,0.0,0.0,0.0,0.0,0.0,0.0,0.0,0.0,0.0,0.0,0.0,0.0,0.0,0.0,0.0,0.0,0.0,0.0,0.0,0.0,0.0,0.0,0.0,0.0,0.0,0.0,0.0,0.0,0.0,0.0,0.0,0.0,0.0,0.0,0.0,0.0,0.0,0.0,0.0,0.0,0.0,0.0,0.0,0.0,0.0,0.0,0.0,0.0,0.0,0.0,0.0,0.0,0.0,0.0,0.0,0.0,0.0,0.0,0.0,0.0,0.0,0.0,0.0,0.0,0.0,0.0,0.0,0.0,0.0,0.0,0.0,0.0,0.0,0.0,0.0,0.0,0.0,0.0,0.0,0.0,0.0,0.0,0.0,0.0,0.0,0.0,0.0,0.0,0.0,0.0,0.0,0.0,0.0,0.0,0.0,0.0,0.0,0.0,0.0,0.0,0.0,0.0,0.0,0.0,0.0,0.0,0.0,0.0,0.0,0.0,0.0,0.0,0.0,0.0,0.0,0.0,0.0,0.0,0.0,0.0,0.0,0.0,0.0,0.0,0.0,0.0,0.0,0.0,0.0,0.0,0.0,0.0,0.0,0.0,0.0,0.0,0.0,0.0,0.0,0.0,0.0,0.0,0.0,0.0,0.0,0.0,0.0,0.0,0.0,0.0,0.0,0.0,0.0,0.0,0.0,0.0,0.0,0.0,0.0,0.0,0.0,0.0,0.0,0.0,0.0,0.0,0.0,0.0,0.0,0.0,0.0,0.0,0.0,0.0,0.0,0.0,0.0,0.0,0.0,0.0,0.0,0.0,0.0,0.0,0.0,0.0,0.0,0.0,0.0,0.0,0.0,0.0,0.0,0.0,0.0,0.0,0.0,0.0,0.0,0.0,0.0,0.0,0.0,0.0,0.0,0.0,0.0,0.0,0.0,0.0,0.0,0.0,0.0,0.0,0.0,0.0,0.0,0.0,0.0,0.0,0.0,0.0,0.0,0.0,0.0,0.0,0.0,0.0,0.0,0.0,0.0,0.0,0.0,0.0,0.0,0.0,0.0,0.0,0.0,0.0,0.0,0.0,0.0,0.0,0.0,0.0,0.0,0.0,0.0,0.0,0.0,0.0,0.0,0.0,0.0,0.0,0.0,0.0,0.0,0.0,0.0,0.0,0.0,0.0,0.0,0.0,0.0,0.0,0.0,0.0,0.0,0.0,0.0,0.0,0.0,0.0,0.0,0.0,0.0,0.0,0.0,0.0,0.0,0.0,0.0,0.0,0.0,0.0,0.0,0.0,0.0,0.0,0.0,0.0,0.0,0.0,0.0,0.0,0.0,0.0,0.0,0.0,0.0,0.0,0.0,0.0,0.0,0.0,0.0,0.0,0.0,0.0,0.0,0.0,0.0,0.0,0.0,0.0,0.0,0.0,0.0,0.0,0.0,0.0,0.0,0.0,0.0,0.0,0.0,0.0,0.0,0.0,0.0,0.0,0.0,0.0,0.0,0.0,0.0,0.0,0.0,0.0,0.0,0.0,0.0,0.0,0.0,0.0,0.0,0.0,0.0,0.0,0.0,0.0,0.0,0.0,0.0,0.0,0.0,0.0,0.0,0.0,0.0,0.0,0.0,0.0,0.0,0.0,0.0,0.0,0.0,0.0,0.0,0.0,0.0,0.0,0.0,0.0,0.0,0.0,0.0,0.0,0.0,0.0,0.0,0.0,0.0,0.0,0.0,0.0,0.0,0.0,0.0,0.0,0.0,0.0,0.0,0.0,0.0,0.0,0.0,0.0,0.0,0.0,0.0,0.0,0.0,0.0,0.0,0.0,0.0,0.0,0.0,0.0,0.0,0.0,0.0,0.0,0.0,0.0,0.0,0.0,0.0,0.0,0.0,0.0,0.0,0.0,0.0,0.0,0.0,0.0,0.0,0.0,0.0,0.0,0.0,0.0,0.0,0.0,0.0,0.0,0.0,0.0,0.0,0.0,0.0,0.0,0.0,0.0,0.0,0.0,0.0,0.0,0.0,0.0,0.0,0.0,0.0,0.0,0.0,0.0,0.0,0.0,0.0,0.0,0.0,0.0,0.0,0.0,0.0,0.0,0.0,0.0,0.0,0.0,0.0,0.0,0.0,0.0,0.0,0.0,0.0,0.0,0.0,0.0,0.0,0.0,0.0,0.0,0.0,0.0,0.0,0.0,0.0,0.0,0.0,0.0,0.0,0.0,0.0,0.0,0.0,0.0,0.0,0.0,0.0,0.0,0.0,0.0,0.0,0.0,0.0,0.0,0.0,0.0,0.0,0.0,0.0,0.0,0.0,0.0,0.0,0.0,0.0,0.0,0.0,0.0,0.0,0.0,0.0,0.0,0.0,0.0,0.0,0.0,0.0,0.0,0.0,0.0,0.0,0.0,0.0,0.0,0.0,0.0,0.0,0.0,0.0,0.0,0.0,0.0,0.0,0.0,0.0,0.0,0.0,0.0,0.0,0.0,0.0,0.0,0.0,0.0,0.0,0.0,0.0,0.0,0.0,0.0,0.0,0.0,0.0,0.0,0.0,0.0,0.0,0.0,0.0,0.0,0.0,0.0,0.0,0.0,0.0,0.0,0.0,0.0,0.0,0.0,0.0,2.3927,2.444,0.0,0.0,0.0,0.0,0.0,0.0,0.0,0.0,0.0,0.0,0.0,0.0,0.0,0.0,0.0,0.0,0.0,0.0,0.0,0.0,0.0,0.0,0.0,0.0,0.0,0.0,0.0,0.0,0.0,0.0,0.0,0.0,0.0,0.0,0.0,0.0,0.0,0.0,1.4406,1.3795,1.2636,1.4355,1.5897,1.7316,0.0,0.0,0.0,0.0,0.0,0.0,0.0,0.0,0.0,0.0,0.0,0.0,0.0,0.0,0.0,0.0,0.0,0.0,0.0,0.0,0.0,0.0,0.0,0.0,0.0,0.0,0.0,0.0,0.0,0.0,0.0,0.0,0.0,0.0,0.0,0.0,0.0,0.0,0.0,0.0,0.0,0.0,0.0,0.0,0.0,0.0,0.0,0.0,0.0,0.0,0.0,0.0,0.0,0.0,0.0,0.0,0.0,0.0,0.0,0.0,0.0,0.0,0.0,0.0,0.0,0.0,0.0,0.0,0.0,0.0,2.4013,2.3964,0.0,0.0,0.0,0.0,0.0,0.0,0.0,0.0,0.0,0.0,0.0,0.0,0.0,0.0,0.0,0.0,0.0,0.0,0.0,0.0,0.0,0.0,0.0,0.0,0.9606,0.9782,0.9643,0.9603,0.0,0.0,0.0,0.0,0.0,0.0,0.0,1.3165,1.3993,1.4743,1.3628,1.2949,1.2685,1.4205,1.5529,1.6721,1.8886,0.0,0.0,0.0,0.0,0.0,0.0,0.0,0.0,0.0,0.0,0.0,0.0,0.0,0.0,0.0,0.0,0.0,0.0,0.0,0.0,0.0,0.0,0.0,0.0,0.0,0.0,0.0,0.0,0.0,0.0,0.0,0.0,0.0,0.0,0.0,0.0,0.0,0.0,0.0,0.0,0.0,0.0,0.0,0.0,0.0,0.0,0.0,0.0,0.0,0.0,0.0,0.0,0.0,0.0,0.0,0.0,0.0,0.0,0.0,0.0,0.0,0.0,0.0,2.579,2.5933,2.6062,2.5822,2.5428,2.4845,2.4285,2.3588,2.2914,2.434,0.0,0.0,0.0,0.0,0.0,0.0,0.0,0.0,0.0,0.0,0.0,0.0,0.0,0.0,0.0,0.0,0.0,0.0,0.0,0.0,0.0,0.9732,0.9713,0.9801,0.977,0.9795,0.0,0.0,0.0,0.0,0.0,0.0,1.238,1.3238,1.369,1.3709,1.1948,1.1836,1.3297,1.4158,1.5513,1.7212,1.7783,1.8875,2.0253,0.0,0.0,0.0,0.0,0.0,0.0,0.0,0.0,0.0,0.0,0.0,0.0,0.0,0.0,0.0,0.0,0.0,0.0,0.0,0.0,0.0,0.0,0.0,0.0,0.0,0.0,0.0,0.0,0.0,0.0,0.0,0.0,0.0,0.0,0.0,0.0,0.0,0.0,0.0,0.0,0.0,2.1476,2.1476,0.0,0.0,0.0,0.0,0.0,0.0,0.0,0.0,0.0,0.0,0.0,0.0,0.0,2.6839,2.7233,2.7828,2.8093,2.8052,2.8115,2.8508,2.9069,2.7686,2.7368,2.7808,2.5632,0.0,2.3662,2.4068,0.0,0.0,0.0,0.0,0.0,0.0,0.0,0.0,0.0,0.0,0.0,0.0,0.0,0.0,0.0,0.0,0.0,0.0,0.0,0.0,0.0,0.9666,0.9645,0.9792,1.0593,1.0772,1.0007,1.0799,0.0,0.0,0.0,1.2031,1.2398,1.3187,1.3245,1.2544,1.1719,1.1889,1.2974,1.3901,1.4989,1.6202,1.7098,1.8213,1.9439,1.9235,0.0,0.0,0.0,0.0,0.0,0.0,0.0,0.0,0.0,0.0,0.0,0.0,0.0,0.0,0.0,0.0,0.0,0.0,0.0,0.0,0.0,0.0,0.0,0.0,0.0,0.0,0.0,0.0,0.0,0.0,0.0,0.0,0.0,0.0,0.0,0.0,0.0,0.0,0.0,2.272,2.2677,2.2149,2.3047,2.3821,0.0,0.0,0.0,0.0,0.0,0.0,0.0,0.0,0.0,2.7363,2.8092,2.8549,2.8715,2.9019,2.9161,2.9116,2.9142,2.9096,2.8938,2.8236,2.7865,2.7721,2.6628,2.5735,2.5009,2.4645,2.442,2.4345,0.0,0.0,0.0,0.0,2.5052,2.5304,0.0,0.0,0.0,0.0,0.0,0.0,0.0,0.0,0.0,0.0,0.0,0.0,0.9945,0.967,0.9692,1.0282,1.1201,1.1405,1.0633,1.1323,0.0,0.0,0.0,1.2329,1.2329,1.2952,1.2866,1.1971,1.2133,1.2648,1.3489,1.4549,1.5472,1.629,1.7616,1.8521,1.9106,1.91,1.9101,1.9126,0.0,0.0,0.0,0.0,0.0,0.0,0.0,0.0,0.0,0.0,0.0,0.0,0.0,0.0,0.0,0.0,0.0,0.0,0.0,0.0,0.0,0.0,0.0,0.0,0.0,0.0,0.0,0.0,0.0,0.0,0.0,0.0,0.0,0.0,0.0,0.0,0.0,2.298,2.2988,2.2253,2.2945,2.3658,0.0,0.0,0.0,0.0,0.0,0.0,2.6877,2.7388,2.8082,2.8998,2.9702,3.0092,3.0161,3.0199,3.0209,3.0209,3.0097,2.9731,2.9167,2.9054,2.8583,2.7792,2.7373,2.6887,2.6294,2.522,2.451,2.4142,2.4598,2.4994,2.5284,2.5126,2.52,2.5325,0.0,0.0,0.0,0.0,0.0,0.0,0.0,0.0,0.0,0.0,0.0,0.9056,1.0327,0.978,0.9973,1.1643,1.118,1.1165,1.2121,1.0822,1.0335,1.1007,1.1723,1.2118,1.211,1.2532,1.2656,1.2467,1.304,1.4178,1.5845,1.687,1.7851,1.8865,2.0081,2.0376,1.9905,1.9348,1.9094,1.9177,2.0,0.0,0.0,0.0,0.0,0.0,0.0,0.0,0.0,0.0,0.0,0.0,0.0,0.0,0.0,0.0,0.0,0.0,0.0,0.0,0.0,0.0,0.0,0.0,0.0,0.0,0.0,0.0,0.0,0.0,0.0,0.0,0.0,0.0,0.0,0.0,0.0,0.0,0.0,2.0723,2.1863,0.0,0.0,0.0,0.0,2.6979,2.7606,2.8287,2.9096,2.8997,2.9392,3.0466,3.1018,3.1419,3.1693,3.1816,3.1888,3.1855,3.1436,3.1231,3.124,3.0837,3.0229,2.9396,2.7851,2.7295,2.7281,2.5456,2.4805,2.4877,2.4146,2.4457,2.5212,2.446,2.4653,2.5164,0.0,0.0,0.0,0.0,0.0,0.0,0.0,0.0,0.9887,0.9663,0.9162,0.9165,1.0082,0.984,1.0138,1.1399,1.176,1.1697,1.1178,1.1177,1.1051,1.0792,1.1506,1.2055,1.2357,1.25,1.2738,1.3077,1.3769,1.5152,1.7174,1.7701,1.8653,1.9924,2.0614,2.0812,2.0638,2.0555,2.0217,1.9688,1.9044,1.9023,0.0,0.0,0.0,0.0,0.0,0.0,0.0,0.0,0.0,0.0,0.0,0.0,0.0,0.0,0.0,0.0,0.0,0.0,0.0,0.0,0.0,0.0,0.0,0.0,0.0,0.0,0.0,0.0,0.0,0.0,0.0,0.0,0.0,0.0,0.0,0.0,0.0,2.378,2.4404,0.0,2.598,2.6695,2.7321,2.7875,2.8105,2.8699,2.9812,3.0294,3.0956,3.1863,3.2573,3.2978,3.3093,3.3135,3.3033,3.2769,3.2616,3.2114,3.1331,3.1191,3.0416,2.9166,2.8599,2.7835,2.6939,2.6255,2.6001,2.5997,2.5708,2.5974,2.6436,2.5722,2.592,2.6341,0.0,0.0,0.0,0.0,0.0,0.0,0.0,0.0,0.9675,0.913,0.8779,0.8878,0.9737,0.9819,1.0286,1.15,1.1695,1.1576,1.1163,1.0957,1.0926,1.1075,1.1594,1.2031,1.2339,1.29,1.3478,1.4133,1.4764,1.6078,1.7969,1.8127,1.8823,1.9983,2.0622,2.0912,2.0943,2.158,2.1098,1.985,1.9283,1.9559,2.0152,0.0,0.0,0.0,0.0,0.0,0.0,0.0,0.0,0.0,0.0,0.0,0.0,0.0,0.0,0.0,0.0,0.0,0.0,0.0,0.0,0.0,0.0,0.0,0.0,0.0,0.0,0.0,0.0,0.0,0.0,0.0,0.0,0.0,0.0,2.3401,2.381,2.5444,2.594,2.6533,2.744,2.7912,2.8433,2.9089,2.9386,3.0079,3.1341,3.1916,3.2449,3.2986,3.3532,3.3807,3.3807,3.3666,3.3447,3.3199,3.2887,3.2157,3.1088,3.1072,3.0229,2.8789,2.8789,2.8087,2.6897,2.6766,2.6752,2.6802,2.6593,2.6702,2.6925,2.6355,2.6594,2.7005,0.0,0.0,0.0,0.0,0.0,0.0,0.0,0.9911,0.9407,0.8335,0.7913,0.8171,0.9364,0.967,1.0437,1.2045,1.0879,1.0681,1.2207,1.0096,0.9738,1.1895,1.2062,1.2064,1.2058,1.3663,1.4864,1.5599,1.6028,1.6928,1.8284,1.8218,1.8519,1.9151,2.02,2.0676,2.0783,2.2237,2.1601,1.9695,2.0838,2.0936,2.0417,0.0,0.0,0.0,0.0,0.0,0.0,0.0,0.0,0.0,0.0,0.0,0.0,0.0,0.0,0.0,0.0,0.0,0.0,0.0,0.0,0.0,0.0,0.0,0.0,0.0,0.0,0.0,0.0,0.0,0.0,0.0,0.0,0.0,2.2249,2.3613,2.4829,2.5393,2.6269,2.6961,2.7319,2.8072,2.9152,3.0715,3.1542,3.252,3.3711,3.3775,3.3793,3.3807,3.3807,3.3807,3.3807,3.3404,3.3214,3.3199,3.2281,3.1462,3.0734,3.0647,2.9816,2.8451,2.8399,2.7983,2.7274,2.6874,2.6923,2.7207,2.6561,2.6423,2.6571,2.6141,2.6467,2.6926,0.0,0.0,0.0,0.0,0.0,0.0,0.0,0.9695,0.9087,0.8107,0.7987,0.8338,0.9251,0.9399,1.0062,1.1629,1.003,0.9326,1.0239,0.9183,0.9447,1.1543,1.1665,1.2124,1.3138,1.4094,1.4923,1.5665,1.6322,1.712,1.8001,1.7985,1.8401,1.9201,1.9894,2.0247,2.04,2.1431,2.1777,2.1562,2.1127,2.0954,2.0924,0.0,0.0,0.0,0.0,0.0,0.0,0.0,0.0,0.0,0.0,0.0,0.0,0.0,0.0,0.0,0.0,0.0,0.0,0.0,0.0,0.0,0.0,0.0,0.0,0.0,0.0,0.0,0.0,0.0,0.0,0.0,2.2622,2.3093,2.3903,2.4481,2.5817,2.8537,2.9115,2.9721,3.0781,3.1094,3.1306,3.1515,3.1723,3.2286,3.3299,3.3361,3.3508,3.3775,3.3807,3.3807,3.3807,3.3694,3.3494,3.3199,3.2934,3.2343,3.1478,3.0924,3.0281,2.9563,2.844,2.7845,2.7607,2.6962,2.6573,2.6369,2.6416,2.6673,2.6857,2.5897,2.5343,2.4974,0.0,0.0,0.0,0.0,0.0,0.0,0.0,0.9667,0.8962,0.7654,0.7918,0.8241,0.8293,0.8641,0.9222,1.0065,0.8959,0.8409,0.8875,0.9218,0.994,1.115,1.1571,1.2317,1.3457,1.4252,1.4912,1.5492,1.6028,1.6563,1.7098,1.6952,1.7422,1.8418,1.8736,1.9165,1.9715,2.0687,2.1486,2.2124,2.196,2.2156,2.2446,2.1585,2.1504,2.1862,2.1992,2.1596,2.0802,1.9262,0.0,0.0,0.0,0.0,0.0,0.0,0.0,0.0,0.0,0.0,0.0,0.0,0.0,0.0,0.0,0.0,0.0,0.0,0.0,0.0,0.0,0.0,0.0,0.0,2.2858,2.3991,2.5279,2.5754,2.6967,2.9582,3.0391,3.1026,3.1813,3.215,3.2154,3.1822,3.2118,3.2477,3.2892,3.309,3.3302,3.3536,3.3707,3.3807,3.3807,3.3807,3.3694,3.3451,3.3075,3.2454,3.1602,3.0801,3.0149,2.9567,2.8331,2.7807,2.7739,2.6996,2.6556,0.0,0.0,0.0,0.0,0.0,2.459,2.3486,0.0,0.0,0.0,0.0,0.0,0.0,0.0,0.9768,0.8951,0.7158,0.7733,0.7923,0.6927,0.7564,0.8059,0.8088,0.7826,0.7793,0.8114,0.9649,1.0629,1.0798,1.1673,1.2504,1.323,1.4135,1.4766,1.508,1.5313,1.5566,1.5835,1.5593,1.6059,1.7098,1.7223,1.7805,1.8789,1.9851,2.0849,2.1754,2.2811,2.3606,2.4084,2.3151,2.3198,2.3671,2.3155,2.1963,2.0487,1.9425,0.0,0.0,0.0,0.0,0.0,0.0,0.0,0.0,0.0,0.0,0.0,0.0,0.0,0.0,0.0,0.0,0.0,0.0,0.0,0.0,0.0,0.0,0.0,0.0,2.3282,2.4757,2.6332,2.721,2.8235,2.967,3.0734,3.1334,3.1319,3.2005,3.2255,3.1777,3.2474,3.2802,3.2577,3.2862,0.0,0.0,0.0,3.3734,3.3734,3.3734,3.3734,3.3721,3.2903,3.2129,3.1425,3.0555,2.9826,2.9196,2.8332,2.7942,2.7874,2.7131,2.6708,2.6522,2.6404,2.5975,2.5422,2.5177,2.3969,2.2406,0.0,0.0,0.0,0.0,0.0,0.0,0.0,0.9721,0.892,0.7284,0.7414,0.7335,0.6432,0.6447,0.693,0.7931,0.7238,0.72,0.827,0.8729,0.9497,1.0753,1.1488,1.2203,1.2875,1.3594,1.4092,1.4322,1.4355,1.4542,1.4794,1.5164,1.5525,1.588,1.6763,1.7308,1.7666,1.875,1.9808,2.0837,2.174,2.2451,2.3008,2.3705,2.3244,2.2331,2.3174,2.2877,2.1957,2.1038,2.0513,1.9844,1.7553,1.7152,0.0,0.0,0.0,0.0,0.0,0.0,0.0,0.0,0.0,0.0,0.0,0.0,0.0,0.0,0.0,0.0,0.0,0.0,0.0,2.262,2.3642,2.4829,2.6645,2.8083,2.9692,3.1755,3.1737,3.1514,3.1485,3.2564,3.2768,3.1574,3.2056,3.2586,3.2906,3.237,3.2247,3.2632,3.3075,3.3317,3.3317,3.3317,3.3317,3.3302,3.2761,0.0,3.169,3.0923,3.0652,3.07,2.9365,2.8773,2.8722,2.7908,2.676,2.5505,2.5454,2.4574,2.3295,2.3251,2.2644,2.1735,0.0,0.0,0.0,0.0,0.0,0.0,0.0,0.9874,0.9244,0.797,0.7737,0.7494,0.6957,0.6425,0.6453,0.7327,0.6789,0.707,0.8641,0.8913,0.9689,1.1231,1.1625,1.2115,1.2786,1.3451,1.3632,1.3305,1.398,1.4137,1.3865,1.4427,1.4881,1.5241,1.6049,1.6731,1.7366,1.8242,1.9421,2.0745,2.1027,2.1806,2.2904,2.3761,2.3601,2.2938,2.3231,2.2937,2.2204,2.0936,2.0207,1.9502,1.756,1.7238,1.7449,0.0,0.0,0.0,0.0,0.0,0.0,0.0,0.0,0.0,0.0,0.0,0.0,0.0,0.0,2.144,2.2213,0.0,2.2181,2.3351,2.445,2.5558,2.6772,2.8221,2.973,3.1275,3.1491,3.1498,3.1457,3.2392,3.2704,3.1945,3.1891,3.1988,3.2185,3.1662,3.1464,3.1685,3.2448,3.3037,3.3396,3.3037,3.3037,3.338,3.256,3.183,3.1236,3.0658,3.0488,3.0581,2.9484,2.9213,2.9482,2.8721,2.7731,2.6672,2.6378,2.4978,2.312,2.2808,2.2272,2.1519,0.0,0.0,0.0,0.0,0.0,0.0,0.0,1.0033,0.9545,0.8449,0.8143,0.7819,0.7331,0.6648,0.6421,0.6883,0.661,0.7185,0.8981,0.9318,1.0093,1.154,1.173,1.2044,1.2594,1.3136,1.3105,1.2498,1.357,1.3792,1.3223,1.3916,1.4488,1.4941,1.5567,1.6332,1.7186,1.7821,1.905,2.0536,2.0421,2.1363,2.2836,2.3192,2.3507,2.3666,2.3001,2.2271,2.1412,1.9951,1.8994,1.8166,1.6715,1.6922,1.7667,1.7544,1.6831,0.0,0.0,0.0,0.0,0.0,0.0,0.0,0.0,1.8111,1.9205,2.0627,2.122,2.1788,2.2759,2.3127,2.3469,2.4054,2.5171,2.6188,2.6732,2.7843,2.8854,2.9551,3.0434,3.1002,3.1056,3.182,3.2245,3.2064,3.183,3.1676,3.163,3.1087,3.0864,3.0998,3.1796,3.2634,3.3493,3.288,3.2967,3.3688,3.2608,3.1817,3.1214,3.0741,3.0474,3.0308,2.9305,2.9197,2.9699,2.9227,2.8632,2.8017,2.7931,2.6351,2.4073,2.3196,2.2462,2.1689,0.0,0.0,0.0,0.0,0.0,0.0,0.0,0.0,0.9485,0.7831,0.8093,0.7828,0.6262,0.6477,0.6884,0.7294,0.7025,0.7476,0.9009,0.9192,0.9744,1.0862,1.148,1.1835,1.191,1.1984,1.218,1.2498,1.2648,1.2887,1.3223,1.4318,1.4833,1.4934,1.5957,1.648,1.6616,1.7183,1.8139,1.9349,1.9792,2.082,2.2045,2.1456,2.1919,2.2737,2.1821,2.0536,1.9186,1.8504,1.8227,1.7906,1.6546,1.7165,1.8282,1.7749,1.6969,1.6749,1.8949,1.7904,1.6505,1.778,1.7333,1.7305,0.0,2.0498,2.0625,2.1842,2.2155,2.2365,2.2978,2.3526,2.4066,2.4632,2.5224,2.5866,2.6447,2.6882,2.7181,2.7277,2.8605,2.9606,2.9783,3.0948,3.1452,3.0836,3.1781,3.2389,3.2383,3.1172,3.073,3.1333,3.1243,3.1775,3.3066,3.2998,3.3311,3.4044,3.3481,3.3185,3.3079,3.243,3.1825,3.1158,2.921,2.8421,2.8528,2.8985,2.8474,2.7568,2.9286,2.8394,2.5959,2.4152,2.3062,2.2247,0.0,0.0,0.0,0.0,0.0,0.0,0.0,0.0,0.0,0.0,0.8808,0.8538,0.8197,0.7972,0.7824,0.7754,0.7343,0.7714,0.9233,0.9246,0.9853,1.132,1.1655,1.1805,1.1805,1.2568,1.2814,1.2498,1.3281,1.3507,1.3223,1.4381,1.4896,1.4947,1.6019,1.65,1.6531,1.7076,1.8003,1.912,1.9264,2.0128,2.1229,2.0114,1.9747,1.9837,1.9709,1.92,0.0,1.7166,1.678,1.6639,1.5696,1.6125,1.707,1.748,1.7456,1.7462,1.8309,1.7893,1.7216,1.714,1.7679,1.8376,1.905,2.0169,2.1321,2.2122,2.3084,2.393,2.4447,2.5032,2.5544,2.5737,2.5674,2.5686,2.5925,2.5803,2.5735,2.5889,2.6505,2.7442,2.8788,2.9813,3.0632,3.1156,3.0933,3.1145,3.1924,3.1014,3.0582,3.0864,3.1102,3.1695,3.2707,3.2679,3.3022,3.3753,3.3512,3.3406,3.3385,3.2707,3.1808,3.0765,2.948,2.8936,2.898,2.9601,2.9526,2.9125,2.9978,2.9662,2.8446,2.6192,2.4705,2.358,0.0,0.0,0.0,0.0,0.0,0.0,0.0,0.0,0.0,0.0,0.9418,0.9325,0.9752,0.9158,0.8565,0.8144,0.7592,0.7748,0.8906,0.8949,0.9542,1.0942,1.1341,1.151,1.151,1.2837,1.3169,1.2416,1.3567,1.3776,1.3137,1.4105,1.4613,1.4727,1.5806,1.6368,1.6536,1.706,1.7875,1.8764,1.8655,1.9071,1.9606,1.8383,1.758,1.7156,1.7704,1.7569,1.6977,1.6127,1.5858,1.5835,1.5503,1.5873,1.6623,1.7526,1.8115,1.8322,1.7606,1.7595,1.7535,1.6626,1.7646,1.8832,1.8647,2.0155,2.1873,2.2802,2.3948,2.4933,2.531,2.5724,2.6047,2.6047,2.5573,2.5169,2.5054,2.4538,2.4204,2.4266,2.4387,2.5149,2.6849,2.8257,2.9595,3.0964,3.031,3.035,3.1505,3.0891,3.0494,3.0448,3.0685,3.1249,3.216,3.2295,3.2843,3.3818,3.3929,3.4015,3.3972,3.2914,3.1828,3.0679,2.9627,2.9179,2.9234,2.9798,3.0059,3.0064,3.0414,3.0522,3.0261,2.8334,2.6695,2.5266,0.0,0.0,0.0,0.0,0.0,0.0,0.0,0.0,0.0,0.0,0.0,0.0,0.0,0.9364,0.8903,0.8418,0.7785,0.7466,0.7648,0.8019,0.8459,0.8963,1.0174,1.0827,1.0827,1.2134,1.263,1.2217,1.2897,1.3122,1.2925,1.348,1.3878,1.4179,1.5248,1.5997,1.654,1.7074,1.754,1.7928,1.7931,1.7489,1.6743,1.5994,1.5522,1.5375,1.6095,1.5404,1.4301,1.5494,1.5899,1.5982,1.6488,1.7183,0.0,1.818,1.8923,1.9223,1.725,1.7082,1.7336,1.6971,1.7122,1.7991,2.0346,2.1402,2.2421,2.4315,2.475,2.48,2.4813,2.4825,2.4838,2.4838,2.4509,2.4087,2.363,2.2995,2.244,2.2054,2.242,2.2909,2.3478,2.6045,2.824,2.9559,3.0176,3.0776,3.1465,3.0879,3.0435,3.0303,2.9695,2.9988,3.1314,3.1965,3.3075,3.4567,3.5226,3.5532,3.5453,3.3493,3.2209,3.144,2.947,2.8614,2.8658,2.921,2.9429,2.954,3.072,3.1086,3.0906,3.0373,2.8969,2.712,0.0,0.0,0.0,0.0,0.0,0.0,0.0,0.0,0.0,0.0,0.0,0.0,0.0,0.0,0.0,0.0,0.8443,0.8252,0.8694,0.8563,0.8599,0.8897,0.9734,1.0195,1.0195,1.1042,1.149,1.154,1.1763,1.1808,1.1718,1.2247,1.2673,1.2994,1.3717,1.436,1.492,1.5292,1.5992,1.6789,1.621,1.5998,1.5867,1.439,1.3744,1.3744,0.0,1.4502,1.4602,1.4296,1.438,1.4484,1.3591,1.4392,1.594,1.7502,1.7816,1.7709,1.8011,1.7298,1.661,1.7149,1.7742,1.8387,1.9233,2.1174,2.2837,2.2865,2.3287,2.3559,2.3226,2.2862,2.267,2.2853,2.2416,2.2083,2.2108,2.1609,2.0948,2.0133,2.1328,2.2184,2.2131,2.4653,2.6974,2.8672,2.9483,3.0372,3.1451,3.1286,3.1141,3.1087,3.0881,3.0982,3.1436,3.2571,3.3415,3.3962,3.5068,3.5362,3.4901,3.3764,3.291,3.2178,3.0548,2.9854,2.9879,2.9964,2.9995,3.0081,3.0878,3.1353,3.1515,3.1363,3.062,2.9491,0.0,0.0,0.0,0.0,0.0,0.0,0.0,0.0,0.0,0.0,0.0,0.0,0.0,0.0,0.0,0.0,0.0,0.8622,0.8713,0.8543,0.8378,0.8295,0.9144,0.9585,0.9548,1.0374,1.0781,1.0746,1.0746,1.0613,1.0396,1.0516,1.0703,1.0958,1.1756,1.243,1.3011,1.3349,1.3987,1.4726,1.4231,1.3848,1.3466,1.258,1.2411,0.0,1.2958,1.3845,1.4813,1.424,1.4466,1.4741,1.3211,1.3673,1.5008,1.6259,1.671,1.7062,1.8174,1.7861,1.7364,1.806,1.8528,1.89,1.909,2.0631,2.1929,2.163,2.1937,2.2083,2.1518,2.0829,2.0453,2.0763,2.0071,1.9633,2.0113,1.9853,1.9483,1.9147,2.0296,2.1319,2.181,2.37,2.5661,2.7542,2.9073,3.0295,3.1104,3.1617,3.1879,3.1775,3.1549,3.1436,3.1436,3.2544,3.3688,3.4742,3.5091,3.5295,3.5347,3.4158,3.3502,3.3242,3.1847,3.1109,3.0844,3.0514,3.0336,3.0335,3.072,3.1261,3.1789,3.164,3.1422,3.1034,0.0,0.0,0.0,0.0,0.0,0.0,0.0,0.0,0.0,0.0,0.0,0.0,0.0,0.0,0.0,0.0,0.0,0.0,0.7833,0.8003,0.7846,0.7246,0.8398,0.9003,0.8877,1.0043,1.0398,0.9863,0.9824,0.9539,0.9042,0.8484,0.8259,0.8381,0.9524,1.0381,1.0982,1.1421,1.1754,1.2018,1.212,1.1217,0.9875,1.0715,1.1497,1.2185,1.2348,1.3388,1.4765,1.52,1.5905,1.6387,1.5094,1.4897,1.5074,1.4707,1.5889,1.7414,1.7964,1.8842,1.9593,1.9651,1.9506,1.9468,1.9904,1.9781,1.9801,2.0616,2.0644,2.0326,1.9773,1.8856,1.8316,1.8749,1.7633,1.699,1.7892,1.7905,1.8165,1.8994,1.9437,2.0416,2.2289,2.3225,2.4484,2.6275,2.8941,3.0494,3.0518,3.1891,3.254,3.2323,3.1723,3.1401,3.1387,3.2057,3.3874,3.6732,3.535,3.544,3.6719,3.4618,3.4011,3.4568,3.3234,3.2256,3.1542,3.0876,3.0496,3.0366,3.0366,3.0955,3.1747,3.1378,3.1477,3.173,0.0,0.0,0.0,0.0,0.0,0.0,0.0,0.0,0.0,0.0,0.0,0.0,0.0,0.0,0.0,0.0,0.0,0.0,0.8765,0.8614,0.8197,0.7386,0.8144,0.8557,0.8523,0.8702,0.8957,0.9309,0.8704,0.8465,0.8578,0.8426,0.8498,0.8765,0.9068,0.9589,1.0244,1.0174,1.0825,1.1836,1.0841,1.0622,1.0836,1.0203,1.0625,1.1616,1.2188,1.333,1.4542,0.0,0.0,1.4002,1.3245,1.3618,1.4525,1.5605,1.7152,1.8933,2.071,2.1503,2.1855,2.1873,2.0875,1.9672,1.8722,1.8233,1.7947,1.7884,1.7753,1.7725,1.7969,1.7065,1.6598,1.7553,1.7006,1.6935,1.8251,1.8408,1.8487,1.8706,1.9668,2.0841,2.215,2.4289,2.584,2.6451,2.8867,3.0526,3.0946,3.2411,3.3039,3.254,3.2844,3.2763,3.2266,3.3496,3.4701,3.5983,3.6117,3.6356,3.6688,3.5079,3.4704,3.5276,3.3874,3.3172,3.292,3.2217,3.1602,3.1123,3.1123,3.1456,3.1938,3.1841,3.1868,3.1938,0.0,0.0,0.0,0.0,0.0,0.0,0.0,0.0,0.0,0.0,0.0,0.0,0.0,0.0,0.0,0.0,0.0,0.0,0.0,0.9143,0.8718,0.8039,0.8425,0.8585,0.8393,0.8342,0.8474,0.8795,0.804,0.7767,0.7908,0.7645,0.7577,0.7678,0.7987,0.8377,0.8779,0.8281,0.8848,0.0,0.0,0.9213,1.0082,0.9894,1.0442,1.1345,1.1776,0.0,0.0,0.0,0.0,1.2721,1.3178,1.3913,1.4926,1.6551,1.8452,2.0501,2.2485,2.3325,2.3539,2.3137,2.174,2.0145,1.8709,1.777,1.7117,1.6873,1.6705,1.665,1.6954,1.5879,1.5269,1.6247,1.5679,1.5764,1.7533,1.7935,1.8359,1.9075,2.0002,2.1073,2.2313,2.4439,2.5815,2.6102,2.8778,3.0446,3.0429,3.202,3.2877,3.2829,3.3043,3.2986,3.2586,3.3634,3.4675,3.5698,3.5712,3.6066,3.6642,3.5216,3.4792,3.5126,3.4314,3.364,3.3015,3.2337,3.179,3.1381,3.1112,3.1293,3.1737,3.1737,3.1737,3.1738,0.0,0.0,0.0,0.0,0.0,0.0,0.0,0.0,0.0,0.0,0.0,0.0,0.0,0.0,0.0,0.0,0.0,0.0,0.0,0.0,0.0,0.8903,0.9004,0.8888,0.8536,0.8621,0.8603,0.8472,0.7869,0.7561,0.749,0.6964,0.6631,0.6482,0.7069,0.7335,0.7329,0.6735,0.6961,0.7698,0.7499,0.7914,0.8741,0.0,0.0,1.118,1.1304,0.0,0.0,0.0,1.2774,1.2598,1.3983,1.4944,1.591,1.7611,1.9703,2.1904,2.381,2.4669,2.4813,2.3999,2.2388,2.0629,1.9132,1.7619,1.6522,1.6607,1.6395,1.6223,1.6375,1.525,1.453,1.5239,1.4483,1.4505,1.657,1.7275,1.8154,1.9805,2.0381,2.1261,2.2749,2.4107,2.5138,2.5697,2.8422,2.9873,2.9475,3.1188,3.2421,3.2903,3.2483,3.2269,3.2361,3.3106,3.4166,3.5502,3.5003,3.5464,3.6635,3.5165,3.4584,3.4722,3.4531,3.3815,3.2704,3.2003,3.1654,3.1498,3.097,3.1099,3.1564,3.1659,3.1627,3.1568,0.0,0.0,0.0,0.0,0.0,0.0,0.0,0.0,0.0,0.0,0.9396,0.9213,0.0,0.0,0.0,0.0,0.0,0.0,0.0,0.0,0.0,0.0,0.9339,0.9292,0.9228,0.9034,0.8915,0.8894,0.8661,0.8555,0.8544,0.8437,0.8364,0.8343,0.846,0.8203,0.7752,0.8275,0.801,0.7339,0.8649,0.8996,0.8855,0.9755,0.0,0.0,0.0,0.0,0.0,0.0,1.5007,1.4687,1.4124,1.5134,1.6957,1.9086,2.0698,2.2445,2.5307,2.6135,2.6063,2.5407,2.3184,2.0664,1.8694,1.6249,0.0,1.5059,1.4827,1.4781,1.5682,1.5566,1.5428,1.5665,1.5484,1.5906,1.7546,1.812,1.8926,2.0331,2.085,2.184,2.3749,2.4193,2.4878,2.6222,2.6887,2.7618,2.8657,3.1171,3.2455,3.2122,3.1029,3.0673,3.1107,3.2631,3.3774,3.4485,3.5661,3.6381,3.655,3.514,3.4805,3.5278,3.4185,0.0,3.4063,3.2893,3.2391,3.2293,3.2177,3.2221,3.2382,3.2927,3.2791,3.2308,0.0,0.0,0.0,0.0,0.0,0.0,0.0,1.0278,1.0418,1.1288,1.069,1.019,1.01,1.0169,1.0176,0.0,0.0,0.0,0.0,0.0,0.0,0.0,0.0,0.0,0.0,0.9349,0.0,0.0,0.0,0.9114,0.9119,0.0,0.0,0.9152,0.8698,0.8289,0.7931,0.7547,0.7297,0.7199,0.7688,0.828,0.0,0.0,0.0,0.0,0.0,0.0,0.0,0.0,1.4779,1.563,1.578,1.6468,1.7594,1.9426,2.1132,2.2931,2.5208,2.5756,2.5703,2.5636,2.3069,2.0218,1.8886,0.0,0.0,1.4854,1.4906,1.4994,1.5246,1.5459,1.5597,1.5599,1.5261,1.5656,1.7513,1.7895,1.8623,2.04,2.1162,2.2012,2.3212,2.4043,2.4567,2.4713,2.5808,2.6798,2.7419,2.8862,2.9899,3.0378,2.9803,2.9859,3.0671,3.186,3.2594,3.2862,3.3977,3.453,3.4497,3.3816,3.3791,3.4226,3.357,3.3532,3.3923,3.3329,3.3048,3.3021,3.3021,3.3021,3.3066,3.338,3.3305,3.3021,0.0,0.0,0.0,0.0,0.0,0.0,0.0,1.0586,1.0776,1.1904,1.1659,1.1057,1.0198,1.031,1.0351,0.0,0.0,0.0,0.0,0.0,0.0,0.0,0.0,0.0,0.0,0.0,0.0,0.0,0.0,0.0,0.0,0.0,0.0,0.0,0.0,0.0,0.7893,0.6916,0.6579,0.0,0.0,0.7396,0.0,0.0,0.0,0.0,0.0,0.0,0.0,0.0,1.3986,1.5494,1.6708,1.7219,1.7632,1.8948,2.0691,2.2521,2.4174,2.4637,2.4767,2.5219,2.2631,1.9776,1.9007,1.7124,0.0,1.484,1.506,1.5261,1.4947,1.5307,1.5578,1.541,1.496,1.5174,1.6828,1.7272,1.81,1.9985,2.1209,2.209,2.2598,2.3493,2.3813,2.3135,2.4532,2.5703,2.6472,2.6582,2.7133,2.825,2.84,2.8902,2.9886,3.0872,3.1395,3.1518,3.2266,3.2593,3.2593,3.2593,3.2744,3.2972,3.283,3.297,3.3279,3.3,3.3079,3.34,3.3197,3.3229,3.343,3.3563,3.3519,3.3446,0.0,0.0,0.0,0.0,0.0,0.0,0.0,1.0751,1.098,1.0411,1.0891,1.0992,1.0198,1.0811,1.0968,0.0,0.0,0.0,0.0,0.0,0.0,0.0,0.0,0.0,0.0,0.0,0.0,0.0,0.0,0.0,0.0,0.0,0.0,0.0,0.0,0.0,0.0,0.8166,0.0,0.0,0.0,0.0,0.0,0.0,0.0,0.0,0.0,0.0,0.0,0.0,0.0,1.3802,1.4818,1.586,1.6841,1.7575,0.0,0.0,2.2128,2.315,2.3765,2.4212,2.2171,1.9709,1.8536,0.0,1.4828,1.4274,1.4217,1.4374,1.4828,1.5334,1.5627,1.5418,1.5289,1.5239,1.5321,1.6531,1.7779,1.8759,0.0,0.0,2.2955,2.218,2.2013,2.3047,2.2287,2.3148,2.6348,2.5979,2.5785,2.5888,2.642,2.6992,2.7601,2.9555,3.0745,3.1235,3.215,3.2593,3.2593,3.2593,3.2615,3.2603,3.2014,3.209,0.0,3.1356,3.1748,3.3048,3.212,3.2323,3.3219,3.3753,3.3623,3.3245,0.0,0.0,0.0,0.0,0.0,0.0,1.0636,1.0604,1.0758,1.1402,1.1376,1.1415,1.1696,1.156,1.1107,1.0231,0.0,0.0,0.0,0.0,0.0,0.0,0.0,0.0,0.0,0.0,0.0,0.9893,0.0,0.0,0.0,0.0,0.0,0.0,0.0,0.0,0.0,0.0,0.0,0.0,0.0,0.0,0.0,0.0,0.0,0.0,0.0,0.0,0.0,0.0,0.0,0.0,1.3384,1.3932,0.0,0.0,1.6889,1.8676,2.0314,2.1306,2.1999,2.2502,2.0426,1.8038,1.7242,0.0,1.4261,1.3672,1.3858,1.4166,1.4374,1.5123,1.555,1.5124,1.4776,1.4538,1.4447,1.4639,1.5445,1.7118,1.8944,2.0335,2.09,2.1168,2.1203,2.0944,2.0486,2.0819,2.2202,2.2085,2.2906,2.5047,2.4656,2.5169,2.6777,2.8273,2.912,2.937,3.0405,3.0921,3.0921,3.0921,3.123,3.1729,3.1464,3.1852,0.0,3.2012,3.2215,3.2751,3.2353,3.2458,3.2813,3.3087,3.3377,3.3701,0.0,0.0,0.0,0.0,0.0,1.0195,1.0706,1.0541,1.0668,1.1547,1.1457,1.1574,1.2323,1.1438,1.0718,1.059,1.035,0.0,0.0,0.0,0.0,0.0,0.0,0.0,0.0,0.0,0.9816,0.996,1.0016,0.0,0.0,0.0,0.0,0.0,0.0,0.0,0.0,0.0,0.0,0.0,0.0,0.0,0.0,0.0,0.0,0.0,0.0,0.0,0.0,0.0,0.0,0.0,0.0,0.0,0.0,0.0,1.4976,1.6729,1.7756,1.879,1.9727,2.0235,1.8504,1.6596,0.0,0.0,1.3934,1.3328,1.3428,1.3685,1.3828,1.4356,1.4728,1.4613,1.398,1.3497,1.3455,1.3204,1.3579,1.5163,1.6919,1.8248,1.8906,2.0047,2.026,1.9039,1.8956,1.9131,1.9497,1.881,1.9909,2.3148,2.2717,2.3391,2.5472,2.6517,2.7261,2.7654,2.8779,2.9287,2.9326,2.9663,3.0177,3.0796,3.0796,3.1156,0.0,3.1756,3.1938,3.2177,3.1865,3.1938,3.2177,3.2177,3.2593,3.3206,0.0,0.0,0.0,0.0,0.0,0.0,1.0028,1.0672,1.0881,1.0034,1.072,1.1355,1.1493,1.0018,0.9684,1.1336,1.0698,0.0,0.0,0.0,0.0,0.0,0.0,0.0,0.0,0.0,0.9298,1.0094,1.0094,1.0094,1.0096,1.0169,0.0,0.0,0.0,0.0,0.0,0.0,0.0,0.0,0.0,0.0,0.0,0.0,0.0,0.0,0.0,0.0,0.0,0.0,0.0,0.0,0.0,0.0,0.0,0.0,1.3022,1.415,1.4159,1.541,1.686,1.7338,1.6623,1.5784,1.5645,1.4837,1.3934,1.3328,1.2838,1.2675,1.3205,1.295,1.2969,1.3964,1.2999,1.213,1.2221,1.2562,1.2804,1.2821,1.4621,1.6336,1.762,1.8829,1.8993,1.7824,1.7738,1.8234,1.9451,1.7156,1.6976,1.9497,2.0561,2.1732,2.3022,2.4111,2.5291,2.6524,2.7602,2.8136,2.8176,2.9275,2.9792,2.983,2.983,2.983,0.0,2.983,3.0381,3.1106,3.0177,3.0381,3.1217,3.1217,3.1217,3.1352,0.0,0.0,0.0,0.0,0.0,0.0,0.0,0.9865,1.0326,1.0005,1.0267,1.0508,1.0595,0.9647,0.9427,1.0513,0.9861,0.0,0.0,0.0,0.0,0.0,0.0,0.0,0.0,0.0,0.8978,0.9153,0.9788,1.0078,1.0024,1.0157,0.9875,0.9274,0.0,0.0,0.0,0.0,0.0,0.0,0.0,0.0,0.0,0.0,0.0,0.0,0.0,0.0,0.0,0.0,0.0,0.0,0.0,0.0,0.0,1.1439,1.2053,0.0,1.3069,1.3787,1.4463,1.4563,1.3972,1.3382,1.3513,1.3232,1.2964,1.3003,1.299,1.3032,1.3261,1.3186,1.3145,1.339,1.2685,1.1893,1.1327,1.1314,1.1654,1.2374,1.4429,1.6287,1.7592,1.7246,1.6796,1.6433,1.6386,1.6567,1.6929,1.6244,1.6929,1.9405,1.9015,1.9765,2.1799,2.2969,2.4098,2.5378,2.7227,2.8096,2.8136,2.9287,2.9365,2.8676,2.9456,2.9365,2.8688,2.9495,2.9972,3.0216,2.9934,2.9972,3.0241,3.0241,3.0425,3.0685,0.0,0.0,0.0,0.0,0.0,0.0,0.0,0.9543,1.0115,1.005,1.0108,1.0156,1.0228,0.9199,0.8976,1.0101,0.9171,0.0,0.0,0.0,0.0,0.0,0.0,0.0,0.0,0.8258,0.8808,0.8699,0.9606,1.005,0.9999,1.0145,0.9907,0.9358,0.8457,0.0,0.0,0.0,0.0,0.0,0.0,0.0,0.8327,0.0,0.0,0.0,0.0,0.0,0.0,0.0,0.0,0.0,0.0,0.0,0.0,0.0,1.1412,1.148,0.0,1.2287,1.2645,1.2605,1.2346,0.0,1.2344,1.2413,1.252,1.2834,1.2838,1.2771,1.2742,1.251,1.2367,1.2502,1.1666,1.0963,1.0814,1.0511,1.0765,1.2009,1.3935,1.5529,1.6407,1.6045,1.5784,1.5784,1.5784,1.5784,1.5784,1.5784,1.6513,1.8072,1.7404,1.7948,1.9898,2.1114,2.2309,2.3524,2.5753,2.6849,2.6889,2.8039,2.8171,2.7522,2.8076,2.7901,0.0,2.8217,2.858,2.8619,2.9025,2.9164,2.9164,2.9164,2.9324,2.9468,0.0,0.0,0.0,0.0,0.0,0.0,0.0,0.9542,1.0173,1.0122,1.017,1.0189,1.0169,0.8652,0.8271,0.9883,0.0,0.0,0.0,0.0,0.0,0.0,0.0,0.0,0.6345,0.7845,0.8583,0.8521,0.9506,0.997,0.992,1.0162,1.0244,1.0151,0.9147,0.8673,0.8506,0.6938,0.587,0.5371,0.7014,0.7671,0.0,0.0,0.0,0.0,0.0,0.0,0.0,0.0,0.0,0.0,0.0,0.0,0.0,0.0,0.0,0.0,0.0,1.0959,1.1257,1.1311,1.1588,1.1861,1.1925,1.2216,0.0,1.2812,1.2494,1.2086,1.1882,1.123,1.0932,1.148,1.0235,0.9554,1.0518,1.0155,1.0325,1.1832,1.3273,1.4282,1.4529,1.5311,1.5751,1.5751,1.5751,1.5751,1.5751,1.5771,1.5784,1.5784,1.5784,1.6433,1.7692,1.891,2.0124,2.1337,2.3697,2.4787,2.483,2.5975,2.6483,2.6367,2.599,2.5806,2.5739,2.6317,2.655,2.6677,2.7631,2.8024,2.8109,2.8109,2.8035,2.7802,0.0,0.0,0.0,0.0,0.0,0.0,0.0,0.0,0.0,0.0,1.0193,0.9882,0.9021,0.777,0.7329,0.0,0.0,0.0,0.0,0.0,0.0,0.0,0.0,0.0,0.668,0.6827,0.6848,0.6784,0.8896,0.9614,0.9035,1.0408,1.0717,1.0058,0.8556,0.7432,0.6619,0.6128,0.6536,0.7523,0.7488,0.8223,0.0,0.0,0.0,0.0,0.9712,0.9531,0.0,0.0,0.0,0.0,0.0,0.0,0.0,0.0,1.0846,1.0736,1.052,0.0,0.9982,1.051,1.0467,1.0516,0.0,1.1675,1.202,1.2508,1.2667,1.2626,1.2306,1.1704,1.1251,1.1283,1.0115,0.9253,0.9408,1.0161,1.1257,1.2722,1.4195,1.503,1.4921,1.5244,1.5498,1.5498,1.5498,1.5498,1.5498,1.5712,1.5784,1.5784,1.5784,1.6433,1.7692,1.891,2.0124,2.1337,2.3697,2.4787,2.483,2.5975,2.6016,2.5241,2.6019,2.5672,2.4628,2.5598,2.6229,2.6627,2.6876,2.7422,2.8109,2.8109,2.7359,2.6311,0.0,0.0,0.0,0.0,0.0,0.0,0.0,0.0,0.0,0.0,0.0,1.0005,0.935,0.804,0.0,0.0,0.0,0.0,0.0,0.0,0.0,0.0,0.0,0.6204,0.5977,0.6913,0.7181,0.6699,0.8818,0.9856,0.9863,1.0462,1.0722,1.0625,0.9195,0.8039,0.7143,0.7063,0.7362,0.79,0.8075,0.0,0.0,0.0,0.0,0.0,0.9636,0.944,0.0,0.8896,0.8678,0.8678,0.0,0.0,0.0,0.0,1.0374,1.0485,0.9671,0.9717,1.0081,1.0442,1.0482,1.0625,1.1319,1.161,1.1855,1.2389,0.0,1.2444,1.2177,1.1459,1.0789,1.0461,0.9345,0.8475,0.8329,0.9225,1.0554,1.2298,1.3535,1.4423,1.495,1.5149,1.5197,1.5197,1.5197,1.5197,1.5197,1.5344,1.5431,1.5431,1.5565,1.602,1.6803,1.858,1.9807,2.0486,2.2892,2.4006,2.4039,2.3965,2.3873,2.3724,2.3432,2.3125,2.289,2.372,2.4238,2.4563,2.5012,2.5518,2.5983,2.5983,2.5452,2.4682,0.0,0.0,0.0,0.0,0.0,0.0,0.0,0.0,0.0,0.0,0.0,0.0,0.0,0.0,0.0,0.0,0.0,0.0,0.0,0.0,0.0,0.0,0.0,0.6031,0.533,0.7263,0.7885,0.7086,0.8878,1.0055,1.0636,1.0384,1.0463,1.0781,1.0013,0.9146,0.8294,0.839,0.817,0.7817,0.8639,0.0,0.0,0.0,0.0,0.0,0.0,0.0,0.0,0.8795,0.8542,0.8505,0.9074,0.0,0.0,0.0,0.0,0.0,0.8933,0.9642,1.0658,1.0412,1.0681,1.1082,1.1441,0.0,0.0,0.0,0.0,0.0,0.0,1.1014,0.0,0.0,0.8439,0.7638,0.7648,0.8144,0.9326,1.1437,1.234,1.3343,1.4739,1.4914,1.4921,1.4874,1.4874,1.4874,1.4874,1.4914,1.4961,1.5008,1.5204,1.5444,1.5698,1.8026,1.9314,1.9542,2.1765,2.2818,2.2799,2.1482,2.1296,2.1897,2.0375,0.0,2.0981,2.1629,2.1911,2.2065,2.2925,2.3368,2.3514,2.3514,2.3404,2.3147,0.0,0.0,0.0,0.0,0.0,0.0,0.0,0.0,0.0,0.0,0.0,0.0,0.0,0.0,0.0,0.0,0.0,0.0,0.0,0.0,0.0,0.9848,0.7783,0.6654,0.6698,0.6512,0.6326,0.6108,0.841,0.9035,0.8105,1.01,1.0007,0.8222,0.9122,0.8705,0.7357,0.7925,0.8628,0.9311,0.8975,0.0,0.0,0.0,0.0,0.0,0.0,0.0,0.0,0.8638,0.8428,0.8373,0.8205,0.0,0.0,0.0,0.0,0.0,1.0052,1.0415,1.0451,0.9088,0.9434,1.0205,1.0588,1.1604,0.0,0.0,0.0,0.0,0.0,1.1137,1.0508,0.0,0.8269,0.7578,0.819,0.8263,0.9072,1.126,1.2271,1.3182,1.415,1.4442,1.4482,1.4242,1.4222,1.4222,1.4222,1.4456,1.4703,1.5001,1.5055,1.5095,1.5142,1.7001,1.8503,1.9542,2.089,2.1569,2.1551,2.1115,2.0411,1.9641,0.0,2.0016,1.9911,2.0933,2.1575,2.2027,2.2178,2.2739,2.3514,2.3514,2.2962,2.2103,0.0,0.0,0.0,0.0,0.0,0.0,0.0,0.0,0.0,0.0,0.0,0.0,0.0,0.0,0.0,0.0,0.0,0.0,0.0,0.0,0.0,0.9888,0.8816,0.7828,0.7011,0.7116,0.7151,0.7081,0.871,0.9467,0.9416,1.0703,1.021,0.8295,0.92,0.8959,0.7904,0.8654,0.9292,0.9788,0.0,0.0,0.0,0.0,0.0,0.0,0.0,0.0,0.0,0.0,0.8606,0.857,0.8025,0.0,0.0,0.0,0.0,0.0,0.917,0.9173,0.9087,0.78,0.8761,1.0031,1.0107,1.0899,0.0,0.0,0.0,0.0,0.0,0.0,0.9587,0.8346,0.7398,0.6833,0.6867,0.6908,0.7816,1.0342,1.1098,1.2121,1.3935,1.4208,1.4162,1.3868,1.3848,1.3781,1.3621,1.3741,1.3618,1.3237,1.4058,1.4265,1.3729,1.541,1.7153,1.891,2.0131,2.0705,2.0687,1.9745,1.9016,1.8486,0.0,1.8341,1.9308,1.9808,2.0487,2.1221,2.1221,2.1527,2.1935,2.1935,2.1642,2.1183,0.0,0.0,0.0,0.0,0.0,0.0,0.0,0.0,0.0,0.0,0.0,0.0,0.0,0.0,0.0,0.0,0.0,0.0,0.0,0.0,0.9981,0.9715,0.9305,0.8595,0.7542,0.7746,0.7852,0.7816,0.8545,0.9349,1.0198,1.0613,0.9997,0.8563,0.9381,0.9298,0.8597,0.9398,0.9794,0.9944,0.0,0.0,0.0,0.0,0.0,0.0,0.0,0.0,0.0,0.0,0.0,0.0,0.0,0.0,0.0,0.8275,0.9015,0.9858,0.8476,0.8149,0.7963,0.7005,0.0,0.957,0.9843,1.0438,1.1185,0.0,0.0,0.0,0.0,0.9979,0.873,0.7579,0.7047,0.658,0.6062,0.6019,0.701,0.9701,1.0171,1.1285,1.3866,1.3811,1.3515,1.3188,1.3063,1.2967,1.2752,1.2739,1.2409,1.1702,1.2678,1.2937,1.2385,1.3684,1.5551,1.8027,1.8956,1.9383,1.9365,1.8162,1.7459,1.7115,1.6137,1.6635,1.817,1.8655,1.9332,2.013,2.0333,2.0517,2.0605,2.0605,2.0605,2.0605,0.0,0.0,0.0,0.0,0.0,0.0,0.0,0.0,0.0,0.0,0.0,0.0,0.0,0.0,0.0,0.0,0.0,0.0,0.0,0.0,0.9983,0.9703,0.85,0.821,0.9022,0.7637,0.6926,0.699,0.7123,0.7375,0.7765,0.8667,0.8574,0.7747,0.9225,0.9432,0.8735,0.9479,0.9868,1.0004,1.0135,0.0,0.0,0.0,0.0,0.0,0.0,0.0,0.0,0.0,0.0,0.0,0.0,0.0,0.8268,0.8478,0.8989,0.9452,0.9311,0.8749,0.8005,0.7181,0.7376,0.8195,0.9809,1.0836,0.0,1.3107,0.0,0.0,0.0,0.9537,0.8722,0.8364,0.808,0.7711,0.7248,0.6866,0.7551,1.0071,1.0508,1.1482,1.3864,1.2983,1.2134,1.1876,1.1546,1.1358,1.134,1.134,1.1453,1.1696,1.0926,1.0902,1.1755,1.2117,1.3841,1.6938,1.7018,1.7062,1.7011,1.6624,1.5812,1.4799,1.5435,1.5654,1.5728,1.7575,1.8484,1.8753,1.9611,2.0215,2.0605,2.0605,2.0605,2.0605,0.0,0.0,0.0,0.0,0.0,0.0,0.0,0.0,0.0,0.0,0.0,0.0,0.0,0.0,0.0,0.0,0.0,0.0,0.0,1.0154,0.9961,0.9658,0.8906,0.8475,0.839,0.7221,0.6651,0.6712,0.6989,0.7512,0.8251,0.8687,0.8701,0.8396,0.9487,0.9482,0.8759,0.9617,1.0014,1.0072,1.0157,1.0203,0.0,0.0,0.0,0.0,0.0,0.0,0.0,0.0,0.7997,0.7987,0.725,0.7945,0.8951,0.8536,0.9002,0.9504,0.8835,0.8009,0.7172,0.6482,0.6175,0.0,0.0,0.9526,1.0637,1.135,1.2578,0.0,0.0,0.0,0.9366,0.8626,0.8907,0.8785,0.7647,0.7481,0.8137,0.9876,1.0304,1.1277,1.3351,1.2681,1.1916,1.141,1.0695,1.0186,1.0046,1.0035,0.9809,0.9272,0.968,0.9751,0.9513,1.1258,1.2603,1.3655,1.5323,1.6112,1.6097,1.5809,1.5022,1.3955,1.4096,1.4482,1.5061,1.5794,1.6911,1.8254,1.9429,2.0185,2.0605,2.0605,2.0605,2.0605,0.0,0.0,0.0,0.0,0.0,0.0,0.0,0.0,0.0,0.0,0.0,0.0,0.0,0.0,0.0,0.0,0.0,0.0,1.0223,1.0123,0.9931,0.9617,0.8987,0.8285,0.7513,0.6538,0.6149,0.6377,0.6452,0.6958,0.7892,0.8274,0.8564,0.8796,0.9578,0.9609,0.9119,0.9724,0.9993,1.0043,1.0059,1.0093,0.0,0.0,0.0,0.0,0.0,0.0,0.0,0.0,0.8083,0.8132,0.753,0.8219,0.9141,0.8536,0.8803,0.9102,0.8263,0.7169,0.6179,0.5856,0.0,0.0,0.6747,0.8262,0.9579,1.0379,1.1458,1.2035,1.1446,0.0,0.0,0.8801,0.9164,0.9136,0.8118,0.8009,0.8445,0.9702,0.9789,1.0439,1.2086,1.1416,1.0681,1.0277,0.952,0.9034,0.8851,0.8846,0.8504,0.7821,0.8328,0.8434,0.8086,0.9933,1.1099,1.1544,1.3183,1.4282,1.4909,1.4732,1.4205,1.3453,1.33,1.3572,1.4183,1.4491,1.5664,1.7354,1.8386,1.9184,1.9765,1.9765,1.9765,1.9812,0.0,0.0,0.0,0.0,0.0,0.0,0.0,0.0,0.0,0.0,0.0,0.0,0.0,0.0,0.0,0.0,0.0,0.0,1.0094,1.0039,0.9876,0.9603,0.8504,0.75,0.6614,0.5546,0.5284,0.5889,0.5231,0.5314,0.6123,0.7059,0.7931,0.8735,0.9456,0.9835,0.9892,0.9755,0.9774,0.9895,0.9827,0.9838,0.9876,0.0,0.0,0.0,0.0,0.0,0.0,0.0,0.8209,0.8136,0.8257,0.8388,0.85,0.85,0.8352,0.8118,0.7777,0.6414,0.5163,0.0,0.0,0.0,0.5898,0.7343,0.8901,1.0739,1.0818,1.0832,1.1648,0.9943,0.0,0.8934,0.8771,0.8629,0.8762,0.8336,0.8396,0.9536,0.8926,0.8887,1.007,0.8995,0.8207,0.8168,0.7919,0.7778,0.7778,0.7778,0.7783,0.7783,0.6834,0.6795,0.7783,0.8078,0.9188,1.115,1.0487,1.1249,1.3213,1.3167,1.316,1.32,1.32,1.3019,1.2853,1.3825,1.4821,1.5835,1.623,1.6992,1.7896,1.7896,1.7896,1.8008,0.0,0.0,0.0,0.0,0.0,0.0,0.0,0.0,0.0,0.0,0.0,0.0,0.0,0.0,0.0,0.0,0.0,0.0,1.0034,0.9926,0.9692,0.933,0.8633,0.7775,0.6768,0.5502,0.5032,0.5413,0.5301,0.5754,0.6736,0.7065,0.7646,0.8435,0.8845,0.9199,0.9485,0.9444,0.9435,0.9481,0.9456,0.9463,0.9454,0.0,0.0,0.0,0.0,0.0,0.0,0.0,0.0,0.0,0.8627,0.8545,0.8439,0.8169,0.797,0.7685,0.697,0.5933,0.0,0.4889,0.0,0.0,0.0,0.6731,0.0,0.0,1.0914,1.0706,1.0965,1.0091,0.0,0.8101,0.8297,0.8348,0.756,0.7686,0.7923,0.8125,0.8212,0.858,0.9362,0.8613,0.7664,0.6718,0.6496,0.6157,0.5657,0.6197,0.6598,0.6753,0.6451,0.6451,0.6756,0.7602,0.8246,0.8594,0.9253,1.085,1.3154,1.2017,1.191,1.2559,1.2358,1.2254,1.2253,1.336,1.4243,1.4903,1.5659,1.6341,1.6841,1.6841,1.6841,1.687,0.0,0.0,0.0,0.0,0.0,0.0,0.0,0.0,0.0,0.0,0.0,0.0,0.0,0.0,0.0,0.0,0.0,0.0,0.0,0.9745,0.9424,0.9134,0.8555,0.768,0.6473,0.547,0.498,0.4997,0.5183,0.5661,0.637,0.6411,0.6855,0.7636,0.7967,0.8321,0.8701,0.8753,0.8795,0.8824,0.8789,0.8868,0.8955,0.0,0.0,0.0,0.0,0.0,0.0,0.0,0.0,0.0,0.9386,0.9018,0.8577,0.8335,0.7762,0.7071,0.6348,0.5428,0.0,0.4418,0.4074,0.4052,0.5053,0.0,0.0,0.0,1.007,0.9702,1.0206,0.9221,0.0,0.739,0.7697,0.779,0.7155,0.7375,0.7549,0.743,0.7322,0.7371,0.777,0.7073,0.6264,0.5457,0.5317,0.5107,0.463,0.512,0.5455,0.5579,0.5214,0.5026,0.5017,0.6077,0.6697,0.6929,0.759,0.9139,1.1413,1.082,1.1032,1.1944,1.177,1.169,1.1774,1.2473,1.2942,1.3259,1.3812,1.4438,1.5033,1.5134,1.5153,1.5243,0.0,0.0,0.0,0.0,0.0,0.0,0.0,0.0,0.0,0.0,0.0,0.0,0.0,0.0,0.0,0.0,0.0,0.0,0.0,0.0,0.9146,0.9,0.8313,0.7306,0.599,0.5501,0.5098,0.4774,0.4961,0.512,0.5283,0.5294,0.569,0.6436,0.6824,0.725,0.7684,0.7811,0.7905,0.7973,0.7927,0.8096,0.8351,0.8111,0.0,0.0,0.0,0.0,0.0,0.0,0.0,0.0,1.0297,0.9662,0.8803,0.875,0.767,0.6363,0.593,0.501,0.4142,0.4104,0.404,0.0,0.4443,0.6344,0.827,0.9167,0.0,0.8305,0.9212,0.7676,0.6378,0.6676,0.6861,0.6971,0.708,0.7143,0.7168,0.7155,0.6343,0.5776,0.5762,0.4953,0.4405,0.4324,0.4331,0.4306,0.4244,0.4326,0.4372,0.4383,0.3563,0.3087,0.3089,0.3925,0.486,0.5824,0.5696,0.6635,0.8601,0.9437,1.0307,1.1137,1.1212,1.1259,1.1286,1.1354,1.1389,1.1389,1.1389,1.1969,1.2785,1.3071,1.3155,1.3339,0.0,0.0,0.0,0.0,0.0,0.0,0.0,0.0,0.0,0.0,0.0,0.0,0.0,0.0,0.0,0.0,0.0,0.0,0.0,0.0,0.918,0.894,0.792,0.7085,0.6461,0.5937,0.5565,0.5327,0.4853,0.4539,0.4374,0.4438,0.4657,0.5036,0.5338,0.5929,0.6708,0.673,0.6875,0.7088,0.7238,0.7335,0.7402,0.7398,0.754,0.0,0.0,0.0,0.0,0.0,0.0,0.0,1.0381,0.9662,0.8737,0.8424,0.7314,0.6147,0.5945,0.4902,0.0,0.0,0.5131,0.5369,0.4787,0.5681,0.6675,0.6784,0.7535,0.7925,0.71,0.6836,0.6439,0.5492,0.5578,0.5708,0.5574,0.5882,0.6076,0.5992,0.5773,0.5589,0.5501,0.4643,0.3788,0.3005,0.3028,0.2828,0.2248,0.2886,0.3303,0.3411,0.3212,0.3105,0.3087,0.3182,0.3637,0.4417,0.4293,0.5128,0.6791,0.7327,0.8123,0.9074,0.976,1.0189,1.0418,1.1114,1.1389,1.1389,1.1389,1.1526,1.1765,1.2067,1.2183,1.226,0.0,0.0,0.0,0.0,0.0,0.0,0.0,0.0,0.0,0.0,0.0,0.0,0.0,0.0,0.0,0.0,0.0,0.0,0.0,0.0,0.9097,0.8407,0.7628,0.701,0.6608,0.5972,0.5333,0.4692,0.4113,0.3755,0.3627,0.3595,0.3603,0.3668,0.4296,0.495,0.5608,0.5851,0.6258,0.6735,0.6984,0.7272,0.7562,0.7788,0.7991,0.8233,0.8764,0.0,0.0,0.0,0.0,0.0,0.0,0.0,0.8761,0.8546,0.7448,0.6193,0.5776,0.0,0.0,0.4297,0.0,0.5037,0.4678,0.5009,0.5358,0.5301,0.5981,0.6519,0.6259,0.6053,0.5719,0.5003,0.5047,0.5121,0.5009,0.523,0.5352,0.5277,0.5267,0.5104,0.4673,0.3806,0.2904,0.2001,0.2338,0.2279,0.1512,0.2253,0.2551,0.2255,0.1842,0.1605,0.1617,0.1951,0.2318,0.27,0.3103,0.3889,0.509,0.6585,0.7577,0.8102,0.8646,0.9207,0.9734,1.0207,1.0645,1.1009,1.1009,1.1009,1.1062,1.1496,1.1657,1.1717,0.0,0.0,0.0,0.0,0.0,0.0,0.0,0.0,0.0,0.0,0.0,0.0,0.0,0.0,0.0,0.0,0.0,0.0,0.0,0.0,0.0,0.7929,0.751,0.7108,0.6718,0.5909,0.5001,0.4021,0.3383,0.3071,0.306,0.2849,0.27,0.2654,0.3489,0.4134,0.4642,0.5091,0.5692,0.6391,0.6786,0.7271,0.7828,0.8274,0.8594,0.888,0.9443,0.9702,0.9855,1.044,0.0,0.0,0.0,0.0,0.8803,0.8803,0.7726,0.6399,0.5761,0.0,0.4178,0.3913,0.399,0.0,0.4378,0.4433,0.446,0.4484,0.4684,0.5078,0.5778,0.5329,0.487,0.4847,0.4863,0.485,0.485,0.4874,0.4887,0.4887,0.4773,0.4451,0.381,0.2851,0.2028,0.1484,0.1946,0.1983,0.1313,0.1901,0.1907,0.1109,0.0379,0.0,0.0,0.0727,0.1133,0.1283,0.2185,0.2933,0.36,0.5937,0.7081,0.7255,0.7636,0.8188,0.8877,0.9011,0.9588,1.0364,1.0364,1.0466,1.066,1.1209,1.1389,1.1475,0.0,0.0,0.0,0.0,0.0,0.0,0.0,0.0,0.0,0.0,0.0,0.0,0.0,0.0,0.0,0.0,0.0,0.0,1.0021,0.0,0.0,0.8256,0.7908,0.7532,0.7124,0.6004,0.5248,0.4924,0.3582,0.2923,0.0,0.0,0.2324,0.2696,0.2825,0.3401,0.4276,0.4347,0.4767,0.5436,0.607,0.6545,0.6938,0.7586,0.8054,0.8415,0.8619,0.8909,0.9247,0.9514,0.9764,0.0,0.0,0.0,0.8803,0.8803,0.779,0.6633,0.6405,0.0,0.4313,0.0,0.3917,0.389,0.0,0.0,0.4284,0.0,0.4631,0.4738,0.4713,0.4715,0.4677,0.4573,0.4662,0.4721,0.4721,0.4833,0.4887,0.4887,0.4228,0.3744,0.3626,0.2214,0.15,0.2035,0.1599,0.1241,0.1123,0.1243,0.0955,0.0185,0.0062,0.0,0.0,0.0124,0.0488,0.1123,0.1892,0.2317,0.2462,0.3619,0.4632,0.5512,0.6444,0.6948,0.7111,0.7864,0.8678,0.9466,0.9466,0.9945,1.066,1.1209,1.1389,1.1475,0.0,0.0,0.0,0.0,0.0,0.0,0.0,0.0,0.0,0.0,0.0,0.0,0.0,0.0,0.0,1.1562,1.0752,1.0066,0.9736,0.9336,0.8959,0.8645,0.8099,0.7658,0.7366,0.6222,0.5446,0.5102,0.3772,0.0,0.0,0.251,0.2392,0.0,0.2819,0.3218,0.37,0.3774,0.4349,0.5247,0.5772,0.6242,0.6716,0.739,0.7666,0.7722,0.81,0.8547,0.8989,0.8965,0.9397,0.9915,0.9691,0.0,0.0,0.0,0.791,0.6762,0.5991,0.5098,0.437,0.0,0.4061,0.3976,0.4171,0.4091,0.4035,0.4294,0.4368,0.4446,0.4487,0.4545,0.4569,0.4501,0.4545,0.459,0.459,0.4648,0.4516,0.4048,0.3652,0.3107,0.2281,0.1521,0.1229,0.1563,0.1275,0.1114,0.1114,0.1101,0.0759,0.0029,0.0,0.0,0.0,0.0,0.0174,0.0486,0.0817,0.1174,0.1592,0.2079,0.3034,0.4312,0.5339,0.6089,0.6574,0.7066,0.7795,0.8619,0.9107,0.9621,1.0124,1.0436,1.0678,1.0829,0.0,0.0,0.0,0.0,0.0,0.0,0.0,0.0,0.0,0.0,0.0,0.0,0.0,0.0,0.0,0.0,1.1494,1.0553,1.0027,0.9786,0.9466,0.9,0.8501,0.8018,0.7577,0.6552,0.5761,0.5198,0.0,0.0,0.3192,0.2667,0.2421,0.0,0.2865,0.3145,0.0,0.3463,0.4056,0.4916,0.5202,0.5669,0.0,0.0,0.6942,0.698,0.7357,0.7838,0.8304,0.8391,0.8948,0.9616,0.9728,0.9411,0.0,0.0,0.0,0.0,0.0,0.0,0.4574,0.4477,0.4171,0.3967,0.0,0.0,0.3765,0.0,0.4105,0.4149,0.4348,0.444,0.4491,0.4491,0.4491,0.4491,0.4491,0.4491,0.4208,0.34,0.3121,0.2508,0.1229,0.0923,0.0895,0.109,0.109,0.109,0.109,0.109,0.0755,0.0028,0.0,0.0,0.0,0.0,0.0,0.0,0.0,0.028,0.084,0.1119,0.1883,0.3022,0.4266,0.5283,0.6085,0.629,0.6883,0.773,0.8388,0.8925,0.9344,0.9513,0.9755,0.993,0.0,0.0,0.0,0.0,0.0,0.0,0.0,0.0,0.0,0.0,0.0,0.0,1.2024,1.2417,1.2521,1.2413,1.2385,1.2063,1.1349,1.1229,1.0584,0.9251,0.9327,0.0,0.7809,0.7041,0.6271,0.5475,0.0,0.0,0.3466,0.2612,0.2208,0.2228,0.2711,0.3055,0.3319,0.0,0.0,0.0,0.0,0.0,0.0,0.0,0.0,0.0,0.0,0.0,0.0,0.0,0.0,0.875,1.0244,1.019,0.9562,0.0,0.0,0.0,0.0,0.5813,0.0,0.469,0.41,0.3658,0.0,0.0,0.3502,0.3778,0.3816,0.3863,0.3991,0.4273,0.4491,0.4491,0.4491,0.4491,0.4491,0.4491,0.4208,0.34,0.2676,0.1952,0.1174,0.0476,0.0336,0.1034,0.109,0.109,0.109,0.109,0.0755,0.0028,0.0,0.0,0.0,0.0,0.0,0.0,0.0,0.0028,0.0084,0.0784,0.1148,0.1323,0.3239,0.4486,0.5173,0.5396,0.5976,0.6785,0.6817,0.7432,0.8326,0.8578,0.876,0.8936,0.0,0.0,0.0,0.0,0.0,0.0,0.0,0.0,0.0,0.0,0.0,0.0,0.0,1.3799,1.3505,1.2673,1.3056,1.2848,1.1662,1.0934,1.0774,1.1354,1.0337,0.9444,0.8781,0.7995,0.718,0.0,0.0,0.4462,0.3804,0.2929,0.2355,0.2073,0.2075,0.2118,0.2196,0.2144,0.0,0.0,0.0,0.0,0.0,0.0,0.0,0.0,0.0,0.0,0.0,0.0,0.0,0.8015,0.8372,0.8566,0.861,0.8424,0.8172,0.0,0.0,0.0,0.0,0.5222,0.4639,0.4211,0.4079,0.3781,0.3536,0.3531,0.361,0.3723,0.3846,0.4039,0.4178,0.4178,0.426,0.4297,0.4297,0.4297,0.3893,0.2724,0.2273,0.1638,0.0503,0.0168,0.0308,0.1034,0.0671,0.0588,0.1062,0.0643,0.028,0.0,0.0,0.0,0.0,0.0,0.0,0.0,0.0,0.0,0.0,0.028,0.0643,0.1149,0.1926,0.3033,0.4323,0.5094,0.5587,0.5925,0.6589,0.7155,0.7626,0.7713,0.795,0.8078,0.0,0.0,0.0,0.0,0.0,0.0,0.0,0.0,0.0,0.0,0.0,0.0,0.0,0.0,1.3883,1.329,1.3465,1.3336,1.267,1.1573,1.1441,1.2546,1.1389,1.0318,0.9487,0.8828,0.7981,0.0,0.0,0.0,0.0,0.2942,0.2217,0.1747,0.1271,0.122,0.0,0.0,0.0,0.1767,0.0,0.0,0.2153,0.0,0.0,0.0,0.0,0.0,0.0,0.0,0.0,0.0,0.7388,0.7942,0.8338,0.8186,0.811,0.0,0.696,0.0,0.0,0.0,0.4938,0.4562,0.4368,0.3909,0.3499,0.3478,0.3444,0.347,0.3615,0.3768,0.3904,0.3981,0.4082,0.4146,0.4146,0.4164,0.3694,0.2298,0.21,0.1527,0.0137,0.0,0.0193,0.0688,0.0278,0.0224,0.0699,0.028,0.0,0.0,0.0,0.0,0.0,0.0,0.0,0.0,0.0,0.0,0.0,0.0,0.028,0.0756,0.113,0.2078,0.3434,0.4481,0.4921,0.5035,0.6071,0.6603,0.6809,0.6838,0.7054,0.7195,0.0,0.0,0.0,0.0,0.0,0.0,0.0,0.0,0.9836,0.9834,0.0,0.0,0.0,0.0,0.0,1.4175,1.3566,1.3523,1.4357,1.3263,1.2568,1.2543,1.2361,1.1495,0.9851,0.9493,0.8621,0.7207,0.6673,0.5577,0.3977,0.0,0.1746,0.1255,0.0387,0.0471,0.1279,0.0,0.1446,0.1233,0.0,0.0848,0.1061,0.0,0.0,0.0,0.1947,0.2217,0.0,0.4182,0.0,0.0,0.7504,0.8513,0.8853,0.8926,0.828,0.0,0.0,0.0,0.0,0.0,0.0,0.0,0.458,0.0,0.3361,0.3529,0.3324,0.3138,0.3266,0.3445,0.3666,0.3927,0.3984,0.3987,0.3987,0.409,0.3626,0.2174,0.209,0.1585,0.0133,0.0,0.0,0.0,0.0,0.0,0.0,0.0,0.0,0.0,0.0,0.0,0.0,0.0,0.0,0.0,0.0,0.0,0.0,0.0,0.0,0.0056,0.0897,0.1699,0.2501,0.3564,0.4004,0.4094,0.519,0.5674,0.582,0.5936,0.6129,0.63,0.0,0.0,0.0,0.0,0.0,0.0,0.9704,1.1685,1.3178,0.0,0.0,0.0,1.2531,1.154,1.1313,1.2401,1.2306,1.2299,1.2527,1.2215,1.1822,1.1397,1.1329,1.0966,1.0254,0.9857,0.8947,0.7496,0.6751,0.5577,0.3977,0.2636,0.1746,0.0,0.0385,0.0142,0.0356,0.0416,0.0,0.0375,0.0456,0.0678,0.0,0.0,0.0,0.0,0.0,0.262,0.2797,0.0,0.3926,0.4659,0.0,0.7235,0.769,0.7803,0.8102,0.0,0.716,0.0,0.0,0.0,0.0,0.0,0.0,0.0,0.3644,0.3067,0.2951,0.2963,0.3003,0.3219,0.3396,0.3477,0.3691,0.3856,0.3856,0.3501,0.2945,0.2112,0.1572,0.0919,0.0077,0.0,0.0,0.0,0.0,0.0,0.0,0.0,0.0,0.0,0.0,0.0,0.0,0.0,0.0,0.0,0.0,0.0,0.0,0.0,0.0,0.0,0.0255,0.0482,0.0856,0.2972,0.3903,0.4086,0.5077,0.5614,0.582,0.5936,0.6129,0.6167,0.0,0.0,0.0,0.0,0.0,1.0152,1.1506,1.3029,1.3878,0.0,0.0,0.0,1.1135,1.0347,1.0208,1.0936,1.1011,1.1005,1.1011,1.1014,1.106,1.1188,1.0747,1.0632,1.0944,1.0379,0.9393,0.7965,0.7169,0.5884,0.413,0.2739,0.1793,0.1268,0.0,0.0,0.0,0.0,0.0,0.0,0.0164,0.0,0.0,0.1214,0.1543,0.0,0.0,0.0,0.2645,0.2928,0.3543,0.0,0.0,0.0,0.0,0.0,0.0,0.0,0.0,0.0,0.0,0.0,0.0,0.0,0.451,0.4008,0.3606,0.0,0.3344,0.3107,0.339,0.3475,0.3519,0.3581,0.3623,0.3651,0.3716,0.324,0.2654,0.1984,0.1374,0.0721,0.0074,0.0,0.0,0.0,0.0,0.0,0.0,0.0,0.0,0.0,0.0,0.0,0.0,0.0,0.0,0.0,0.0,0.0,0.0,0.0,-0.0168,-0.0448,-0.014,-0.0168,-0.0281,0.2151,0.3274,0.3573,0.4882,0.5576,0.5813,0.5901,0.6034,0.6066,0.0,0.0,0.9701,0.9698,0.9934,1.1083,1.395,1.3727,1.283,0.0,1.1587,1.1251,1.037,1.0266,1.0163,0.992,0.9902,0.9907,0.9894,0.9897,1.0418,1.1574,1.0753,1.0663,1.1496,1.0872,0.9849,0.8465,0.7695,0.6321,0.4393,0.2923,0.1901,0.1303,0.0,0.0,0.0,0.0,0.0,0.0079,0.0072,0.0344,0.0,0.0,0.1092,0.1511,0.1947,0.219,0.2369,0.2809,0.347,0.0,0.0,0.0,0.0,0.0,0.5853,0.0,0.0,0.0,0.0,0.0,0.0,0.0,0.4846,0.3993,0.3432,0.0,0.3965,0.335,0.3942,0.386,0.3749,0.3878,0.3608,0.342,0.3556,0.3101,0.2539,0.1851,0.1295,0.071,0.0071,0.0,0.0,0.0,0.0,0.0,0.0,-0.0076,-0.0077,0.0,-0.0053,-0.0081,0.0,0.0,0.0,0.0,0.0,0.0,0.0,0.0,-0.0364,-0.095,-0.028,-0.0364,-0.081,0.1227,0.2317,0.286,0.4649,0.5528,0.5752,0.5772,0.5874,0.5949,0.0,0.0,0.9701,0.9704,1.1347,1.2882,1.3518,1.2762,1.1677,1.0429,1.0266,1.0858,1.2379,1.2561,1.1848,1.0057,0.9901,0.9899,0.9904,0.9892,1.0463,1.1719,1.2273,1.1891,1.0444,1.0641,0.9898,0.8183,0.7688,0.6475,0.4533,0.3057,0.2068,0.1489,0.0,0.0,0.0,0.0,0.0,0.0558,0.0568,0.0,0.1083,0.1564,0.2023,0.2448,0.2656,0.2812,0.2959,0.3149,0.3448,0.3785,0.0,0.0,0.0,0.5312,0.0,0.0,0.0,0.0,0.0,0.0,0.0,0.0,0.4102,0.3846,0.3616,0.0,0.3209,0.2993,0.3125,0.3111,0.3128,0.3254,0.3203,0.3199,0.3329,0.2573,0.1919,0.1663,0.0801,0.0159,0.0023,0.0,0.0,0.0,0.0,0.0,0.0,-0.0454,-0.0513,-0.0027,-0.0479,-0.0487,0.0,0.0,0.0,0.0,0.0,0.0,0.0,0.0,-0.0084,-0.0196,-0.0056,-0.0084,-0.014,0.0894,0.1801,0.2702,0.4348,0.5186,0.5494,0.5586,0.5722,0.562,0.8897,0.9117,0.9779,1.1275,1.2138,1.2392,1.1748,1.1313,1.0831,1.0169,1.0095,1.0519,1.1628,1.175,1.1308,1.0196,1.0998,1.1552,1.1551,1.1548,1.1834,1.2473,1.2008,1.1556,1.1158,1.0721,0.9801,0.8343,0.7883,0.6683,0.4822,0.3276,0.2215,0.1552,0.0,0.0,0.0,0.0,0.0314,0.0801,0.0729,0.0,0.1593,0.1954,0.239,0.2815,0.2943,0.3091,0.3216,0.3391,0.3517,0.0,0.3921,0.4008,0.4068,0.0,0.4556,0.4556,0.0,0.0,0.0,0.429,0.0,0.0,0.0,0.3694,0.3449,0.3987,0.3609,0.329,0.3592,0.3476,0.335,0.3346,0.3202,0.3104,0.3111,0.246,0.1905,0.1637,0.0857,0.0263,0.0022,0.0,0.0,0.0,0.0,0.0,0.0,-0.0286,-0.0315,0.0,-0.0282,-0.0317,0.0,0.0,0.0,0.0,0.0,0.0,0.0,0.0,-0.0196,-0.0532,-0.0168,-0.0196,-0.0476,0.0643,0.1608,0.2472,0.3833,0.4779,0.5395,0.5362,0.5504,0.5485,0.9489,0.9608,1.0381,1.2436,1.1897,1.0771,0.96,0.9562,0.9498,0.9069,0.9014,0.9017,0.901,0.9404,0.9675,0.9667,1.1109,1.2006,1.2013,1.2399,1.2812,1.3172,1.133,1.0768,1.1814,1.0855,0.979,0.8625,0.8179,0.6991,0.5117,0.3698,0.2525,0.1594,0.0,0.0,0.0,0.0,0.0,0.1024,0.0,0.1477,0.2151,0.2312,0.2646,0.3052,0.3148,0.3266,0.3391,0.3537,0.3604,0.3604,0.3604,0.3604,0.0,0.0,0.0,0.0,0.0,0.0,0.0,0.0,0.0,0.3711,0.0,0.0,0.0,0.4558,0.0,0.0,0.4095,0.0,0.0,0.3478,0.0,0.0,0.0,0.2465,0.0,0.1585,0.0993,0.0454,0.0044,-0.0088,-0.0154,-0.0179,-0.0156,-0.0156,-0.0179,-0.018,-0.0115,0.0,-0.0124,-0.0129,0.0,0.0,0.0,0.0,0.0,0.0,0.0,0.0,-0.0336,-0.0866,-0.0252,-0.0336,-0.0783,0.0391,0.1312,0.2105,0.3329,0.4415,0.5255,0.5155,0.527,0.5306,1.1631,1.2138,1.2282,1.0889,0.9675,0.861,0.7806,0.7503,0.6647,0.4618,0.4363,0.4356,0.0,0.0,0.0,0.0,0.0,0.0,0.7702,0.9535,1.1403,1.3116,1.1332,1.0368,1.0504,1.0768,1.0185,0.869,0.863,0.7452,0.5267,0.4539,0.3346,0.0,0.109,0.0,0.0,0.0,0.1076,0.0,0.208,0.2415,0.0,0.2895,0.3222,0.3529,0.3542,0.3563,0.358,0.0,0.3604,0.3604,0.0,0.3604,0.3607,0.3621,0.0,0.0,0.0,0.0,0.0,0.0,0.3604,0.0,0.3689,0.0,0.3562,0.3741,0.0,0.0,0.0,0.0,0.0,0.0,0.0,0.0,0.2727,0.2312,0.1848,0.1396,0.0693,0.0198,0.002,-0.0378,-0.0679,-0.0779,-0.0691,-0.0666,-0.0782,-0.0806,-0.0557,-0.0025,-0.0529,-0.0547,0.0,0.0,0.0,0.0,0.0,0.0,0.0,0.0,-0.0056,-0.0112,-0.0028,-0.0056,-0.0112,0.0056,0.056,0.1405,0.3118,0.4186,0.4796,0.5009,0.5042,0.4862,1.2475,1.2265,0.0,1.0395,0.9322,0.8065,0.6435,0.5659,0.4862,0.3743,0.3605,0.0,0.0,0.0,0.0,0.0,0.0,0.5259,0.0,0.0,0.0,0.812,0.8651,0.8913,0.8907,0.9709,0.9658,0.8689,0.8539,0.745,0.5517,0.4839,0.3779,0.0,0.1444,0.0,0.0667,0.0,0.1339,0.0,0.0,0.0,0.0,0.3272,0.3367,0.3604,0.3604,0.3604,0.3604,0.0,0.3604,0.0,0.0,0.0,0.0,0.3703,0.0,0.0,0.0,0.0,0.0,0.0,0.0,0.0,0.3726,0.0,0.3624,0.0,0.0,0.0,0.0,0.0,0.0,0.0,0.2856,0.0,0.0,0.0,0.1652,0.1342,0.0,0.0,0.0039,-0.0431,-0.0763,-0.0879,-0.1102,-0.1133,-0.0915,-0.0895,-0.0622,-0.0024,-0.0249,-0.0258,0.0,0.0,0.0,0.0,0.0,0.0,0.0,0.0,0.0,0.0,0.0,0.0,0.0,0.0,0.0448,0.1235,0.2527,0.351,0.4222,0.471,0.4945,0.4879,1.2232,0.0,0.0,0.0,0.9057,0.7704,0.5544,0.4728,0.4085,0.0,0.0,0.0,0.3842,0.1554,0.0,0.0,0.3358,0.3595,0.0,0.0,0.4465,0.4361,0.6361,0.759,0.7802,0.8738,0.9051,0.8702,0.8512,0.75,0.5774,0.5237,0.4257,0.2912,0.0,0.1546,0.1352,0.0,0.1834,0.2245,0.2845,0.3419,0.387,0.3559,0.3517,0.3604,0.3604,0.3604,0.3604,0.3604,0.3604,0.0,0.3604,0.3604,0.3621,0.0,0.0,0.0,0.3757,0.0,0.0,0.0,0.0,0.0,0.0,0.0,0.0,0.0,0.0,0.0,0.0,0.0,0.0,0.0,0.0,0.2484,0.0,0.1526,0.0,0.0,0.0,0.0,0.0,-0.0531,-0.095,-0.1125,-0.1532,-0.1666,-0.1403,-0.1073,-0.0708,-0.0262,-0.0074,0.0,0.0,0.0,0.0,0.0,0.0,0.0,0.0,0.0,0.0,0.0,0.0,0.0,0.0,0.0,0.0308,0.0897,0.1778,0.2538,0.3237,0.4315,0.4799,0.4776,1.0752,1.0301,0.0,0.0,0.8388,0.712,0.529,0.5146,0.0,0.0,0.0,0.0,0.0,0.0,0.0,0.0,0.0,0.2618,0.0233,0.0,0.4347,0.0,0.0,0.6804,0.7598,0.8218,0.8588,0.8702,0.8687,0.7758,0.5989,0.5965,0.4927,0.308,0.3058,0.2634,0.2004,0.2603,0.2774,0.272,0.3346,0.3592,0.3631,0.0,0.3716,0.3604,0.3604,0.0,0.0,0.3604,0.3604,0.0,0.0,0.0,0.0,0.0,0.0,0.0,0.0,0.0,0.0,0.361,0.0,0.0,0.0,0.0,0.3748,0.0,0.0,0.0,0.0,0.0,0.0,0.0,0.0,0.0,0.0,0.0,0.0,0.0,0.0,0.0,0.0,-0.0782,-0.1419,0.0,-0.2027,-0.2321,-0.2617,-0.1541,-0.089,-0.0879,-0.0297,0.0,0.0,0.0,0.0,0.0,0.0,0.0,0.0,0.0,0.0,0.0,0.0,0.0,0.0,0.0,0.0,0.0112,0.0868,0.1228,0.1645,0.3868,0.4631,0.4425,0.0,0.0,0.0,0.0,0.0,0.0,0.0,0.4798,0.0,0.0,0.2615,0.0,0.0,0.0608,0.0,0.0,0.0,0.0871,0.0051,0.0951,0.0,0.0,0.0,0.5392,0.0,0.7314,0.775,0.7312,0.7635,0.6995,0.5539,0.5458,0.4847,0.0,0.0,0.2594,0.0,0.0,0.0,0.0,0.0,0.3744,0.374,0.0,0.3645,0.3604,0.3604,0.3604,0.0,0.3604,0.3604,0.3604,0.3604,0.3604,0.3604,0.3604,0.3306,0.3012,0.0,0.0,0.3032,0.3118,0.0,0.0,0.0,0.0,0.0,0.0,0.0,0.0,0.0,0.0,0.0,0.0,0.0,0.0,0.0,0.0,0.0,0.0,0.0,0.0,0.0,0.0,0.0,-0.1763,-0.2167,-0.248,-0.2684,-0.2317,-0.1729,-0.0927,-0.0692,-0.041,0.0,0.0,0.0,0.0,0.0,0.0,0.0,0.0,0.0,0.0,0.0,0.0,0.0,0.0,0.0,0.0084,0.0811,0.1125,0.1307,0.258,0.3111,0.3046,0.6117,0.0,0.0,0.0,0.0,0.0,0.0,0.0,0.0,0.0,0.1843,0.0,0.0117,0.0,0.0,0.0,0.0,0.0158,0.0513,0.0679,0.0,0.2393,0.3655,0.4481,0.0,0.0,0.0,0.0,0.0,0.6477,0.0,0.0,0.0,0.0,0.0,0.2654,0.2691,0.2438,0.2512,0.0,0.0,0.3744,0.0,0.0,0.3634,0.3672,0.0,0.3604,0.3604,0.3604,0.3604,0.3604,0.3604,0.3604,0.3604,0.3604,0.317,0.2696,0.2696,0.2545,0.0,0.2497,0.2443,0.0,0.2482,0.0,0.185,0.0,0.0,0.0,0.0,0.0,0.0,0.0,0.0,0.0,0.0,0.0185,0.0,0.0,0.0,0.0,0.0,0.0,-0.1157,-0.175,-0.2373,-0.2809,-0.2998,-0.2608,-0.2031,-0.1254,-0.1016,-0.073,-0.0391,-0.0595,-0.0609,-0.0392,-0.0392,-0.0252,0.0,0.0,0.0,0.0,0.0,0.0,0.0,0.0,0.0,0.0056,0.0532,0.0699,0.0838,0.184,0.2121,0.1925,0.4507,0.0,0.0,0.0,0.7039,0.0,0.0,0.0,0.2813,0.0,0.1415,0.1209,0.0118,0.0029,0.0056,0.0,0.0,0.0399,0.1354,0.199,0.0,0.0,0.3273,0.3999,0.3981,0.0,0.0,0.0,0.0,0.0,0.0,0.0,0.0,0.0,0.3317,0.0,0.2037,0.2563,0.2764,0.2771,0.3363,0.3703,0.3799,0.3679,0.3713,0.3795,0.3665,0.3607,0.3604,0.3621,0.3621,0.3614,0.3621,0.3617,0.3614,0.3614,0.3179,0.2704,0.266,0.2259,0.1857,0.1789,0.179,0.0,0.0,0.0,0.1868,0.0,0.0,0.0,0.0,0.0,0.0,0.0,0.0,0.0,0.0,0.0,-0.0051,0.0,0.0,0.0,0.0,-0.0771,-0.1429,-0.1768,-0.2594,-0.3222,-0.3587,-0.2521,-0.1875,-0.1852,-0.1328,-0.1093,-0.1209,-0.1777,-0.1759,-0.1146,-0.1118,-0.0727,0.0,0.0,0.0,0.0,0.0,0.0,0.0,0.0,0.0,0.0,0.0,0.0,0.0168,0.1563,0.1647,0.1034,0.4488,0.4493,0.4784,0.0,0.5197,0.4314,0.0,0.0,0.0,0.0,0.2321,0.2396,0.0244,0.0575,0.0709,0.0056,0.0,0.0,0.0,0.0,0.0,0.2196,0.1462,0.1889,0.3661,0.4223,0.4568,0.4763,0.0,0.0,0.4732,0.0,0.0,0.0,0.0,0.0,0.1962,0.1585,0.198,0.2895,0.3503,0.3894,0.4089,0.0,0.3974,0.4072,0.3832,0.3692,0.3634,0.3832,0.3832,0.3758,0.387,0.3829,0.3761,0.3761,0.3315,0.273,0.2172,0.2379,0.2517,0.1538,0.1604,0.1819,0.0,0.0,0.0,0.0,0.0,0.0,0.0,0.0,0.0,0.0,0.0,0.0,0.0,0.0,0.0,-0.0678,0.0,0.0,0.0,-0.06,-0.1226,-0.1764,-0.2423,-0.304,-0.3568,0.0,-0.2926,-0.2475,-0.295,-0.3017,-0.2598,-0.2843,-0.2612,-0.1914,-0.1366,-0.0727,0.0,0.0,0.0,0.0,0.0,0.0,0.0,0.0,0.0,0.0,0.0,0.0,0.0056,0.042,0.0448,0.028,0.4491,0.4486,0.0,0.4503,0.0,0.0,0.3749,0.3621,0.0,0.197,0.1989,0.0,0.0895,0.0753,0.067,0.0505,0.0196,0.0,0.1248,0.0,0.0,0.3218,0.1773,0.1291,0.1999,0.338,0.0,0.4204,0.0,0.0,0.4491,0.0,0.0,0.0,0.0,0.1112,0.1107,0.0964,0.1492,0.2481,0.3137,0.353,0.0,0.3925,0.4089,0.4174,0.4028,0.3897,0.3799,0.394,0.3961,0.3907,0.3967,0.3961,0.389,0.389,0.3411,0.2832,0.247,0.2498,0.2459,0.176,0.1587,0.1525,0.1171,0.0529,0.0,0.0,0.0,0.0,0.0,0.0,0.0,0.0,0.0,0.0,0.0,0.0,0.0,0.0,-0.096,0.0,-0.0576,-0.0717,-0.1066,-0.167,-0.2277,-0.2865,-0.3427,0.0,-0.3056,-0.2719,-0.3295,-0.345,-0.3103,-0.3596,-0.3274,-0.2194,-0.1783,-0.1034,0.0,-0.0336,-0.0308,-0.0028,-0.0336,-0.0308,0.0,0.0,0.0,0.0,0.0,0.0,0.0,0.0,0.0,0.0,0.4608,0.0,0.0,0.0,0.0,0.0,0.0,0.2943,0.0,0.2602,0.0,0.057,0.1479,0.0732,0.0394,0.0923,0.0,0.0896,0.2514,0.2179,0.251,0.3856,0.262,0.1365,0.0177,0.2463,0.3797,0.0,0.0,0.0,0.0,0.0,0.0,0.0,0.0,0.0,0.0,0.064,0.1212,0.1773,0.248,0.2923,0.3194,0.3715,0.4055,0.425,0.425,0.4139,0.4001,0.4038,0.4041,0.4028,0.4045,0.4041,0.3999,0.3921,0.3474,0.3037,0.2981,0.2633,0.2274,0.222,0.1719,0.121,0.1134,0.0534,0.0,0.0,0.0,0.0,0.0,0.0,0.0,0.0,0.0,0.0,0.0,0.0,0.0,0.0,0.0,0.0,0.0,-0.1074,-0.1146,-0.1645,-0.2245,-0.2793,-0.3279,0.0,-0.2791,-0.2807,-0.3143,-0.3354,-0.3388,-0.4194,-0.392,-0.2523,-0.2319,-0.148,-0.0168,-0.0811,-0.0699,-0.0028,-0.0783,-0.0671,0.0,0.0,0.0,0.0,0.0,0.0,0.0,0.0,-0.0056,-0.014,0.5139,0.0,0.0,0.0,0.0,0.4229,0.1234,0.158,0.2226,0.2292,0.1817,0.1191,0.0402,0.0775,0.0836,0.0253,0.0839,0.0,0.0,0.0,0.0,0.077,0.0518,0.0565,0.0984,0.1989,0.2764,0.0,0.0,0.0,0.446,0.0,0.0,0.0,0.0,0.0,0.0027,0.064,0.0,0.1288,0.1894,0.2603,0.3287,0.3376,0.3851,0.4453,0.4453,0.425,0.4031,0.4331,0.4307,0.4203,0.4348,0.4304,0.4049,0.3443,0.351,0.3562,0.2475,0.2997,0.3553,0.2466,0.2111,0.185,0.1247,0.0527,0.0,0.0,0.0,0.0,0.0,0.0,0.0,0.0,0.0,0.0,0.0,0.0,0.0,0.0,0.0,-0.1123,0.0,0.0,-0.2156,-0.2093,-0.2649,-0.3089,-0.3299,0.0,-0.3272,0.0,-0.4191,-0.469,0.0,0.0,-0.4849,-0.4244,-0.2848,-0.1758,-0.0923,-0.1034,-0.0699,-0.0028,-0.0783,-0.0671,0.0,0.0,0.0,0.0,0.0,0.0,0.0,0.0,-0.0392,-0.0811,0.5824,0.0,0.0,0.0,0.0,0.0,0.0,0.0611,0.1072,0.1059,0.0949,0.0644,0.0062,0.0384,0.0655,0.0756,0.0756,0.0839,0.1118,0.0419,0.0,0.0,0.0,0.0193,0.0561,0.1403,0.1969,0.2264,0.0,0.332,0.3289,0.0,0.0,0.0,0.0,0.0,0.0,0.0,0.0,0.06,0.1255,0.1789,0.2202,0.2593,0.3231,0.3929,0.3901,0.4041,0.427,0.4443,0.4443,0.4372,0.4467,0.4139,0.3677,0.3349,0.3377,0.3399,0.2748,0.3371,0.4033,0.3308,0.2897,0.2468,0.1727,0.0994,0.0381,0.0071,0.0,0.0,0.0,0.0,0.0,0.0,0.0,0.0,0.0,0.0,-0.31,0.0,0.0,0.0,0.0,0.0,0.0,0.0,0.0,0.0,0.0,0.0,-0.3034,0.0,0.0,0.0,-0.5203,0.0,-0.5207,-0.4535,-0.3363,-0.2425,-0.1675,-0.2093,-0.187,-0.1174,-0.1507,-0.1257,-0.0532,-0.0168,0.0,0.0,0.0,0.0,0.0,0.0,-0.0476,-0.1006,0.0,0.593,0.0,0.0,0.2859,0.3287,0.0438,0.0,0.0,0.0,0.0,0.0,0.0,0.0,0.0308,0.1119,0.0448,0.0504,0.1651,0.0644,0.0,0.0,0.0,0.0,0.0,0.0784,0.1258,0.0,0.0,0.0,0.0,0.0,0.0,0.0,0.0,0.0,0.0,0.0,0.0,0.0056,0.0643,0.095,0.1174,0.1758,0.2454,0.3151,0.3289,0.3735,0.4294,0.446,0.4491,0.4491,0.4491,0.407,0.3511,0.3231,0.3116,0.3075,0.2913,0.3386,0.3933,0.4033,0.3539,0.2927,0.2411,0.1571,0.0777,0.0327,0.0117,0.0,0.0,0.0,0.0,0.0,0.0,0.0,0.0,0.0,0.0,0.0,0.0,0.0,-0.26,0.0,0.0,0.0,0.0,0.0,-0.1947,0.0,0.0,0.0,0.0,-0.5234,-0.5186,0.0,-0.5362,-0.4698,-0.3824,-0.3065,-0.2454,-0.3093,-0.2954,-0.2202,-0.2369,-0.1924,-0.1034,-0.0308,0.0,0.0,0.0,0.0,0.0,0.0,-0.056,-0.1202,0.0,0.0,0.0,0.0,0.0,0.0386,0.0038,0.0,0.0,0.0,0.0,0.0,0.0,0.0,0.0028,0.014,0.0056,0.0056,0.0196,0.0084,0.0,0.0,0.0,0.0,0.0,0.0084,0.0476,0.0,0.0,0.1788,0.0,0.0,0.0,0.0,0.0,0.0,0.0,0.0,0.0,0.0,0.0084,0.0504,0.1118,0.1174,0.1675,0.2397,0.3121,0.3428,0.3594,0.4267,0.4491,0.4491,0.4491,0.446,0.4125,0.273,0.2691,0.2953,0.2289,0.2553,0.3215,0.3978,0.3539,0.2973,0.3206,0.2027,0.0917,0.0982,0.0463,0.0,0.0,0.0,-0.0202,0.0,0.0,0.0,0.0,0.0,-0.2723,-0.2589,0.0,0.0,-0.1493,-0.212,-0.2338,0.0,-0.19,0.0,0.0,0.0,0.0,-0.3671,-0.4618,-0.5221,-0.546,-0.5381,-0.546,-0.5653,-0.412,-0.3317,-0.3204,-0.3287,-0.2899,-0.2232,-0.2899,-0.2397,-0.1034,-0.0308,0.0,0.0,0.0,0.0,0.0,0.0,-0.0895,-0.1898,0.0,0.0,0.0,0.0,0.0,0.0,0.0,0.0,0.0,0.0,0.0,0.0,0.0,0.0,0.0,0.0,0.0,0.0,0.0,0.0,0.0,0.0,0.0,0.0,0.0,0.0,0.014,0.0,0.0,0.0,0.0,0.0,0.0,0.0,0.0,0.0,0.0,0.0,0.0,0.0,0.0,0.0168,0.0448,0.0448,0.0895,0.1591,0.1898,0.2313,0.2788,0.3539,0.4098,0.4491,0.4491,0.4181,0.3566,0.2508,0.2372,0.2383,0.1573,0.2163,0.3077,0.3347,0.3497,0.3505,0.3275,0.2691,0.213,0.1827,0.1171,0.0537,0.007,0.0,-0.0069,-0.0315,0.0,0.0,0.0,0.0,0.0,-0.2093,0.0,-0.237,0.0,-0.244,-0.2566,-0.246,0.0,0.0,0.0,0.0,0.0,-0.3242,0.0,-0.5259,-0.5381,-0.5419,-0.5481,-0.56,-0.4563,-0.4042,-0.4015,-0.4015,-0.3624,-0.2926,-0.3176,-0.2454,-0.109,-0.0783,-0.0392,0.0,0.0,0.0,0.0,0.0,-0.0643,-0.1396,0.0588,0.0,0.4447,0.0,0.1969,0.0,0.0,0.0,0.0,0.0,0.0,0.0,0.0,0.0,0.0,0.0,0.0,0.0,0.0,0.0,0.0,0.0,0.0,0.0,0.0,0.0,0.0,0.0,0.0,0.0,0.0,0.0,0.0,0.0,0.0,0.0,0.0,0.0,0.0,0.0,0.0,0.0,0.0,0.0,0.0336,0.0811,0.1034,0.1424,0.1981,0.2732,0.3345,0.3901,0.4349,0.4098,0.3456,0.248,0.2204,0.2002,0.1134,0.1649,0.248,0.2612,0.3153,0.3586,0.3251,0.3151,0.2873,0.2056,0.1458,0.0886,0.0147,0.0,0.0,0.0,0.0,0.0,0.0,-0.1429,0.0,-0.1567,-0.2145,-0.2484,-0.2258,-0.256,-0.281,-0.2942,0.0,0.0,0.0,0.0,0.0,0.0,0.0,0.0,-0.5356,-0.5452,-0.5515,-0.5487,-0.4814,-0.4491,-0.4491,-0.4491,-0.4211,-0.3707,-0.3428,-0.2591,-0.1396,-0.1202,-0.0671,0.0,0.0,0.0,0.0,0.0,-0.0476,-0.1006,0.0,0.0044,0.0089,0.0087,0.0043,0.0,0.0,0.0,0.0,0.0,0.0,0.0,0.0,0.0,0.0,0.0,0.0,0.0,0.0,0.0,0.0,0.0,0.0,0.0,0.0,0.0,0.0,0.0,0.0,0.0,0.0,0.0,0.0,0.0,0.0,0.0,0.0,0.0,0.0,0.0,0.0,0.0,0.0,0.0,0.0,0.0112,0.0838,0.1118,0.1229,0.1952,0.2232,0.248,0.4015,0.4491,0.4181,0.2649,0.2204,0.2014,0.1143,0.0907,0.1093,0.1842,0.2478,0.2993,0.3318,0.3234,0.2733,0.1379,0.1113,0.0866,0.0127,0.0,0.0,0.0,0.0,0.0,0.0,-0.1429,0.0,-0.0994,-0.1448,-0.1637,-0.1157,-0.2203,0.0,0.0,0.0,0.0,0.0,0.0,0.0,-0.4131,-0.4331,0.0,-0.5483,-0.5487,-0.5515,-0.5487,-0.4814,-0.4491,-0.4491,-0.4491,-0.4491,-0.4432,-0.3649,-0.2871,-0.212,-0.1396,-0.0671,0.0,0.0,0.0,0.0,0.0,-0.0476,-0.1006,0.0,0.0,0.0,0.0,0.0,0.0,0.0,0.0,0.0,0.0,0.0,0.0,0.0,0.0,0.0,0.0,0.0,0.0,0.0,0.0,0.0,0.0,0.0,0.0,0.0,0.0,0.0,0.0,0.0,0.0,0.0,0.0,0.0,0.0,0.0,0.0,0.0,0.0,0.0,0.0,0.0,0.0,0.0,0.0,0.0,0.0028,0.0252,0.0364,0.0476,0.1202,0.1452,0.1619,0.2619,0.2926,0.2843,0.2343,0.1851,0.1273,0.0506,0.0596,0.0966,0.1316,0.1842,0.2483,0.3172,0.3707,0.3787,0.2798,0.2196,0.163,0.0893,0.034,0.0,0.0,-0.017,0.0,-0.0281,0.0,-0.0954,-0.0356,-0.1266,-0.1913,-0.1846,-0.2202,0.0,0.0,0.0,0.0,0.0,0.0,0.0,0.0,-0.4379,0.0,-0.4814,-0.4814,-0.4814,-0.4814,-0.4598,-0.4491,-0.4491,-0.4491,-0.4491,-0.4491,-0.4236,-0.34,-0.2174,-0.1952,-0.1118,0.0,0.0,0.0,0.0,0.0,-0.014,-0.0308,0.0,0.0,0.0,0.0,0.0,0.0,0.0,0.0,0.0,0.0,0.0,0.0,0.0,0.0,0.0,0.0,0.0,0.0,0.0,0.0,0.0,0.0,0.0,0.0,0.0,0.0,0.0,0.0,0.0,0.0,0.0,0.0,0.0,0.0,0.0,0.0,0.0,0.0,0.0,0.0,0.0,0.0,0.0,0.0,0.0,0.0,0.0,0.0,0.0084,0.0532,0.0699,0.0811,0.1563,0.1591,0.1424,0.1703,0.1457,0.0948,0.019,0.0267,0.0581,0.0674,0.1165,0.196,0.3079,0.3707,0.3901,0.34,0.2926,0.2299,0.1276,0.0731,0.0322,0.0052,0.0,0.0,0.0,0.0,-0.0982,0.0,0.0,0.0,0.0,-0.2456,-0.313,0.0,0.0,0.0,0.0,0.0,0.0,-0.4301,-0.4167,-0.4211,-0.4491,-0.4491,-0.4491,-0.4491,-0.4491,-0.4491,-0.4491,-0.4491,-0.4491,-0.4491,-0.4181,-0.3345,-0.2174,-0.1898,-0.109,0.0,0.0,0.0,0.0,0.0,0.0,0.0,0.0,0.0,0.0,0.0,0.0,0.0,0.0,0.0,0.0,0.0,0.0,0.0,0.0,0.0,0.0,0.0,0.0,0.0,0.0,0.0,0.0,0.0,0.0,0.0,0.0,0.0,0.0,0.0,0.0,0.0,0.0,0.0,0.0,0.0,0.0,0.0,0.0,0.0,0.0,0.0,0.0,0.0,0.0,0.0,0.0,0.0,0.0,0.0,0.0,0.0,0.0,0.0112,0.0811,0.056,0.014,0.0895,0.1062,0.0867,0.0196,0.0,0.0,0.0,0.056,0.148,0.2926,0.3262,0.3287,0.3287,0.3287,0.2871,0.1452,0.1146,0.0858,0.0107,0.0,-0.0025,-0.0076,-0.1197,-0.1545,0.0,0.0,0.0,-0.2334,-0.2899,-0.3649,0.0,0.0,0.0,0.0,0.0,-0.3589,-0.4443,-0.3807,-0.3754,-0.4405,-0.4405,-0.4405,-0.4405,-0.446,-0.4491,-0.4491,-0.4491,-0.446,-0.4377,-0.3622,-0.2843,-0.2063,-0.1396,-0.0671,0.0,0.0,0.0,0.0,0.0,0.0,0.0,0.0,0.0,0.0,0.0,0.0,0.0,0.0,0.0,0.0,0.0,0.0,0.0,0.0,0.0,0.0,0.0,0.0,0.0,0.0,0.0,0.0,0.0,0.0,0.0,0.0,0.0,0.0,0.0,0.0,0.0,0.0,0.0,0.0,0.0,0.0,0.0,0.0,0.0,0.0,0.0,0.0,0.0,0.0,0.0,0.0,0.0,0.0,0.0,0.0,0.0,0.0,0.0028,0.0196,0.014,0.014,0.0895,0.0699,0.0224,0.0056,0.0,0.0,0.0,0.056,0.1202,0.1563,0.2508,0.3287,0.3287,0.3287,0.301,0.212,0.148,0.0864,0.0111,0.0,-0.0184,-0.076,-0.1499,-0.1918,0.0,-0.2519,-0.3091,-0.3056,-0.3234,-0.368,0.0,0.0,-0.4474,-0.444,-0.4273,-0.4213,-0.4274,-0.4111,-0.3887,-0.3649,-0.3624,-0.3594,-0.3594,-0.4208,-0.4491,-0.4491,-0.4491,-0.4153,-0.3566,-0.337,-0.2565,-0.1341,-0.1174,-0.0671,0.0,0.0,0.0,0.0,0.0,0.0,0.0,0.0,0.0,0.0,0.0,0.0,0.0,0.0,0.0,0.0,0.0,0.0,0.0,0.0,0.0,0.0,0.0,0.0,0.0,0.0,0.0,0.0,0.0,0.0,0.0,0.0,0.0,0.0,0.0,0.0,0.0,0.0,0.0,0.0,0.0,0.0,0.0,0.0,0.0,0.0,0.0,0.0,0.0,0.0,0.0,0.0,0.0,0.0,0.0,0.0,0.0,0.0,0.0,0.0,0.0,0.0084,0.0476,0.0308,0.0,0.0,0.0,0.0,0.0,0.0308,0.0699,0.1034,0.173,0.2397,0.2732,0.2788,0.2565,0.1842,0.1369,0.0866,0.0112,-0.0272,-0.0641,-0.1057,-0.1974,-0.2503,-0.2241,-0.3121,-0.3637,-0.3337,-0.3677,-0.407,-0.446,-0.4491,0.0,-0.4368,-0.4365,-0.4358,-0.4345,-0.4345,-0.4026,-0.3372,-0.2982,-0.2982,-0.3345,-0.379,-0.4181,-0.4491,-0.4125,-0.3707,-0.3259,-0.2591,-0.1842,-0.1062,-0.0727,-0.0364,0.0,0.0,0.0,0.0,0.0,0.0,0.0,0.0,0.0,0.0,0.0,0.0,0.0,0.0,0.0,0.0,0.0,0.0,0.0,0.0,0.0,0.0,0.0,0.0,0.0,0.0,0.0,0.0,0.0,0.0,0.0,0.0,0.0,0.0,0.0,0.0,0.0,0.0,0.0,0.0,0.0,0.0,0.0,0.0,0.0,0.0,0.0,0.0,0.0,0.0,0.0,0.0,0.0,0.0,0.0,0.0,0.0,0.0,0.0,0.0,0.0,0.0,0.0,0.0,0.0,0.0,0.0,0.0,0.0,0.0,0.0168,0.0783,0.1006,0.1284,0.1898,0.212,0.1981,0.1229,0.109,0.0866,0.0112,-0.0628,-0.1135,-0.1252,0.0,-0.3101,-0.2611,-0.3707,-0.4236,-0.3539,-0.4098,-0.4491,-0.4491,-0.4491,-0.4436,-0.426,-0.4254,-0.4334,-0.4487,-0.4467,-0.4021,-0.3148,-0.2397,-0.2371,-0.3065,-0.3289,-0.3652,-0.4125,-0.3566,-0.3176,-0.2899,-0.1647,-0.1034,-0.0895,-0.0252,0.0,0.0,0.0,0.0,0.0,0.0,0.0,0.0,0.0,0.0,0.0,0.0,0.0,0.0,0.0,0.0,0.0,0.0,0.0,0.0,0.0,0.0,0.0,0.0,0.0,0.0,0.0,0.0,0.0,0.0,0.0,0.0,0.0,0.0,0.0,0.0,0.0,0.0,0.0,0.0,0.0,0.0,0.0,0.0,0.0,0.0,0.0,0.0,0.0,0.0,0.0,0.0,0.0,0.0,0.0,0.0,0.0,0.0,0.0,0.0,0.0,0.0,0.0,0.0,0.0,0.0,0.0,0.0,0.0,0.0,0.0,0.0028,0.014,0.0643,0.1146,0.1257,0.1758,0.1981,0.1229,0.109,0.0866,0.0112,-0.0613,-0.1305,-0.195,0.0,-0.3517,-0.4067,-0.4349,-0.446,-0.4322,-0.4436,-0.4491,-0.4491,-0.4491,-0.4481,-0.4457,-0.4457,-0.4467,-0.4491,-0.4345,-0.3633,-0.2369,-0.1647,-0.134,-0.148,-0.273,-0.3037,-0.2565,-0.3121,-0.2676,-0.1424,-0.1202,-0.0755,-0.0168,-0.0056,0.0,0.0,0.0,0.0,0.0,0.0,0.0,0.0,0.0,0.0,0.0,0.0,0.0,0.0,0.0,0.0,0.0,0.0,0.0,0.0,0.0,0.0,0.0,0.0,0.0,0.0,0.0,0.0,0.0,0.0,0.0,0.0,0.0,0.0,0.0,0.0,0.0,0.0,0.0,0.0,0.0,0.0,0.0,0.0,0.0,0.0,0.0,0.0,0.0,0.0,0.0,0.0,0.0,0.0,0.0,0.0,0.0,0.0,0.0,0.0,0.0,0.0,0.0,0.0,0.0,0.0,0.0,0.0,0.0,0.0,0.0,0.0,0.0,0.0252,0.0504,0.0504,0.0783,0.0923,0.056,0.0504,0.0392,0.0056,-0.095,0.0,-0.2147,-0.3204,-0.4098,-0.446,-0.4491,-0.4491,-0.4491,-0.4491,-0.4491,-0.4491,-0.4491,-0.4491,-0.4491,-0.4491,-0.4491,-0.4491,-0.3599,-0.2827,-0.2202,-0.1062,-0.0699,-0.1118,-0.1786,-0.2148,-0.2202,-0.2176,-0.1786,-0.109,-0.0671,-0.0308,0.0,0.0,0.0,0.0,0.0,0.0,0.0,0.0,0.0,0.0,0.0,0.0,0.0,0.0,0.0,0.0,0.0,0.0,0.0,0.0,0.0,0.0,0.0,0.0,0.0,0.0,0.0,0.0,0.0,0.0,0.0,0.0,0.0,0.0,0.0,0.0,0.0,0.0,0.0,0.0,0.0,0.0,0.0,0.0,0.0,0.0,0.0,0.0,0.0,0.0,0.0,0.0,0.0,0.0,0.0,0.0,0.0,0.0,0.0,0.0,0.0,0.0,0.0,0.0,0.0,0.0,0.0,0.0,0.0,0.0,0.0,0.0,0.0,0.0,0.0,0.0,0.0,0.0,0.0,0.0,0.0,0.0,0.0,0.0,0.0,-0.2202,-0.2202,-0.3539,-0.4491,-0.4491,-0.4349,-0.4236,-0.4236,-0.4236,-0.4236,-0.4208,-0.4405,-0.4491,-0.4491,-0.4491,-0.4491,-0.4491,-0.301,-0.2202,-0.2202,-0.0727,-0.028,-0.0838,-0.1006,-0.1312,-0.1675,-0.1284,-0.1006,-0.0811,-0.0252,0.0,0.0,0.0,0.0,0.0,0.0,0.0,0.0,0.0,0.0,0.0,0.0,0.0,0.0,0.0,0.0,0.0,0.0,0.0,0.0,0.0,0.0,0.0,0.0,0.0,0.0,0.0,0.0,0.0,0.0,0.0,0.0,0.0,0.0,0.0,0.0,0.0,0.0,0.0,0.0,0.0,0.0,0.0,0.0,0.0,0.0,0.0,0.0,0.0,0.0,0.0,0.0,0.0,0.0,0.0,0.0,0.0,0.0,0.0,0.0,0.0,0.0,0.0,0.0,0.0,0.0,0.0,0.0,0.0,0.0,0.0,0.0,0.0,0.0,0.0,0.0,0.0,0.0,0.0,0.0,0.0,0.0,0.0,0.0,0.0,0.0,0.0,-0.2202,-0.3539,-0.4491,-0.4491,-0.3846,-0.34,-0.3483,-0.3483,-0.3456,-0.34,-0.407,-0.4491,-0.4491,-0.4491,-0.4491,-0.4491,-0.301,-0.2202,-0.2202,-0.0727,-0.0028,-0.0084,-0.0783,-0.0783,-0.0196,-0.0811,-0.0727,-0.0084,-0.0028,0.0,0.0,0.0,0.0,0.0,0.0,0.0,0.0,0.0,0.0,0.0,0.0,0.0,0.0,0.0,0.0,0.0,0.0,0.0,0.0,0.0,0.0,0.0,0.0,0.0,0.0,0.0,0.0,0.0,0.0,0.0,0.0,0.0,0.0,0.0,0.0,0.0,0.0,0.0,0.0,0.0,0.0,0.0,0.0,0.0,0.0,0.0,0.0,0.0,0.0,0.0,0.0,0.0,0.0,0.0,0.0,0.0,0.0,0.0,0.0,0.0,0.0,0.0,0.0,0.0,0.0,0.0,0.0,0.0,0.0,0.0,0.0,0.0,0.0,0.0,0.0,0.0,0.0,0.0,0.0,0.0,0.0,0.0,-0.014,-0.0615,0.0,-0.2371,-0.2813,-0.3818,-0.4322,-0.3818,-0.3483,-0.3121,-0.2704,-0.3065,-0.3317,-0.3314,-0.4042,-0.4491,-0.4491,-0.4491,-0.4491,-0.4491,-0.301,-0.2202,-0.2202,-0.0727,0.0,0.0,-0.028,-0.028,0.0,-0.028,-0.0252,0.0,0.0,0.0,0.0,0.0,0.0,0.0,0.0,0.0,0.0,0.0,0.0,0.0065,0.0,0.0,0.0,0.0,0.0,0.0,0.0,0.0,0.0,0.0,0.0,0.0,0.0,0.0,0.0,0.0,0.0,0.0,0.0,0.0,0.0,0.0,0.0,0.0,0.0,0.0,0.0,0.0,0.0,0.0,0.0,0.0,0.0,0.0,0.0,0.0,0.0,0.0,0.0,0.0,0.0,0.0,0.0,0.0,0.0,0.0,0.0,0.0,0.0,0.0,0.0,0.0,0.0,0.0,0.0,0.0,0.0,0.0,0.0,0.0,0.0,0.0,0.0,0.0,0.0,0.0,0.0,0.0,0.0,0.0,0.0,0.0,-0.0228,-0.0994,-0.173,-0.2454,-0.3209,-0.379,-0.3959,-0.34,-0.2899,-0.2397,-0.1898,-0.2313,-0.2619,-0.2619,-0.3566,-0.4267,-0.4491,-0.4535,-0.4539,-0.4491,-0.3231,-0.2426,-0.2202,-0.0727,0.0,0.0,0.0,0.0,0.0,0.0,0.0,0.0,0.0,0.0,0.0,0.0,0.0,0.0,0.0,0.0,0.0,0.0,0.0168,0.0503,0.0,0.0,0.0,0.0,0.0,0.0,0.0,0.0,0.0,0.0,0.0,0.0,0.0,0.0,0.0,0.0,0.0,0.0,0.0,0.0,0.0,0.0,0.0,0.0,0.0,0.0,0.0,0.0,0.0,0.0,0.0,0.0,0.0,0.0,0.0,0.0,0.0,0.0,0.0,0.0,0.0,0.0,0.0,0.0,0.0,0.0,0.0,0.0,0.0,0.0,0.0,0.0,0.0,0.0,0.0,0.0,0.0,0.0,0.0,0.0,0.0,0.0,0.0,0.0,0.0,0.0,0.0,0.0,0.0,0.0,0.0,0.0,-0.0265,-0.0999,-0.1731,-0.2463,-0.3221,-0.3372,-0.3403,-0.34,-0.2037,-0.109,-0.109,-0.109,-0.109,-0.109,-0.2538,-0.3707,-0.4463,-0.4638,-0.4651,-0.4498,-0.3735,-0.2954,-0.2206,-0.0755,0.0,0.0,0.0,0.0,0.0,0.0,0.0,0.0,0.0,0.0,0.0,0.0,0.0,0.0,0.0,0.0,0.0,0.0,0.0538,0.1307,0.0,0.0,0.0,0.0,0.0,0.0,0.0,0.0,0.0,0.0,0.0,0.0,0.0,0.0,0.0,0.0,0.0,0.0,0.0,0.0,0.0,0.0,0.0,0.0,0.0,0.0,0.0,0.0,0.0,0.0,0.0,0.0,0.0,0.0,0.0,0.0,0.0,0.0,0.0,0.0,0.0,0.0,0.0,0.0,0.0,0.0,0.0,0.0,0.0,0.0,0.0,0.0,0.0,0.0,0.0,0.0,0.0,0.0,0.0,0.0,0.0,0.0,0.0,0.0,0.0,0.0,0.0,0.0,0.0,0.0,0.0,-0.0486,-0.1154,-0.194,-0.2788,-0.3535,-0.4205,-0.384,-0.3292,-0.2629,-0.1703,-0.0895,-0.0392,-0.0783,-0.109,-0.109,-0.2622,-0.3645,-0.3849,-0.4399,-0.4718,-0.4779,-0.3826,-0.3022,-0.242,-0.1316,-0.051,0.0,0.0,0.0,0.0,0.0,0.0,0.0,0.0,0.0,0.0,0.0,0.0,0.0,0.0,0.0,0.0,0.0,0.0538,0.1407,0.0,0.0,0.0,0.0,0.0,0.0,0.0,0.0,0.0,0.0,0.0,0.0,0.0,0.0,0.0,0.0,0.0,0.0,0.0,0.0,0.0,0.0,0.0,0.0,0.0,0.0,0.0,0.0,0.0,0.0,0.0,0.0,0.0,0.0,0.0,0.0,0.0,0.0,0.0,0.0,0.0,0.0,0.0,0.0,0.0,0.0,0.0,0.0,0.0,0.0,0.0,0.0,0.0,0.0,0.0,0.0,0.0,0.0,0.0,0.0,0.0,0.0,0.0,0.0,0.0,0.0,0.0,0.0,0.0,0.0,0.0,-0.044,-0.116,-0.2317,-0.2941,-0.353,-0.4168,-0.3641,-0.2816,-0.1861,-0.1105,-0.0495,-0.0029,-0.0408,-0.0786,-0.1076,-0.2394,-0.3264,-0.3495,-0.4317,-0.4769,-0.4741,-0.4207,-0.3436,-0.2382,-0.1883,-0.1086,0.0,0.0,0.0,0.0,0.0,0.0,0.0,0.0,0.0,0.0,0.0,0.0,0.0,0.0,0.0,0.0,0.0,0.0538,0.1441,0.0,0.0,0.0,0.0,0.0,0.0,0.0,0.0,0.0,0.0,0.0,0.0,0.0,0.0,0.0,0.0,0.0,0.0,0.0,0.0,0.0,0.0,0.0,0.0,0.0,0.0,0.0,0.0,0.0,0.0,0.0,0.0,0.0,0.0,0.0,0.0,0.0,0.0,0.0,0.0,0.0,0.0,0.0,0.0,0.0,0.0,0.0,0.0,0.0,0.0,0.0,0.0,0.0,0.0,0.0,0.0,0.0,0.0,0.0,0.0,0.0,0.0,0.0,0.0,0.0,0.0,0.0,0.0,0.0,0.0,0.0,-0.0065,-0.0615,-0.213,-0.2452,-0.2746,-0.3406,-0.2868,-0.2067,-0.12,-0.0524,-0.0093,0.0,0.0,-0.0278,-0.0958,-0.1878,-0.2673,-0.3284,-0.4261,-0.4716,-0.4539,-0.467,-0.3934,-0.2246,-0.2318,-0.158,0.0,0.0,0.0,0.0,0.0,0.0,0.0,0.0,0.0,0.0,0.0,0.0,0.0,0.0,0.0,0.0,0.0,0.0538,0.1441,0.0,0.0,0.0,0.0,0.0,0.0,0.0,0.0,0.0,0.0,0.0,0.0,0.0,0.0,0.0,0.0,0.0,0.0,0.0,0.0,0.0,0.0,0.0,0.0,0.0,0.0,0.0,0.0,0.0,0.0,0.0,0.0,0.0,0.0,0.0,0.0,0.0,0.0,0.0,0.0,0.0,0.0,0.0,0.0,0.0,0.0,0.0,0.0,0.0,0.0,0.0,0.0,0.0,0.0,0.0,0.0,0.0,0.0,0.0,0.0,0.0,0.0,0.0,0.0,0.0,0.0,0.0,0.0,0.0,0.0,0.0,-0.0566,-0.113,-0.1494,-0.219,-0.2663,-0.2716,-0.207,-0.1454,-0.1142,-0.1046,-0.0739,-0.0062,0.0,-0.0062,-0.0223,-0.1061,-0.189,-0.2645,-0.3455,-0.4169,-0.479,-0.4047,-0.3262,-0.2458,-0.1755,-0.0946,0.0,0.0,0.0,0.0,0.0,0.0,0.0,0.0,0.0,0.0,0.0,0.0,0.0,0.0,0.0,0.0,0.0,0.0538,0.1436,0.0,0.0,0.0,0.0,0.0,0.0,0.0,0.0,0.0,0.0,0.0,0.0,0.0,0.0,0.0,0.0,0.0,0.0,0.0,0.0,0.0,0.0,0.0,0.0,0.0,0.0,0.0,0.0,0.0,0.0,0.0,0.0,0.0,0.0,0.0,0.0,0.0,0.0,0.0,0.0,0.0,0.0,0.0,0.0,0.0,0.0,0.0,0.0,0.0,0.0,0.0,0.0,0.0,0.0,0.0,0.0,0.0,0.0,0.0,0.0,0.0,0.0,0.0,0.0,0.0,0.0,0.0,0.0,0.0,0.0,0.0,-0.0373,-0.0809,-0.1228,-0.1723,-0.1999,-0.1938,-0.1575,-0.111,-0.0644,-0.0643,-0.0515,-0.0032,0.0,0.0,0.0,-0.0736,-0.1583,-0.2441,-0.3272,-0.4046,-0.4783,-0.4042,-0.3228,-0.2361,-0.1599,-0.0782,0.0,0.0,0.0,0.0,0.0,0.0,0.0,0.0,0.0,0.0,0.0,0.0,0.0,0.0,0.0,0.0,0.0,0.0538,0.1299,0.0,0.0,0.0,0.0,0.0,0.0,0.0,0.0,0.0,0.0,0.0,0.0,0.0,0.0,0.0,0.0,0.0,0.0,0.0,0.0,0.0,0.0,0.0,0.0,0.0,0.0,0.0,0.0,0.0,0.0,0.0,0.0,0.0,0.0,0.0,0.0,0.0,0.0,0.0,0.0,0.0,0.0,0.0,0.0,0.0,0.0,0.0,0.0,0.0,0.0,0.0,0.0,0.0,0.0,0.0,0.0,0.0,0.0,0.0,0.0,0.0,0.0,0.0,0.0,0.0,0.0,0.0,0.0,0.0,0.0,0.0,0.0,-0.024,-0.0976,-0.1067,-0.1088,-0.1088,-0.1088,-0.0815,-0.0102,0.0,-0.0067,-0.0202,-0.0101,0.0,0.0,-0.0557,-0.1319,-0.2219,-0.2937,-0.3639,-0.4259,-0.3768,-0.3022,-0.2013,-0.1379,-0.0699,0.0,-0.018,-0.029,-0.0283,-0.0281,-0.0281,-0.028,-0.0068,0.0,0.0,0.0,0.0,0.0,0.0,0.0,0.0,0.0,0.0471,0.0966,0.0,0.0,0.0,0.0,0.0,0.0,0.0,0.0,0.0,0.0,0.0,0.0,0.0,0.0,0.0,0.0,0.0,0.0,0.0,0.0,0.0,0.0,0.0,0.0,0.0,0.0,0.0,0.0,0.0,0.0,0.0,0.0,0.0,0.0,0.0,0.0,0.0,0.0,0.0,0.0,0.0,0.0,0.0,0.0,0.0,0.0,0.0,0.0,0.0,0.0,0.0,0.0,0.0,0.0,0.0,0.0,0.0,0.0,0.0,0.0,0.0,0.0,0.0,0.0,0.0,0.0,0.0,0.0,0.0,0.0,0.0,0.0,-0.0036,-0.0141,-0.0178,-0.018,-0.018,-0.018,-0.0143,0.0,0.0,-0.0303,-0.104,-0.0437,0.0,0.0,-0.0098,-0.0484,-0.1255,-0.1413,-0.1787,-0.2504,-0.187,-0.1419,-0.1248,-0.0545,-0.0104,0.0,-0.0947,-0.1373,-0.1374,-0.1378,-0.1398,-0.1327,-0.0409,0.0,0.0,0.0,0.0,0.0,0.0,0.0,0.0,0.0,0.0067,0.0168,0.343,0.1832,0.0,0.0,0.0,0.0,0.0,0.0,0.0,0.0,0.0,0.0,0.0,0.0,0.0,0.0,0.0,0.0,0.0,0.0,0.0,0.0,0.0,0.0,0.0,0.0,0.0,0.0,0.0,0.0,0.0,0.0,0.0,0.0,0.0,0.0,0.0,0.0,0.0,0.0,0.0,0.0,0.0,0.0,0.0,0.0,0.0,0.0,0.0,0.0,0.0,0.0,0.0,0.0,0.0,0.0,0.0,0.0,0.0,0.0,0.0,0.0,0.0,0.0,0.0,0.0,0.0,0.0,0.0,0.0,0.0,0.0,0.0,0.0,0.0,0.0,0.0,0.0,0.0,0.0,0.0,-0.0136,-0.055,-0.0238,0.0,0.0,0.0,-0.0363,-0.1153,-0.1204,-0.157,-0.2332,-0.1622,-0.1186,-0.1089,-0.0378,0.0,0.0,-0.1092,-0.1532,-0.1423,-0.1534,-0.1524,-0.1395,-0.0409,0.0,0.0,0.0,0.0,0.0,0.0,0.0,0.0,0.0,0.0,0.0]}]]